<?xml version='1.0' encoding='UTF-8'?><gpx version="1.1" creator="JPX - https://github.com/jenetics/jpx" xmlns="http://www.topografix.com/GPX/1/1"><trk><trkseg><trkpt lat="45.5412505" lon="10.8838434"><ele>185.4</ele><time>2026-03-22T08:15:38.971Z</time></trkpt><trkpt lat="45.5411479" lon="10.8837633"><ele>184.8</ele><time>2026-03-22T08:16:16.972Z</time></trkpt><trkpt lat="45.5410585" lon="10.8837036"><ele>184.20000000000002</ele><time>2026-03-22T08:16:17.971Z</time></trkpt><trkpt lat="45.5409628" lon="10.8836104"><ele>183.60000000000002</ele><time>2026-03-22T08:16:18.968Z</time></trkpt><trkpt lat="45.5408928" lon="10.8835021"><ele>183.0</ele><time>2026-03-22T08:16:19.972Z</time></trkpt><trkpt lat="45.5408374" lon="10.8834234"><ele>183.0</ele><time>2026-03-22T08:16:20.973Z</time></trkpt><trkpt lat="45.5407937" lon="10.8833374"><ele>183.0</ele><time>2026-03-22T08:21:26.968Z</time></trkpt><trkpt lat="45.5407197" lon="10.8832381"><ele>183.0</ele><time>2026-03-22T08:21:57.973Z</time></trkpt><trkpt lat="45.5406562" lon="10.883152"><ele>183.0</ele><time>2026-03-22T08:21:59.977Z</time></trkpt><trkpt lat="45.5405692" lon="10.8830733"><ele>183.0</ele><time>2026-03-22T08:22:02.018Z</time></trkpt><trkpt lat="45.5404824" lon="10.8830009"><ele>183.0</ele><time>2026-03-22T08:22:03.987Z</time></trkpt><trkpt lat="45.540387" lon="10.8829029"><ele>183.0</ele><time>2026-03-22T08:22:05.974Z</time></trkpt><trkpt lat="45.5403316" lon="10.882855"><ele>183.0</ele><time>2026-03-22T08:22:06.982Z</time></trkpt><trkpt lat="45.5402701" lon="10.8828061"><ele>183.0</ele><time>2026-03-22T08:22:07.984Z</time></trkpt><trkpt lat="45.5402105" lon="10.8827527"><ele>183.0</ele><time>2026-03-22T08:22:08.987Z</time></trkpt><trkpt lat="45.5401597" lon="10.882697"><ele>183.0</ele><time>2026-03-22T08:22:09.975Z</time></trkpt><trkpt lat="45.5401106" lon="10.8826385"><ele>183.60000000000002</ele><time>2026-03-22T08:22:10.974Z</time></trkpt><trkpt lat="45.5400625" lon="10.8825723"><ele>184.20000000000002</ele><time>2026-03-22T08:22:11.978Z</time></trkpt><trkpt lat="45.5399648" lon="10.8824551"><ele>184.8</ele><time>2026-03-22T08:22:13.976Z</time></trkpt><trkpt lat="45.5399134" lon="10.8823938"><ele>185.4</ele><time>2026-03-22T08:22:14.974Z</time></trkpt><trkpt lat="45.5398223" lon="10.8822567"><ele>186.0</ele><time>2026-03-22T08:22:16.977Z</time></trkpt><trkpt lat="45.5397496" lon="10.8821418"><ele>186.0</ele><time>2026-03-22T08:22:18.98Z</time></trkpt><trkpt lat="45.5396805" lon="10.8819984"><ele>186.0</ele><time>2026-03-22T08:22:20.982Z</time></trkpt><trkpt lat="45.5396483" lon="10.8819081"><ele>186.0</ele><time>2026-03-22T08:22:21.971Z</time></trkpt><trkpt lat="45.5396368" lon="10.8818013"><ele>186.0</ele><time>2026-03-22T08:22:22.98Z</time></trkpt><trkpt lat="45.5396353" lon="10.8816967"><ele>186.0</ele><time>2026-03-22T08:22:23.976Z</time></trkpt><trkpt lat="45.5396443" lon="10.8815975"><ele>186.0</ele><time>2026-03-22T08:22:24.982Z</time></trkpt><trkpt lat="45.5396633" lon="10.8814062"><ele>186.4</ele><time>2026-03-22T08:22:26.981Z</time></trkpt><trkpt lat="45.5396582" lon="10.8812544"><ele>186.8</ele><time>2026-03-22T08:22:27.98Z</time></trkpt><trkpt lat="45.5396465" lon="10.8811015"><ele>187.20000000000002</ele><time>2026-03-22T08:22:28.98Z</time></trkpt><trkpt lat="45.5396325" lon="10.8809845"><ele>187.60000000000002</ele><time>2026-03-22T08:22:29.978Z</time></trkpt><trkpt lat="45.5396167" lon="10.8808686"><ele>188.0</ele><time>2026-03-22T08:22:30.973Z</time></trkpt><trkpt lat="45.5395909" lon="10.8807499"><ele>188.16666666666666</ele><time>2026-03-22T08:22:31.991Z</time></trkpt><trkpt lat="45.5395623" lon="10.880642"><ele>188.33333333333331</ele><time>2026-03-22T08:22:32.967Z</time></trkpt><trkpt lat="45.5395297" lon="10.8805421"><ele>188.5</ele><time>2026-03-22T08:22:33.979Z</time></trkpt><trkpt lat="45.5394933" lon="10.8804401"><ele>188.66666666666666</ele><time>2026-03-22T08:22:34.97Z</time></trkpt><trkpt lat="45.539461" lon="10.8803461"><ele>188.83333333333334</ele><time>2026-03-22T08:22:35.969Z</time></trkpt><trkpt lat="45.5394354" lon="10.8802575"><ele>189.0</ele><time>2026-03-22T08:22:36.959Z</time></trkpt><trkpt lat="45.539409" lon="10.8800826"><ele>189.14285714285714</ele><time>2026-03-22T08:22:38.971Z</time></trkpt><trkpt lat="45.5394366" lon="10.879991"><ele>189.28571428571428</ele><time>2026-03-22T08:22:39.971Z</time></trkpt><trkpt lat="45.5394673" lon="10.8798963"><ele>189.42857142857144</ele><time>2026-03-22T08:22:40.973Z</time></trkpt><trkpt lat="45.5395026" lon="10.8797958"><ele>189.57142857142856</ele><time>2026-03-22T08:22:41.976Z</time></trkpt><trkpt lat="45.5395435" lon="10.8797021"><ele>189.71428571428572</ele><time>2026-03-22T08:22:42.975Z</time></trkpt><trkpt lat="45.5395757" lon="10.8796166"><ele>189.85714285714286</ele><time>2026-03-22T08:22:43.982Z</time></trkpt><trkpt lat="45.5396053" lon="10.879526"><ele>190.0</ele><time>2026-03-22T08:22:44.984Z</time></trkpt><trkpt lat="45.5396371" lon="10.8794379"><ele>190.0</ele><time>2026-03-22T08:22:45.983Z</time></trkpt><trkpt lat="45.539662" lon="10.8793516"><ele>190.0</ele><time>2026-03-22T08:22:46.973Z</time></trkpt><trkpt lat="45.5396849" lon="10.8792649"><ele>190.0</ele><time>2026-03-22T08:22:47.977Z</time></trkpt><trkpt lat="45.5397211" lon="10.8791324"><ele>190.0</ele><time>2026-03-22T08:22:49.975Z</time></trkpt><trkpt lat="45.5397652" lon="10.879018"><ele>190.0</ele><time>2026-03-22T08:22:51.982Z</time></trkpt><trkpt lat="45.5397877" lon="10.8789228"><ele>190.0</ele><time>2026-03-22T08:22:52.975Z</time></trkpt><trkpt lat="45.5398036" lon="10.8788306"><ele>190.28571428571428</ele><time>2026-03-22T08:22:53.978Z</time></trkpt><trkpt lat="45.5398202" lon="10.8787319"><ele>190.57142857142858</ele><time>2026-03-22T08:22:54.984Z</time></trkpt><trkpt lat="45.5398337" lon="10.8786313"><ele>190.85714285714283</ele><time>2026-03-22T08:22:55.968Z</time></trkpt><trkpt lat="45.5398497" lon="10.8785259"><ele>191.14285714285714</ele><time>2026-03-22T08:22:56.976Z</time></trkpt><trkpt lat="45.5398669" lon="10.8784255"><ele>191.42857142857142</ele><time>2026-03-22T08:22:57.975Z</time></trkpt><trkpt lat="45.5398868" lon="10.878326"><ele>191.7142857142857</ele><time>2026-03-22T08:22:58.966Z</time></trkpt><trkpt lat="45.5399073" lon="10.8782297"><ele>192.0</ele><time>2026-03-22T08:22:59.977Z</time></trkpt><trkpt lat="45.5399253" lon="10.8781268"><ele>192.5</ele><time>2026-03-22T08:23:00.97Z</time></trkpt><trkpt lat="45.5399322" lon="10.8780188"><ele>193.0</ele><time>2026-03-22T08:23:01.98Z</time></trkpt><trkpt lat="45.539923" lon="10.8779295"><ele>193.5</ele><time>2026-03-22T08:23:02.959Z</time></trkpt><trkpt lat="45.5398758" lon="10.8778234"><ele>194.0</ele><time>2026-03-22T08:23:04.967Z</time></trkpt><trkpt lat="45.5397454" lon="10.8778296"><ele>194.5</ele><time>2026-03-22T08:23:06.964Z</time></trkpt><trkpt lat="45.5396753" lon="10.87785"><ele>195.0</ele><time>2026-03-22T08:23:07.97Z</time></trkpt><trkpt lat="45.539602" lon="10.8778568"><ele>193.4</ele><time>2026-03-22T08:23:08.971Z</time></trkpt><trkpt lat="45.5395213" lon="10.8778102"><ele>191.8</ele><time>2026-03-22T08:23:09.974Z</time></trkpt><trkpt lat="45.5394255" lon="10.8777396"><ele>190.2</ele><time>2026-03-22T08:23:10.975Z</time></trkpt><trkpt lat="45.5393328" lon="10.8776381"><ele>188.6</ele><time>2026-03-22T08:23:11.978Z</time></trkpt><trkpt lat="45.53925" lon="10.8775422"><ele>187.0</ele><time>2026-03-22T08:23:12.98Z</time></trkpt><trkpt lat="45.5391664" lon="10.8774441"><ele>187.0</ele><time>2026-03-22T08:23:13.978Z</time></trkpt><trkpt lat="45.5390825" lon="10.8773503"><ele>187.0</ele><time>2026-03-22T08:23:14.975Z</time></trkpt><trkpt lat="45.5389857" lon="10.8772395"><ele>187.0</ele><time>2026-03-22T08:23:15.979Z</time></trkpt><trkpt lat="45.5388746" lon="10.8771187"><ele>187.0</ele><time>2026-03-22T08:23:16.959Z</time></trkpt><trkpt lat="45.5387607" lon="10.8769959"><ele>185.75</ele><time>2026-03-22T08:23:17.972Z</time></trkpt><trkpt lat="45.5386522" lon="10.87687"><ele>184.5</ele><time>2026-03-22T08:23:18.975Z</time></trkpt><trkpt lat="45.5385472" lon="10.8767492"><ele>183.25</ele><time>2026-03-22T08:23:19.978Z</time></trkpt><trkpt lat="45.5384545" lon="10.8766216"><ele>182.0</ele><time>2026-03-22T08:23:20.976Z</time></trkpt><trkpt lat="45.5383639" lon="10.8764927"><ele>182.0</ele><time>2026-03-22T08:23:21.973Z</time></trkpt><trkpt lat="45.5382808" lon="10.8763813"><ele>182.0</ele><time>2026-03-22T08:23:22.986Z</time></trkpt><trkpt lat="45.5382012" lon="10.8762726"><ele>182.0</ele><time>2026-03-22T08:23:23.983Z</time></trkpt><trkpt lat="45.5381253" lon="10.8761615"><ele>182.0</ele><time>2026-03-22T08:23:24.98Z</time></trkpt><trkpt lat="45.5380474" lon="10.8760514"><ele>182.0</ele><time>2026-03-22T08:23:25.985Z</time></trkpt><trkpt lat="45.537971" lon="10.8759453"><ele>182.0</ele><time>2026-03-22T08:23:26.983Z</time></trkpt><trkpt lat="45.537896" lon="10.8758434"><ele>182.0</ele><time>2026-03-22T08:23:27.992Z</time></trkpt><trkpt lat="45.5378143" lon="10.8757561"><ele>182.0</ele><time>2026-03-22T08:23:28.973Z</time></trkpt><trkpt lat="45.537727" lon="10.8756759"><ele>182.0</ele><time>2026-03-22T08:23:29.966Z</time></trkpt><trkpt lat="45.5376383" lon="10.8755941"><ele>182.0</ele><time>2026-03-22T08:23:30.972Z</time></trkpt><trkpt lat="45.5375538" lon="10.875508"><ele>182.0</ele><time>2026-03-22T08:23:31.985Z</time></trkpt><trkpt lat="45.5374715" lon="10.8754253"><ele>182.0</ele><time>2026-03-22T08:23:32.974Z</time></trkpt><trkpt lat="45.5373911" lon="10.8753487"><ele>182.0</ele><time>2026-03-22T08:23:33.969Z</time></trkpt><trkpt lat="45.5373103" lon="10.8752676"><ele>182.0</ele><time>2026-03-22T08:23:34.967Z</time></trkpt><trkpt lat="45.5372291" lon="10.8751862"><ele>182.0</ele><time>2026-03-22T08:23:35.975Z</time></trkpt><trkpt lat="45.5371445" lon="10.8751022"><ele>182.0</ele><time>2026-03-22T08:23:36.975Z</time></trkpt><trkpt lat="45.5370604" lon="10.87502"><ele>182.0</ele><time>2026-03-22T08:23:37.969Z</time></trkpt><trkpt lat="45.5369769" lon="10.874938"><ele>182.0</ele><time>2026-03-22T08:23:38.976Z</time></trkpt><trkpt lat="45.536893" lon="10.8748606"><ele>182.0</ele><time>2026-03-22T08:23:39.98Z</time></trkpt><trkpt lat="45.5368079" lon="10.874777"><ele>182.0</ele><time>2026-03-22T08:23:40.977Z</time></trkpt><trkpt lat="45.5367255" lon="10.8746977"><ele>182.0</ele><time>2026-03-22T08:23:41.971Z</time></trkpt><trkpt lat="45.536644" lon="10.8746162"><ele>182.0</ele><time>2026-03-22T08:23:42.989Z</time></trkpt><trkpt lat="45.5365618" lon="10.8745365"><ele>182.0</ele><time>2026-03-22T08:23:43.974Z</time></trkpt><trkpt lat="45.5364784" lon="10.874458"><ele>182.0</ele><time>2026-03-22T08:23:44.977Z</time></trkpt><trkpt lat="45.5363963" lon="10.8743755"><ele>182.0</ele><time>2026-03-22T08:23:45.975Z</time></trkpt><trkpt lat="45.5363143" lon="10.8742918"><ele>183.39999999999998</ele><time>2026-03-22T08:23:46.978Z</time></trkpt><trkpt lat="45.5362313" lon="10.8742141"><ele>184.79999999999998</ele><time>2026-03-22T08:23:47.978Z</time></trkpt><trkpt lat="45.5361525" lon="10.8741354"><ele>186.2</ele><time>2026-03-22T08:23:48.97Z</time></trkpt><trkpt lat="45.5360741" lon="10.8740628"><ele>187.6</ele><time>2026-03-22T08:23:49.978Z</time></trkpt><trkpt lat="45.5360063" lon="10.8739999"><ele>189.0</ele><time>2026-03-22T08:23:50.976Z</time></trkpt><trkpt lat="45.5359336" lon="10.873932"><ele>189.0</ele><time>2026-03-22T08:23:52.978Z</time></trkpt><trkpt lat="45.5358826" lon="10.8738148"><ele>189.0</ele><time>2026-03-22T08:23:55.983Z</time></trkpt><trkpt lat="45.5358418" lon="10.8737424"><ele>189.0</ele><time>2026-03-22T08:23:56.975Z</time></trkpt><trkpt lat="45.5357817" lon="10.8736821"><ele>189.0</ele><time>2026-03-22T08:23:57.977Z</time></trkpt><trkpt lat="45.535718" lon="10.8736135"><ele>189.0</ele><time>2026-03-22T08:23:58.974Z</time></trkpt><trkpt lat="45.5356561" lon="10.8735386"><ele>189.0</ele><time>2026-03-22T08:23:59.988Z</time></trkpt><trkpt lat="45.5355961" lon="10.8734552"><ele>189.0</ele><time>2026-03-22T08:24:00.977Z</time></trkpt><trkpt lat="45.5355432" lon="10.8733645"><ele>189.0</ele><time>2026-03-22T08:24:01.972Z</time></trkpt><trkpt lat="45.53549" lon="10.8732656"><ele>189.0</ele><time>2026-03-22T08:24:02.983Z</time></trkpt><trkpt lat="45.5354353" lon="10.8731427"><ele>189.0</ele><time>2026-03-22T08:24:03.981Z</time></trkpt><trkpt lat="45.5353688" lon="10.8730089"><ele>189.0</ele><time>2026-03-22T08:24:04.96Z</time></trkpt><trkpt lat="45.5353139" lon="10.8728745"><ele>189.0</ele><time>2026-03-22T08:24:05.972Z</time></trkpt><trkpt lat="45.5352789" lon="10.872755"><ele>189.0</ele><time>2026-03-22T08:24:06.974Z</time></trkpt><trkpt lat="45.5352457" lon="10.8726431"><ele>189.0</ele><time>2026-03-22T08:24:07.976Z</time></trkpt><trkpt lat="45.5352165" lon="10.8725283"><ele>189.0</ele><time>2026-03-22T08:24:08.977Z</time></trkpt><trkpt lat="45.535192" lon="10.8724059"><ele>189.0</ele><time>2026-03-22T08:24:09.985Z</time></trkpt><trkpt lat="45.535153" lon="10.8722626"><ele>190.2</ele><time>2026-03-22T08:24:10.974Z</time></trkpt><trkpt lat="45.5351116" lon="10.8721092"><ele>191.39999999999998</ele><time>2026-03-22T08:24:11.981Z</time></trkpt><trkpt lat="45.5350778" lon="10.8719555"><ele>192.6</ele><time>2026-03-22T08:24:12.979Z</time></trkpt><trkpt lat="45.5350586" lon="10.8718141"><ele>193.8</ele><time>2026-03-22T08:24:13.961Z</time></trkpt><trkpt lat="45.53504" lon="10.8717154"><ele>195.0</ele><time>2026-03-22T08:24:14.972Z</time></trkpt><trkpt lat="45.5349906" lon="10.8715546"><ele>197.2</ele><time>2026-03-22T08:24:16.974Z</time></trkpt><trkpt lat="45.5349595" lon="10.8714646"><ele>199.4</ele><time>2026-03-22T08:24:17.988Z</time></trkpt><trkpt lat="45.5349357" lon="10.8713793"><ele>201.60000000000002</ele><time>2026-03-22T08:24:18.981Z</time></trkpt><trkpt lat="45.5348822" lon="10.8712279"><ele>203.8</ele><time>2026-03-22T08:24:20.965Z</time></trkpt><trkpt lat="45.5348245" lon="10.8710746"><ele>206.0</ele><time>2026-03-22T08:24:22.986Z</time></trkpt><trkpt lat="45.5347893" lon="10.8709749"><ele>208.28571428571428</ele><time>2026-03-22T08:24:24.979Z</time></trkpt><trkpt lat="45.5347569" lon="10.8708939"><ele>210.57142857142856</ele><time>2026-03-22T08:24:26.971Z</time></trkpt><trkpt lat="45.5347313" lon="10.8708088"><ele>212.85714285714283</ele><time>2026-03-22T08:24:28.965Z</time></trkpt><trkpt lat="45.5347013" lon="10.8707235"><ele>215.14285714285714</ele><time>2026-03-22T08:24:30.978Z</time></trkpt><trkpt lat="45.5346743" lon="10.8706358"><ele>217.42857142857144</ele><time>2026-03-22T08:24:33.968Z</time></trkpt><trkpt lat="45.5346316" lon="10.8705659"><ele>219.7142857142857</ele><time>2026-03-22T08:24:37.966Z</time></trkpt><trkpt lat="45.5345711" lon="10.8705193"><ele>222.0</ele><time>2026-03-22T08:24:41.983Z</time></trkpt><trkpt lat="45.5345021" lon="10.8705728"><ele>222.16666666666666</ele><time>2026-03-22T08:24:46.973Z</time></trkpt><trkpt lat="45.5344783" lon="10.8706659"><ele>222.33333333333331</ele><time>2026-03-22T08:24:49.966Z</time></trkpt><trkpt lat="45.534459" lon="10.870788"><ele>222.5</ele><time>2026-03-22T08:24:52.977Z</time></trkpt><trkpt lat="45.5344481" lon="10.8709357"><ele>222.66666666666666</ele><time>2026-03-22T08:24:55.973Z</time></trkpt><trkpt lat="45.5344239" lon="10.8710348"><ele>222.83333333333331</ele><time>2026-03-22T08:24:57.977Z</time></trkpt><trkpt lat="45.5343952" lon="10.871131"><ele>223.0</ele><time>2026-03-22T08:24:59.973Z</time></trkpt><trkpt lat="45.5343565" lon="10.8712072"><ele>221.42857142857142</ele><time>2026-03-22T08:25:01.971Z</time></trkpt><trkpt lat="45.5343154" lon="10.8712837"><ele>219.85714285714283</ele><time>2026-03-22T08:25:03.971Z</time></trkpt><trkpt lat="45.5342639" lon="10.8713527"><ele>218.28571428571428</ele><time>2026-03-22T08:25:06.975Z</time></trkpt><trkpt lat="45.5342025" lon="10.8714001"><ele>216.71428571428572</ele><time>2026-03-22T08:25:09.957Z</time></trkpt><trkpt lat="45.5341254" lon="10.8714593"><ele>215.14285714285714</ele><time>2026-03-22T08:25:12.973Z</time></trkpt><trkpt lat="45.5340522" lon="10.8715116"><ele>213.57142857142858</ele><time>2026-03-22T08:25:15.977Z</time></trkpt><trkpt lat="45.5339924" lon="10.8715545"><ele>212.0</ele><time>2026-03-22T08:25:18.974Z</time></trkpt><trkpt lat="45.5339281" lon="10.8715606"><ele>212.00000000000003</ele><time>2026-03-22T08:25:21.977Z</time></trkpt><trkpt lat="45.5338602" lon="10.8715369"><ele>212.0</ele><time>2026-03-22T08:25:23.977Z</time></trkpt><trkpt lat="45.5337855" lon="10.8715317"><ele>212.0</ele><time>2026-03-22T08:25:25.982Z</time></trkpt><trkpt lat="45.5337257" lon="10.8716129"><ele>212.0</ele><time>2026-03-22T08:25:27.984Z</time></trkpt><trkpt lat="45.5336828" lon="10.8716893"><ele>212.00000000000003</ele><time>2026-03-22T08:25:28.971Z</time></trkpt><trkpt lat="45.5336182" lon="10.8717682"><ele>212.0</ele><time>2026-03-22T08:25:29.981Z</time></trkpt><trkpt lat="45.5335579" lon="10.8718566"><ele>212.33333333333334</ele><time>2026-03-22T08:25:30.978Z</time></trkpt><trkpt lat="45.5335115" lon="10.8719395"><ele>212.66666666666669</ele><time>2026-03-22T08:25:31.972Z</time></trkpt><trkpt lat="45.5334683" lon="10.8720148"><ele>213.0</ele><time>2026-03-22T08:25:32.977Z</time></trkpt><trkpt lat="45.5333874" lon="10.8721327"><ele>213.33333333333331</ele><time>2026-03-22T08:25:34.976Z</time></trkpt><trkpt lat="45.5333179" lon="10.872181"><ele>213.66666666666666</ele><time>2026-03-22T08:25:36.968Z</time></trkpt><trkpt lat="45.5332605" lon="10.8720761"><ele>214.0</ele><time>2026-03-22T08:25:39.979Z</time></trkpt><trkpt lat="45.5332637" lon="10.8719775"><ele>213.99999999999997</ele><time>2026-03-22T08:25:40.977Z</time></trkpt><trkpt lat="45.5332776" lon="10.8718743"><ele>214.0</ele><time>2026-03-22T08:25:41.984Z</time></trkpt><trkpt lat="45.5332595" lon="10.8717774"><ele>214.0</ele><time>2026-03-22T08:25:42.976Z</time></trkpt><trkpt lat="45.5332319" lon="10.8716687"><ele>214.0</ele><time>2026-03-22T08:25:43.984Z</time></trkpt><trkpt lat="45.5332056" lon="10.8715695"><ele>213.99999999999997</ele><time>2026-03-22T08:25:44.975Z</time></trkpt><trkpt lat="45.5331859" lon="10.8714759"><ele>214.0</ele><time>2026-03-22T08:25:45.98Z</time></trkpt><trkpt lat="45.5331271" lon="10.8713564"><ele>215.75</ele><time>2026-03-22T08:25:47.968Z</time></trkpt><trkpt lat="45.533044" lon="10.871332"><ele>217.5</ele><time>2026-03-22T08:25:49.979Z</time></trkpt><trkpt lat="45.5329257" lon="10.8713241"><ele>219.25</ele><time>2026-03-22T08:25:51.974Z</time></trkpt><trkpt lat="45.5328032" lon="10.8712834"><ele>221.0</ele><time>2026-03-22T08:25:53.973Z</time></trkpt><trkpt lat="45.532687" lon="10.871236"><ele>221.4</ele><time>2026-03-22T08:25:55.973Z</time></trkpt><trkpt lat="45.5325817" lon="10.8711858"><ele>221.8</ele><time>2026-03-22T08:25:57.974Z</time></trkpt><trkpt lat="45.5324983" lon="10.8710826"><ele>222.20000000000002</ele><time>2026-03-22T08:25:59.974Z</time></trkpt><trkpt lat="45.5324778" lon="10.870964"><ele>222.60000000000002</ele><time>2026-03-22T08:26:01.973Z</time></trkpt><trkpt lat="45.5325553" lon="10.8708242"><ele>223.0</ele><time>2026-03-22T08:26:03.974Z</time></trkpt><trkpt lat="45.5326407" lon="10.8707407"><ele>224.60000000000002</ele><time>2026-03-22T08:26:04.965Z</time></trkpt><trkpt lat="45.5327269" lon="10.8706516"><ele>226.20000000000002</ele><time>2026-03-22T08:26:05.969Z</time></trkpt><trkpt lat="45.532812" lon="10.8705471"><ele>227.8</ele><time>2026-03-22T08:26:06.983Z</time></trkpt><trkpt lat="45.5328901" lon="10.8704303"><ele>229.4</ele><time>2026-03-22T08:26:07.984Z</time></trkpt><trkpt lat="45.5329705" lon="10.8703155"><ele>231.0</ele><time>2026-03-22T08:26:08.969Z</time></trkpt><trkpt lat="45.533025" lon="10.8702158"><ele>231.0</ele><time>2026-03-22T08:26:09.978Z</time></trkpt><trkpt lat="45.533064" lon="10.8701359"><ele>231.0</ele><time>2026-03-22T08:26:10.966Z</time></trkpt><trkpt lat="45.5330991" lon="10.87006"><ele>231.0</ele><time>2026-03-22T08:26:11.971Z</time></trkpt><trkpt lat="45.5331308" lon="10.8699739"><ele>231.0</ele><time>2026-03-22T08:26:12.974Z</time></trkpt><trkpt lat="45.5331592" lon="10.8698628"><ele>231.0</ele><time>2026-03-22T08:26:13.966Z</time></trkpt><trkpt lat="45.5331924" lon="10.8697488"><ele>231.0</ele><time>2026-03-22T08:26:14.972Z</time></trkpt><trkpt lat="45.5332322" lon="10.8696534"><ele>231.0</ele><time>2026-03-22T08:26:15.988Z</time></trkpt><trkpt lat="45.5332815" lon="10.8695586"><ele>233.0</ele><time>2026-03-22T08:26:16.978Z</time></trkpt><trkpt lat="45.5333371" lon="10.8694542"><ele>235.00000000000003</ele><time>2026-03-22T08:26:17.977Z</time></trkpt><trkpt lat="45.5334063" lon="10.8693303"><ele>237.00000000000003</ele><time>2026-03-22T08:26:18.969Z</time></trkpt><trkpt lat="45.5334907" lon="10.869207"><ele>239.0</ele><time>2026-03-22T08:26:19.978Z</time></trkpt><trkpt lat="45.5335737" lon="10.8690981"><ele>241.0</ele><time>2026-03-22T08:26:20.976Z</time></trkpt><trkpt lat="45.5336407" lon="10.8690119"><ele>241.4</ele><time>2026-03-22T08:26:21.989Z</time></trkpt><trkpt lat="45.5336992" lon="10.868943"><ele>241.8</ele><time>2026-03-22T08:26:22.98Z</time></trkpt><trkpt lat="45.5337837" lon="10.8688472"><ele>242.20000000000002</ele><time>2026-03-22T08:26:24.981Z</time></trkpt><trkpt lat="45.5338137" lon="10.8687614"><ele>242.60000000000002</ele><time>2026-03-22T08:26:27.973Z</time></trkpt><trkpt lat="45.5337215" lon="10.8687946"><ele>243.0</ele><time>2026-03-22T08:26:29.983Z</time></trkpt><trkpt lat="45.533614" lon="10.8688751"><ele>243.0</ele><time>2026-03-22T08:26:31.983Z</time></trkpt><trkpt lat="45.5335446" lon="10.8689238"><ele>243.0</ele><time>2026-03-22T08:26:32.97Z</time></trkpt><trkpt lat="45.5334603" lon="10.8689531"><ele>243.0</ele><time>2026-03-22T08:26:34.001Z</time></trkpt><trkpt lat="45.5333704" lon="10.868977"><ele>243.0</ele><time>2026-03-22T08:26:34.972Z</time></trkpt><trkpt lat="45.5332722" lon="10.8689892"><ele>243.0</ele><time>2026-03-22T08:26:35.986Z</time></trkpt><trkpt lat="45.5331801" lon="10.8689911"><ele>243.0</ele><time>2026-03-22T08:26:36.974Z</time></trkpt><trkpt lat="45.5330877" lon="10.8689766"><ele>243.0</ele><time>2026-03-22T08:26:37.977Z</time></trkpt><trkpt lat="45.5329988" lon="10.8689536"><ele>243.0</ele><time>2026-03-22T08:26:38.98Z</time></trkpt><trkpt lat="45.5329113" lon="10.8689131"><ele>243.0</ele><time>2026-03-22T08:26:39.971Z</time></trkpt><trkpt lat="45.532838" lon="10.8688915"><ele>243.0</ele><time>2026-03-22T08:26:40.97Z</time></trkpt><trkpt lat="45.532763" lon="10.8688751"><ele>243.0</ele><time>2026-03-22T08:26:42.969Z</time></trkpt><trkpt lat="45.5326799" lon="10.8688153"><ele>243.0</ele><time>2026-03-22T08:26:45.977Z</time></trkpt><trkpt lat="45.5326337" lon="10.868739"><ele>242.42857142857142</ele><time>2026-03-22T08:26:46.974Z</time></trkpt><trkpt lat="45.5325909" lon="10.8686709"><ele>241.8571428571429</ele><time>2026-03-22T08:26:47.976Z</time></trkpt><trkpt lat="45.5325395" lon="10.8685911"><ele>241.2857142857143</ele><time>2026-03-22T08:26:48.99Z</time></trkpt><trkpt lat="45.5324888" lon="10.8685161"><ele>240.71428571428572</ele><time>2026-03-22T08:26:49.971Z</time></trkpt><trkpt lat="45.5324395" lon="10.8684453"><ele>240.14285714285717</ele><time>2026-03-22T08:26:50.974Z</time></trkpt><trkpt lat="45.5323809" lon="10.8683813"><ele>239.5714285714286</ele><time>2026-03-22T08:26:51.979Z</time></trkpt><trkpt lat="45.5323234" lon="10.8683148"><ele>239.00000000000003</ele><time>2026-03-22T08:26:52.981Z</time></trkpt><trkpt lat="45.5322748" lon="10.8682453"><ele>237.39999999999998</ele><time>2026-03-22T08:26:53.978Z</time></trkpt><trkpt lat="45.5322231" lon="10.8681825"><ele>235.79999999999998</ele><time>2026-03-22T08:26:54.987Z</time></trkpt><trkpt lat="45.5321647" lon="10.8681204"><ele>234.20000000000002</ele><time>2026-03-22T08:26:55.968Z</time></trkpt><trkpt lat="45.5321087" lon="10.8680544"><ele>232.60000000000002</ele><time>2026-03-22T08:26:56.977Z</time></trkpt><trkpt lat="45.5320194" lon="10.8679403"><ele>231.0</ele><time>2026-03-22T08:26:58.977Z</time></trkpt><trkpt lat="45.5319276" lon="10.8678191"><ele>229.83333333333334</ele><time>2026-03-22T08:27:00.976Z</time></trkpt><trkpt lat="45.5318784" lon="10.8677582"><ele>228.66666666666669</ele><time>2026-03-22T08:27:01.968Z</time></trkpt><trkpt lat="45.5317937" lon="10.867648"><ele>227.5</ele><time>2026-03-22T08:27:03.977Z</time></trkpt><trkpt lat="45.5317497" lon="10.8675763"><ele>226.33333333333334</ele><time>2026-03-22T08:27:04.977Z</time></trkpt><trkpt lat="45.5316917" lon="10.8674965"><ele>225.16666666666669</ele><time>2026-03-22T08:27:05.974Z</time></trkpt><trkpt lat="45.5316357" lon="10.867422"><ele>224.0</ele><time>2026-03-22T08:27:06.976Z</time></trkpt><trkpt lat="45.531587" lon="10.8673391"><ele>221.66666666666669</ele><time>2026-03-22T08:27:07.973Z</time></trkpt><trkpt lat="45.5315529" lon="10.8672347"><ele>219.33333333333334</ele><time>2026-03-22T08:27:08.972Z</time></trkpt><trkpt lat="45.5315409" lon="10.8671134"><ele>217.0</ele><time>2026-03-22T08:27:09.964Z</time></trkpt><trkpt lat="45.5315321" lon="10.8670025"><ele>214.66666666666669</ele><time>2026-03-22T08:27:10.98Z</time></trkpt><trkpt lat="45.5315198" lon="10.8669106"><ele>212.33333333333334</ele><time>2026-03-22T08:27:11.975Z</time></trkpt><trkpt lat="45.5314923" lon="10.8667666"><ele>210.0</ele><time>2026-03-22T08:27:13.97Z</time></trkpt><trkpt lat="45.53143" lon="10.8667027"><ele>207.8</ele><time>2026-03-22T08:27:15.98Z</time></trkpt><trkpt lat="45.5313041" lon="10.8666705"><ele>205.6</ele><time>2026-03-22T08:27:17.964Z</time></trkpt><trkpt lat="45.531206" lon="10.8666484"><ele>203.39999999999998</ele><time>2026-03-22T08:27:19.98Z</time></trkpt><trkpt lat="45.5311846" lon="10.8665292"><ele>201.2</ele><time>2026-03-22T08:27:23.979Z</time></trkpt><trkpt lat="45.5312623" lon="10.8664912"><ele>199.0</ele><time>2026-03-22T08:27:26.98Z</time></trkpt><trkpt lat="45.531342" lon="10.8664853"><ele>198.99999999999997</ele><time>2026-03-22T08:27:28.983Z</time></trkpt><trkpt lat="45.5314086" lon="10.8664708"><ele>199.0</ele><time>2026-03-22T08:27:29.982Z</time></trkpt><trkpt lat="45.5314806" lon="10.8664631"><ele>199.0</ele><time>2026-03-22T08:27:30.973Z</time></trkpt><trkpt lat="45.5315646" lon="10.8664475"><ele>199.0</ele><time>2026-03-22T08:27:31.984Z</time></trkpt><trkpt lat="45.5316411" lon="10.8664122"><ele>198.99999999999997</ele><time>2026-03-22T08:27:32.984Z</time></trkpt><trkpt lat="45.5317036" lon="10.8663836"><ele>199.0</ele><time>2026-03-22T08:27:33.958Z</time></trkpt><trkpt lat="45.531794" lon="10.8663349"><ele>199.0</ele><time>2026-03-22T08:27:35.983Z</time></trkpt><trkpt lat="45.5318016" lon="10.8662233"><ele>199.0</ele><time>2026-03-22T08:27:37.97Z</time></trkpt><trkpt lat="45.5317261" lon="10.8661123"><ele>199.0</ele><time>2026-03-22T08:27:39.963Z</time></trkpt><trkpt lat="45.5316876" lon="10.8660002"><ele>199.0</ele><time>2026-03-22T08:27:41.982Z</time></trkpt><trkpt lat="45.5316956" lon="10.8658633"><ele>199.0</ele><time>2026-03-22T08:27:43.974Z</time></trkpt><trkpt lat="45.5317644" lon="10.865715"><ele>199.49999999999997</ele><time>2026-03-22T08:27:45.968Z</time></trkpt><trkpt lat="45.5317851" lon="10.8655779"><ele>200.0</ele><time>2026-03-22T08:27:47.98Z</time></trkpt><trkpt lat="45.5317595" lon="10.8654344"><ele>200.5</ele><time>2026-03-22T08:27:49.978Z</time></trkpt><trkpt lat="45.5317642" lon="10.865339"><ele>201.0</ele><time>2026-03-22T08:27:50.973Z</time></trkpt><trkpt lat="45.5317795" lon="10.8652418"><ele>201.49999999999997</ele><time>2026-03-22T08:27:51.978Z</time></trkpt><trkpt lat="45.5318005" lon="10.8651383"><ele>202.0</ele><time>2026-03-22T08:27:52.973Z</time></trkpt><trkpt lat="45.5318258" lon="10.8650389"><ele>204.49999999999997</ele><time>2026-03-22T08:27:53.971Z</time></trkpt><trkpt lat="45.5318528" lon="10.8649422"><ele>207.0</ele><time>2026-03-22T08:27:54.974Z</time></trkpt><trkpt lat="45.5319129" lon="10.8648165"><ele>209.5</ele><time>2026-03-22T08:27:56.975Z</time></trkpt><trkpt lat="45.5319932" lon="10.8647923"><ele>212.0</ele><time>2026-03-22T08:27:58.969Z</time></trkpt><trkpt lat="45.5320669" lon="10.8648188"><ele>214.49999999999997</ele><time>2026-03-22T08:27:59.978Z</time></trkpt><trkpt lat="45.5321605" lon="10.8648614"><ele>217.0</ele><time>2026-03-22T08:28:00.97Z</time></trkpt><trkpt lat="45.5322646" lon="10.8649002"><ele>218.0</ele><time>2026-03-22T08:28:01.969Z</time></trkpt><trkpt lat="45.5323757" lon="10.8649423"><ele>219.0</ele><time>2026-03-22T08:28:02.967Z</time></trkpt><trkpt lat="45.5324892" lon="10.8649865"><ele>220.0</ele><time>2026-03-22T08:28:03.957Z</time></trkpt><trkpt lat="45.5326173" lon="10.8650224"><ele>221.0</ele><time>2026-03-22T08:28:04.962Z</time></trkpt><trkpt lat="45.5327414" lon="10.8650637"><ele>221.0</ele><time>2026-03-22T08:28:05.969Z</time></trkpt><trkpt lat="45.5328575" lon="10.8650985"><ele>221.00000000000003</ele><time>2026-03-22T08:28:06.974Z</time></trkpt><trkpt lat="45.5329629" lon="10.8651318"><ele>221.00000000000003</ele><time>2026-03-22T08:28:07.982Z</time></trkpt><trkpt lat="45.5330569" lon="10.8651596"><ele>221.0</ele><time>2026-03-22T08:28:08.994Z</time></trkpt><trkpt lat="45.5331364" lon="10.8651634"><ele>221.0</ele><time>2026-03-22T08:28:09.97Z</time></trkpt><trkpt lat="45.5332185" lon="10.8651315"><ele>222.4</ele><time>2026-03-22T08:28:10.969Z</time></trkpt><trkpt lat="45.5332989" lon="10.8651135"><ele>223.8</ele><time>2026-03-22T08:28:11.976Z</time></trkpt><trkpt lat="45.5333961" lon="10.8651208"><ele>225.20000000000002</ele><time>2026-03-22T08:28:12.973Z</time></trkpt><trkpt lat="45.5334989" lon="10.8651457"><ele>226.60000000000002</ele><time>2026-03-22T08:28:13.971Z</time></trkpt><trkpt lat="45.5336133" lon="10.8651618"><ele>228.0</ele><time>2026-03-22T08:28:14.97Z</time></trkpt><trkpt lat="45.533729" lon="10.8651735"><ele>231.0</ele><time>2026-03-22T08:28:15.97Z</time></trkpt><trkpt lat="45.5338407" lon="10.8651868"><ele>234.0</ele><time>2026-03-22T08:28:16.973Z</time></trkpt><trkpt lat="45.5339451" lon="10.8652089"><ele>237.0</ele><time>2026-03-22T08:28:17.974Z</time></trkpt><trkpt lat="45.5340381" lon="10.8652494"><ele>240.0</ele><time>2026-03-22T08:28:18.971Z</time></trkpt><trkpt lat="45.534128" lon="10.8652915"><ele>243.0</ele><time>2026-03-22T08:28:19.973Z</time></trkpt><trkpt lat="45.5342302" lon="10.8653263"><ele>243.0</ele><time>2026-03-22T08:28:20.959Z</time></trkpt><trkpt lat="45.5343459" lon="10.8653595"><ele>243.0</ele><time>2026-03-22T08:28:21.972Z</time></trkpt><trkpt lat="45.5344504" lon="10.8653765"><ele>243.0</ele><time>2026-03-22T08:28:22.959Z</time></trkpt><trkpt lat="45.5345559" lon="10.8653742"><ele>243.0</ele><time>2026-03-22T08:28:23.98Z</time></trkpt><trkpt lat="45.5346588" lon="10.8653538"><ele>243.0</ele><time>2026-03-22T08:28:24.979Z</time></trkpt><trkpt lat="45.5347648" lon="10.8653466"><ele>246.25</ele><time>2026-03-22T08:28:25.979Z</time></trkpt><trkpt lat="45.5348812" lon="10.865346"><ele>249.5</ele><time>2026-03-22T08:28:26.973Z</time></trkpt><trkpt lat="45.5349966" lon="10.8653535"><ele>252.75</ele><time>2026-03-22T08:28:27.974Z</time></trkpt><trkpt lat="45.5351167" lon="10.8653706"><ele>256.0</ele><time>2026-03-22T08:28:28.979Z</time></trkpt><trkpt lat="45.5352311" lon="10.8653851"><ele>256.0</ele><time>2026-03-22T08:28:29.985Z</time></trkpt><trkpt lat="45.5353718" lon="10.8653887"><ele>256.0</ele><time>2026-03-22T08:28:30.98Z</time></trkpt><trkpt lat="45.5355168" lon="10.8653966"><ele>256.0</ele><time>2026-03-22T08:28:31.977Z</time></trkpt><trkpt lat="45.5356468" lon="10.8653888"><ele>256.0</ele><time>2026-03-22T08:28:32.965Z</time></trkpt><trkpt lat="45.5357516" lon="10.8653794"><ele>258.8</ele><time>2026-03-22T08:28:33.966Z</time></trkpt><trkpt lat="45.5358516" lon="10.8653739"><ele>261.6</ele><time>2026-03-22T08:28:34.975Z</time></trkpt><trkpt lat="45.5359497" lon="10.8653899"><ele>264.4</ele><time>2026-03-22T08:28:35.983Z</time></trkpt><trkpt lat="45.5360421" lon="10.8654092"><ele>267.2</ele><time>2026-03-22T08:28:36.972Z</time></trkpt><trkpt lat="45.5361339" lon="10.8654338"><ele>270.0</ele><time>2026-03-22T08:28:37.972Z</time></trkpt><trkpt lat="45.5362221" lon="10.8654573"><ele>271.6666666666667</ele><time>2026-03-22T08:28:38.983Z</time></trkpt><trkpt lat="45.536308" lon="10.8654799"><ele>273.3333333333333</ele><time>2026-03-22T08:28:39.969Z</time></trkpt><trkpt lat="45.5363945" lon="10.8655004"><ele>275.0</ele><time>2026-03-22T08:28:40.974Z</time></trkpt><trkpt lat="45.5364702" lon="10.8655096"><ele>276.66666666666663</ele><time>2026-03-22T08:28:41.969Z</time></trkpt><trkpt lat="45.5365607" lon="10.8654736"><ele>278.3333333333333</ele><time>2026-03-22T08:28:43.976Z</time></trkpt><trkpt lat="45.5365416" lon="10.86536"><ele>280.0</ele><time>2026-03-22T08:28:47.985Z</time></trkpt><trkpt lat="45.5364867" lon="10.8652615"><ele>280.0</ele><time>2026-03-22T08:28:49.98Z</time></trkpt><trkpt lat="45.5364185" lon="10.8651458"><ele>280.0</ele><time>2026-03-22T08:28:50.974Z</time></trkpt><trkpt lat="45.536345" lon="10.8650444"><ele>280.0</ele><time>2026-03-22T08:28:51.981Z</time></trkpt><trkpt lat="45.5362675" lon="10.8649512"><ele>280.0</ele><time>2026-03-22T08:28:52.96Z</time></trkpt><trkpt lat="45.5362152" lon="10.8648648"><ele>280.0</ele><time>2026-03-22T08:28:53.973Z</time></trkpt><trkpt lat="45.5361857" lon="10.8647299"><ele>279.5</ele><time>2026-03-22T08:28:55.965Z</time></trkpt><trkpt lat="45.5362051" lon="10.8646367"><ele>279.0</ele><time>2026-03-22T08:28:56.964Z</time></trkpt><trkpt lat="45.5362284" lon="10.8645164"><ele>278.5</ele><time>2026-03-22T08:28:57.971Z</time></trkpt><trkpt lat="45.5362576" lon="10.8643926"><ele>278.0</ele><time>2026-03-22T08:28:58.981Z</time></trkpt><trkpt lat="45.5362768" lon="10.864296"><ele>277.5</ele><time>2026-03-22T08:28:59.957Z</time></trkpt><trkpt lat="45.5362721" lon="10.8641983"><ele>277.0</ele><time>2026-03-22T08:29:01.98Z</time></trkpt><trkpt lat="45.5361989" lon="10.8641247"><ele>274.2</ele><time>2026-03-22T08:29:04.975Z</time></trkpt><trkpt lat="45.5361053" lon="10.8640901"><ele>271.4</ele><time>2026-03-22T08:29:06.969Z</time></trkpt><trkpt lat="45.5359989" lon="10.8640997"><ele>268.6</ele><time>2026-03-22T08:29:08.978Z</time></trkpt><trkpt lat="45.5358982" lon="10.8641145"><ele>265.8</ele><time>2026-03-22T08:29:10.968Z</time></trkpt><trkpt lat="45.5357884" lon="10.8640913"><ele>263.0</ele><time>2026-03-22T08:29:12.961Z</time></trkpt><trkpt lat="45.5356728" lon="10.864052"><ele>263.0</ele><time>2026-03-22T08:29:14.976Z</time></trkpt><trkpt lat="45.5356036" lon="10.8640269"><ele>263.0</ele><time>2026-03-22T08:29:15.948Z</time></trkpt><trkpt lat="45.5355276" lon="10.8639941"><ele>263.0</ele><time>2026-03-22T08:29:17.043Z</time></trkpt><trkpt lat="45.5354515" lon="10.8639589"><ele>263.0</ele><time>2026-03-22T08:29:17.971Z</time></trkpt><trkpt lat="45.5353818" lon="10.8639293"><ele>263.0</ele><time>2026-03-22T08:29:18.969Z</time></trkpt><trkpt lat="45.5353146" lon="10.863902"><ele>263.0</ele><time>2026-03-22T08:29:19.991Z</time></trkpt><trkpt lat="45.5352493" lon="10.8638797"><ele>263.0</ele><time>2026-03-22T08:29:20.969Z</time></trkpt><trkpt lat="45.5351846" lon="10.8638574"><ele>263.4</ele><time>2026-03-22T08:29:21.976Z</time></trkpt><trkpt lat="45.5350797" lon="10.8638085"><ele>263.8</ele><time>2026-03-22T08:29:23.973Z</time></trkpt><trkpt lat="45.5350038" lon="10.8637292"><ele>264.2</ele><time>2026-03-22T08:29:25.97Z</time></trkpt><trkpt lat="45.5349497" lon="10.8636583"><ele>264.6</ele><time>2026-03-22T08:29:26.949Z</time></trkpt><trkpt lat="45.5348829" lon="10.8635543"><ele>265.0</ele><time>2026-03-22T08:29:27.97Z</time></trkpt><trkpt lat="45.5347985" lon="10.8634382"><ele>265.0</ele><time>2026-03-22T08:29:28.967Z</time></trkpt><trkpt lat="45.534707" lon="10.8633234"><ele>265.0</ele><time>2026-03-22T08:29:29.965Z</time></trkpt><trkpt lat="45.5346313" lon="10.8632255"><ele>265.0</ele><time>2026-03-22T08:29:30.975Z</time></trkpt><trkpt lat="45.5345648" lon="10.8631324"><ele>265.0</ele><time>2026-03-22T08:29:32.024Z</time></trkpt><trkpt lat="45.5345097" lon="10.8630509"><ele>265.0</ele><time>2026-03-22T08:29:32.961Z</time></trkpt><trkpt lat="45.5344666" lon="10.8629639"><ele>263.71428571428567</ele><time>2026-03-22T08:29:33.968Z</time></trkpt><trkpt lat="45.534437" lon="10.8628642"><ele>262.42857142857144</ele><time>2026-03-22T08:29:34.95Z</time></trkpt><trkpt lat="45.534421" lon="10.8627517"><ele>261.1428571428571</ele><time>2026-03-22T08:29:35.966Z</time></trkpt><trkpt lat="45.5344189" lon="10.86263"><ele>259.85714285714283</ele><time>2026-03-22T08:29:36.967Z</time></trkpt><trkpt lat="45.5344244" lon="10.8625344"><ele>258.57142857142856</ele><time>2026-03-22T08:29:37.973Z</time></trkpt><trkpt lat="45.5344645" lon="10.8624489"><ele>257.2857142857143</ele><time>2026-03-22T08:29:40.969Z</time></trkpt><trkpt lat="45.5345027" lon="10.8625236"><ele>256.0</ele><time>2026-03-22T08:29:44.03Z</time></trkpt><trkpt lat="45.5345315" lon="10.862626"><ele>260.16666666666663</ele><time>2026-03-22T08:29:45.969Z</time></trkpt><trkpt lat="45.5345705" lon="10.8624918"><ele>264.3333333333333</ele><time>2026-03-22T08:29:50.949Z</time></trkpt><trkpt lat="45.5345736" lon="10.8623817"><ele>268.5</ele><time>2026-03-22T08:29:51.974Z</time></trkpt><trkpt lat="45.5346216" lon="10.862311"><ele>272.6666666666667</ele><time>2026-03-22T08:29:54.988Z</time></trkpt><trkpt lat="45.5346543" lon="10.8623988"><ele>276.83333333333337</ele><time>2026-03-22T08:29:57.975Z</time></trkpt><trkpt lat="45.5347243" lon="10.8624473"><ele>281.0</ele><time>2026-03-22T08:29:59.964Z</time></trkpt><trkpt lat="45.5347826" lon="10.8623807"><ele>281.0</ele><time>2026-03-22T08:30:02.967Z</time></trkpt><trkpt lat="45.5347888" lon="10.8622406"><ele>281.0</ele><time>2026-03-22T08:30:04.952Z</time></trkpt><trkpt lat="45.5347978" lon="10.8620594"><ele>281.0</ele><time>2026-03-22T08:30:06.969Z</time></trkpt><trkpt lat="45.5348016" lon="10.8618716"><ele>281.0</ele><time>2026-03-22T08:30:08.976Z</time></trkpt><trkpt lat="45.5347944" lon="10.8617087"><ele>279.83333333333337</ele><time>2026-03-22T08:30:10.976Z</time></trkpt><trkpt lat="45.5347233" lon="10.8616072"><ele>278.6666666666667</ele><time>2026-03-22T08:30:12.977Z</time></trkpt><trkpt lat="45.5346543" lon="10.8615879"><ele>277.5</ele><time>2026-03-22T08:30:13.977Z</time></trkpt><trkpt lat="45.5345751" lon="10.8615839"><ele>276.3333333333333</ele><time>2026-03-22T08:30:14.978Z</time></trkpt><trkpt lat="45.5344953" lon="10.8615775"><ele>275.16666666666663</ele><time>2026-03-22T08:30:15.976Z</time></trkpt><trkpt lat="45.5344252" lon="10.8615572"><ele>274.0</ele><time>2026-03-22T08:30:17.035Z</time></trkpt><trkpt lat="45.5343452" lon="10.8614901"><ele>274.0</ele><time>2026-03-22T08:30:18.975Z</time></trkpt><trkpt lat="45.5342624" lon="10.8614099"><ele>274.0</ele><time>2026-03-22T08:30:20.974Z</time></trkpt><trkpt lat="45.534137" lon="10.8613684"><ele>274.0</ele><time>2026-03-22T08:30:22.978Z</time></trkpt><trkpt lat="45.5340536" lon="10.8613482"><ele>274.0</ele><time>2026-03-22T08:30:23.978Z</time></trkpt><trkpt lat="45.5339635" lon="10.8613263"><ele>274.0</ele><time>2026-03-22T08:30:24.983Z</time></trkpt><trkpt lat="45.5338842" lon="10.8613016"><ele>274.0</ele><time>2026-03-22T08:30:25.97Z</time></trkpt><trkpt lat="45.5338108" lon="10.8612573"><ele>274.0</ele><time>2026-03-22T08:30:27.974Z</time></trkpt><trkpt lat="45.5338355" lon="10.8611603"><ele>274.0</ele><time>2026-03-22T08:30:31.986Z</time></trkpt><trkpt lat="45.5339777" lon="10.8612068"><ele>274.0</ele><time>2026-03-22T08:30:33.976Z</time></trkpt><trkpt lat="45.5340732" lon="10.8612314"><ele>274.0</ele><time>2026-03-22T08:30:34.975Z</time></trkpt><trkpt lat="45.5341876" lon="10.8612317"><ele>274.0</ele><time>2026-03-22T08:30:35.969Z</time></trkpt><trkpt lat="45.5343026" lon="10.8612312"><ele>274.0</ele><time>2026-03-22T08:30:36.95Z</time></trkpt><trkpt lat="45.5344126" lon="10.8612398"><ele>274.0</ele><time>2026-03-22T08:30:37.97Z</time></trkpt><trkpt lat="45.534519" lon="10.8612407"><ele>274.0</ele><time>2026-03-22T08:30:38.974Z</time></trkpt><trkpt lat="45.5346285" lon="10.8612365"><ele>274.0</ele><time>2026-03-22T08:30:39.979Z</time></trkpt><trkpt lat="45.5347319" lon="10.8612264"><ele>277.3333333333333</ele><time>2026-03-22T08:30:40.977Z</time></trkpt><trkpt lat="45.5348271" lon="10.861189"><ele>280.66666666666663</ele><time>2026-03-22T08:30:41.974Z</time></trkpt><trkpt lat="45.534916" lon="10.8611577"><ele>284.0</ele><time>2026-03-22T08:30:42.97Z</time></trkpt><trkpt lat="45.5349936" lon="10.861125"><ele>287.3333333333333</ele><time>2026-03-22T08:30:43.976Z</time></trkpt><trkpt lat="45.5350665" lon="10.8611048"><ele>290.6666666666667</ele><time>2026-03-22T08:30:44.978Z</time></trkpt><trkpt lat="45.5351366" lon="10.861086"><ele>294.0</ele><time>2026-03-22T08:30:45.981Z</time></trkpt><trkpt lat="45.5351981" lon="10.8610532"><ele>294.0</ele><time>2026-03-22T08:30:47.98Z</time></trkpt><trkpt lat="45.535237" lon="10.8609495"><ele>294.0</ele><time>2026-03-22T08:31:19.982Z</time></trkpt><trkpt lat="45.5352888" lon="10.8608815"><ele>294.0</ele><time>2026-03-22T08:31:41.971Z</time></trkpt><trkpt lat="45.535363" lon="10.8608434"><ele>294.0</ele><time>2026-03-22T08:31:46.967Z</time></trkpt><trkpt lat="45.5354149" lon="10.8607827"><ele>294.0</ele><time>2026-03-22T08:31:49.959Z</time></trkpt><trkpt lat="45.5354722" lon="10.8607434"><ele>294.0</ele><time>2026-03-22T08:32:04.966Z</time></trkpt><trkpt lat="45.5355467" lon="10.8606703"><ele>298.85714285714283</ele><time>2026-03-22T08:32:32.967Z</time></trkpt><trkpt lat="45.5356008" lon="10.8606185"><ele>303.7142857142857</ele><time>2026-03-22T08:32:40.963Z</time></trkpt><trkpt lat="45.5355984" lon="10.860518"><ele>308.57142857142856</ele><time>2026-03-22T08:32:47.971Z</time></trkpt><trkpt lat="45.5355792" lon="10.8603884"><ele>313.42857142857144</ele><time>2026-03-22T08:32:54.967Z</time></trkpt><trkpt lat="45.5355255" lon="10.8603369"><ele>318.2857142857143</ele><time>2026-03-22T08:32:58.964Z</time></trkpt><trkpt lat="45.5354945" lon="10.8602405"><ele>323.1428571428571</ele><time>2026-03-22T08:33:04.968Z</time></trkpt><trkpt lat="45.5354573" lon="10.8601656"><ele>328.0</ele><time>2026-03-22T08:33:08.976Z</time></trkpt><trkpt lat="45.5354796" lon="10.8600776"><ele>330.0</ele><time>2026-03-22T08:33:12.98Z</time></trkpt><trkpt lat="45.5355284" lon="10.859991"><ele>332.0</ele><time>2026-03-22T08:33:15.963Z</time></trkpt><trkpt lat="45.5355893" lon="10.859957"><ele>334.0</ele><time>2026-03-22T08:33:17.975Z</time></trkpt><trkpt lat="45.5356582" lon="10.8599347"><ele>336.0</ele><time>2026-03-22T08:33:21.972Z</time></trkpt><trkpt lat="45.5357417" lon="10.8598681"><ele>338.0</ele><time>2026-03-22T08:36:12.033Z</time></trkpt><trkpt lat="45.5358773" lon="10.8598113"><ele>338.0</ele><time>2026-03-22T08:36:14.97Z</time></trkpt><trkpt lat="45.5359381" lon="10.8597771"><ele>338.0</ele><time>2026-03-22T08:36:15.984Z</time></trkpt><trkpt lat="45.5360433" lon="10.859757"><ele>338.0</ele><time>2026-03-22T08:36:17.975Z</time></trkpt><trkpt lat="45.5361643" lon="10.8597857"><ele>338.0</ele><time>2026-03-22T08:36:20.025Z</time></trkpt><trkpt lat="45.5362273" lon="10.8598221"><ele>338.0</ele><time>2026-03-22T08:36:20.973Z</time></trkpt><trkpt lat="45.5362887" lon="10.8598512"><ele>338.0</ele><time>2026-03-22T08:36:21.969Z</time></trkpt><trkpt lat="45.5363378" lon="10.8599139"><ele>339.1666666666667</ele><time>2026-03-22T08:36:22.973Z</time></trkpt><trkpt lat="45.5363681" lon="10.8600114"><ele>340.33333333333337</ele><time>2026-03-22T08:36:23.973Z</time></trkpt><trkpt lat="45.5363918" lon="10.8601334"><ele>341.5</ele><time>2026-03-22T08:36:24.977Z</time></trkpt><trkpt lat="45.5364122" lon="10.8602579"><ele>342.6666666666667</ele><time>2026-03-22T08:36:25.976Z</time></trkpt><trkpt lat="45.5364319" lon="10.8603659"><ele>343.8333333333333</ele><time>2026-03-22T08:36:27.027Z</time></trkpt><trkpt lat="45.5364594" lon="10.860475"><ele>345.0</ele><time>2026-03-22T08:36:27.972Z</time></trkpt><trkpt lat="45.5364978" lon="10.8605817"><ele>345.0</ele><time>2026-03-22T08:36:28.955Z</time></trkpt><trkpt lat="45.5365375" lon="10.8606836"><ele>345.0</ele><time>2026-03-22T08:36:29.977Z</time></trkpt><trkpt lat="45.5365801" lon="10.8607605"><ele>345.0</ele><time>2026-03-22T08:36:30.969Z</time></trkpt><trkpt lat="45.5366335" lon="10.8608175"><ele>345.0</ele><time>2026-03-22T08:36:31.965Z</time></trkpt><trkpt lat="45.5366908" lon="10.8608737"><ele>345.0</ele><time>2026-03-22T08:36:32.973Z</time></trkpt><trkpt lat="45.5367514" lon="10.860922"><ele>345.0</ele><time>2026-03-22T08:36:33.981Z</time></trkpt><trkpt lat="45.5368149" lon="10.8609722"><ele>345.0</ele><time>2026-03-22T08:36:34.982Z</time></trkpt><trkpt lat="45.5368806" lon="10.8610242"><ele>344.5</ele><time>2026-03-22T08:36:35.977Z</time></trkpt><trkpt lat="45.5369373" lon="10.8610698"><ele>344.0</ele><time>2026-03-22T08:36:36.981Z</time></trkpt><trkpt lat="45.5370044" lon="10.8611339"><ele>343.5</ele><time>2026-03-22T08:36:38.972Z</time></trkpt><trkpt lat="45.5370797" lon="10.8611241"><ele>343.0</ele><time>2026-03-22T08:36:40.952Z</time></trkpt><trkpt lat="45.5371929" lon="10.8611183"><ele>342.5</ele><time>2026-03-22T08:36:42.968Z</time></trkpt><trkpt lat="45.5372649" lon="10.8611428"><ele>342.0</ele><time>2026-03-22T08:36:43.979Z</time></trkpt><trkpt lat="45.5373417" lon="10.8611709"><ele>342.0</ele><time>2026-03-22T08:36:44.969Z</time></trkpt><trkpt lat="45.5374287" lon="10.8612034"><ele>342.0</ele><time>2026-03-22T08:36:45.974Z</time></trkpt><trkpt lat="45.5375205" lon="10.8612572"><ele>342.0</ele><time>2026-03-22T08:36:46.974Z</time></trkpt><trkpt lat="45.5376152" lon="10.8613267"><ele>342.0</ele><time>2026-03-22T08:36:47.978Z</time></trkpt><trkpt lat="45.5377053" lon="10.8613895"><ele>342.0</ele><time>2026-03-22T08:36:48.977Z</time></trkpt><trkpt lat="45.5377818" lon="10.8614497"><ele>342.0</ele><time>2026-03-22T08:36:49.956Z</time></trkpt><trkpt lat="45.537858" lon="10.8615162"><ele>342.0</ele><time>2026-03-22T08:36:50.97Z</time></trkpt><trkpt lat="45.5379353" lon="10.8615851"><ele>342.0</ele><time>2026-03-22T08:36:51.97Z</time></trkpt><trkpt lat="45.5380082" lon="10.8616561"><ele>342.0</ele><time>2026-03-22T08:36:52.972Z</time></trkpt><trkpt lat="45.5380816" lon="10.8617211"><ele>342.0</ele><time>2026-03-22T08:36:53.978Z</time></trkpt><trkpt lat="45.5381554" lon="10.8617697"><ele>342.0</ele><time>2026-03-22T08:36:54.985Z</time></trkpt><trkpt lat="45.5382329" lon="10.8618174"><ele>339.8333333333333</ele><time>2026-03-22T08:36:55.969Z</time></trkpt><trkpt lat="45.538317" lon="10.8618676"><ele>337.6666666666667</ele><time>2026-03-22T08:36:56.978Z</time></trkpt><trkpt lat="45.5383981" lon="10.8619187"><ele>335.5</ele><time>2026-03-22T08:36:57.976Z</time></trkpt><trkpt lat="45.5384706" lon="10.86196"><ele>333.33333333333337</ele><time>2026-03-22T08:36:58.973Z</time></trkpt><trkpt lat="45.5385449" lon="10.8619895"><ele>331.1666666666667</ele><time>2026-03-22T08:36:59.97Z</time></trkpt><trkpt lat="45.5386225" lon="10.8620268"><ele>329.0</ele><time>2026-03-22T08:37:00.977Z</time></trkpt><trkpt lat="45.5386985" lon="10.8620569"><ele>332.1666666666667</ele><time>2026-03-22T08:37:01.968Z</time></trkpt><trkpt lat="45.5387661" lon="10.8620859"><ele>335.33333333333337</ele><time>2026-03-22T08:37:02.97Z</time></trkpt><trkpt lat="45.5388347" lon="10.8621171"><ele>338.5</ele><time>2026-03-22T08:37:03.982Z</time></trkpt><trkpt lat="45.5388997" lon="10.8621501"><ele>341.6666666666667</ele><time>2026-03-22T08:37:04.975Z</time></trkpt><trkpt lat="45.5389919" lon="10.8622198"><ele>344.8333333333333</ele><time>2026-03-22T08:37:06.975Z</time></trkpt><trkpt lat="45.5391088" lon="10.8622644"><ele>348.0</ele><time>2026-03-22T08:37:08.97Z</time></trkpt><trkpt lat="45.5391773" lon="10.862292"><ele>348.0</ele><time>2026-03-22T08:37:09.967Z</time></trkpt><trkpt lat="45.5392424" lon="10.8623278"><ele>348.0</ele><time>2026-03-22T08:37:10.972Z</time></trkpt><trkpt lat="45.5393034" lon="10.8623618"><ele>348.0</ele><time>2026-03-22T08:37:11.971Z</time></trkpt><trkpt lat="45.5394176" lon="10.8624162"><ele>348.0</ele><time>2026-03-22T08:37:13.973Z</time></trkpt><trkpt lat="45.5394894" lon="10.8624412"><ele>348.0</ele><time>2026-03-22T08:37:14.972Z</time></trkpt><trkpt lat="45.5395639" lon="10.8624688"><ele>348.0</ele><time>2026-03-22T08:37:15.966Z</time></trkpt><trkpt lat="45.5396418" lon="10.8624959"><ele>350.75</ele><time>2026-03-22T08:37:16.964Z</time></trkpt><trkpt lat="45.5397379" lon="10.8625218"><ele>353.5</ele><time>2026-03-22T08:37:17.965Z</time></trkpt><trkpt lat="45.5398638" lon="10.8625447"><ele>356.25</ele><time>2026-03-22T08:37:18.962Z</time></trkpt><trkpt lat="45.5399924" lon="10.8625493"><ele>359.0</ele><time>2026-03-22T08:37:19.958Z</time></trkpt><trkpt lat="45.5401106" lon="10.8625531"><ele>359.0</ele><time>2026-03-22T08:37:20.956Z</time></trkpt><trkpt lat="45.5402228" lon="10.8625527"><ele>359.0</ele><time>2026-03-22T08:37:21.964Z</time></trkpt><trkpt lat="45.5403189" lon="10.8625516"><ele>359.0</ele><time>2026-03-22T08:37:22.978Z</time></trkpt><trkpt lat="45.5404176" lon="10.8625674"><ele>359.0</ele><time>2026-03-22T08:37:23.964Z</time></trkpt><trkpt lat="45.5405035" lon="10.8625935"><ele>359.0</ele><time>2026-03-22T08:37:24.975Z</time></trkpt><trkpt lat="45.5405723" lon="10.8626168"><ele>357.79999999999995</ele><time>2026-03-22T08:37:25.982Z</time></trkpt><trkpt lat="45.5406333" lon="10.8626505"><ele>356.59999999999997</ele><time>2026-03-22T08:37:26.974Z</time></trkpt><trkpt lat="45.5406978" lon="10.862673"><ele>355.4</ele><time>2026-03-22T08:37:27.985Z</time></trkpt><trkpt lat="45.54081" lon="10.8627292"><ele>354.2</ele><time>2026-03-22T08:37:29.97Z</time></trkpt><trkpt lat="45.5409184" lon="10.8627666"><ele>353.0</ele><time>2026-03-22T08:37:31.97Z</time></trkpt><trkpt lat="45.5410159" lon="10.8628092"><ele>353.0</ele><time>2026-03-22T08:37:33.968Z</time></trkpt><trkpt lat="45.5411093" lon="10.8628334"><ele>353.0</ele><time>2026-03-22T08:37:35.974Z</time></trkpt><trkpt lat="45.541205" lon="10.8628588"><ele>353.0</ele><time>2026-03-22T08:37:37.978Z</time></trkpt><trkpt lat="45.5413065" lon="10.8628821"><ele>353.0</ele><time>2026-03-22T08:37:39.975Z</time></trkpt><trkpt lat="45.5414093" lon="10.8628987"><ele>353.0</ele><time>2026-03-22T08:37:41.98Z</time></trkpt><trkpt lat="45.5415257" lon="10.8629227"><ele>354.6666666666667</ele><time>2026-03-22T08:37:43.977Z</time></trkpt><trkpt lat="45.5415897" lon="10.8629243"><ele>356.33333333333337</ele><time>2026-03-22T08:37:44.964Z</time></trkpt><trkpt lat="45.541674" lon="10.8629246"><ele>358.0</ele><time>2026-03-22T08:37:46.98Z</time></trkpt><trkpt lat="45.5417545" lon="10.8629143"><ele>359.6666666666667</ele><time>2026-03-22T08:37:51.056Z</time></trkpt><trkpt lat="45.5418398" lon="10.8628747"><ele>361.3333333333333</ele><time>2026-03-22T08:37:53.973Z</time></trkpt><trkpt lat="45.541934" lon="10.8628859"><ele>363.0</ele><time>2026-03-22T08:37:56.976Z</time></trkpt><trkpt lat="45.5420345" lon="10.8629116"><ele>364.79999999999995</ele><time>2026-03-22T08:37:58.977Z</time></trkpt><trkpt lat="45.542117" lon="10.8629287"><ele>366.6</ele><time>2026-03-22T08:38:00.973Z</time></trkpt><trkpt lat="45.5421848" lon="10.8629578"><ele>368.4</ele><time>2026-03-22T08:38:07.971Z</time></trkpt><trkpt lat="45.5422566" lon="10.8630474"><ele>370.20000000000005</ele><time>2026-03-22T08:38:16.972Z</time></trkpt><trkpt lat="45.5422946" lon="10.8632737"><ele>372.0</ele><time>2026-03-22T08:38:18.965Z</time></trkpt><trkpt lat="45.5423111" lon="10.8634144"><ele>373.20000000000005</ele><time>2026-03-22T08:38:19.978Z</time></trkpt><trkpt lat="45.5423421" lon="10.8635619"><ele>374.4</ele><time>2026-03-22T08:38:21.002Z</time></trkpt><trkpt lat="45.5423827" lon="10.8636848"><ele>375.6</ele><time>2026-03-22T08:38:21.969Z</time></trkpt><trkpt lat="45.5424017" lon="10.8638142"><ele>376.79999999999995</ele><time>2026-03-22T08:38:22.981Z</time></trkpt><trkpt lat="45.5423715" lon="10.8639471"><ele>378.0</ele><time>2026-03-22T08:38:23.955Z</time></trkpt><trkpt lat="45.5423259" lon="10.8640621"><ele>378.0</ele><time>2026-03-22T08:38:24.971Z</time></trkpt><trkpt lat="45.5422882" lon="10.8641375"><ele>378.0</ele><time>2026-03-22T08:38:25.973Z</time></trkpt><trkpt lat="45.5423562" lon="10.864096"><ele>378.0</ele><time>2026-03-22T08:38:29.964Z</time></trkpt><trkpt lat="45.5423909" lon="10.8640071"><ele>378.0</ele><time>2026-03-22T08:38:31.971Z</time></trkpt><trkpt lat="45.5424111" lon="10.8639168"><ele>378.0</ele><time>2026-03-22T08:38:34.96Z</time></trkpt><trkpt lat="45.5424272" lon="10.8638117"><ele>378.0</ele><time>2026-03-22T08:38:37.973Z</time></trkpt><trkpt lat="45.5424471" lon="10.8637043"><ele>378.0</ele><time>2026-03-22T08:38:39.98Z</time></trkpt><trkpt lat="45.5424374" lon="10.8635536"><ele>376.79999999999995</ele><time>2026-03-22T08:38:41.982Z</time></trkpt><trkpt lat="45.5424019" lon="10.8634152"><ele>375.6</ele><time>2026-03-22T08:38:43.975Z</time></trkpt><trkpt lat="45.5424057" lon="10.8632716"><ele>374.4</ele><time>2026-03-22T08:38:45.981Z</time></trkpt><trkpt lat="45.5424427" lon="10.8631405"><ele>373.20000000000005</ele><time>2026-03-22T08:38:47.97Z</time></trkpt><trkpt lat="45.5425197" lon="10.8629966"><ele>372.0</ele><time>2026-03-22T08:38:49.975Z</time></trkpt><trkpt lat="45.5425875" lon="10.8629256"><ele>372.0</ele><time>2026-03-22T08:38:50.981Z</time></trkpt><trkpt lat="45.5426725" lon="10.8628888"><ele>372.0</ele><time>2026-03-22T08:38:52.052Z</time></trkpt><trkpt lat="45.5427455" lon="10.8628783"><ele>372.0</ele><time>2026-03-22T08:38:52.979Z</time></trkpt><trkpt lat="45.5428067" lon="10.8628352"><ele>372.0</ele><time>2026-03-22T08:38:54.977Z</time></trkpt><trkpt lat="45.5427326" lon="10.8628011"><ele>372.0</ele><time>2026-03-22T08:38:56.965Z</time></trkpt><trkpt lat="45.5426634" lon="10.8628002"><ele>372.0</ele><time>2026-03-22T08:38:57.985Z</time></trkpt><trkpt lat="45.5425377" lon="10.8627883"><ele>372.0</ele><time>2026-03-22T08:39:00Z</time></trkpt><trkpt lat="45.5424738" lon="10.8627808"><ele>372.0</ele><time>2026-03-22T08:39:00.969Z</time></trkpt><trkpt lat="45.5424106" lon="10.862777"><ele>372.0</ele><time>2026-03-22T08:39:02.026Z</time></trkpt><trkpt lat="45.5423375" lon="10.8627785"><ele>372.0</ele><time>2026-03-22T08:39:02.976Z</time></trkpt><trkpt lat="45.5422677" lon="10.8627796"><ele>372.0</ele><time>2026-03-22T08:39:03.971Z</time></trkpt><trkpt lat="45.5421543" lon="10.8627728"><ele>372.0</ele><time>2026-03-22T08:39:05.975Z</time></trkpt><trkpt lat="45.5420416" lon="10.8627668"><ele>370.20000000000005</ele><time>2026-03-22T08:39:07.975Z</time></trkpt><trkpt lat="45.5419197" lon="10.8627634"><ele>368.4</ele><time>2026-03-22T08:39:10.039Z</time></trkpt><trkpt lat="45.5418148" lon="10.8627558"><ele>366.6</ele><time>2026-03-22T08:39:12.031Z</time></trkpt><trkpt lat="45.5417184" lon="10.8627375"><ele>364.79999999999995</ele><time>2026-03-22T08:39:13.98Z</time></trkpt><trkpt lat="45.5416245" lon="10.8627038"><ele>363.0</ele><time>2026-03-22T08:39:15.964Z</time></trkpt><trkpt lat="45.5415412" lon="10.8626728"><ele>363.0</ele><time>2026-03-22T08:39:17.95Z</time></trkpt><trkpt lat="45.541464" lon="10.8626287"><ele>363.0</ele><time>2026-03-22T08:39:20.971Z</time></trkpt><trkpt lat="45.5413633" lon="10.8626101"><ele>363.0</ele><time>2026-03-22T08:39:22.972Z</time></trkpt><trkpt lat="45.541265" lon="10.8625936"><ele>363.0</ele><time>2026-03-22T08:39:24.967Z</time></trkpt><trkpt lat="45.5412047" lon="10.8625656"><ele>363.0</ele><time>2026-03-22T08:39:28.974Z</time></trkpt><trkpt lat="45.5411197" lon="10.8625532"><ele>363.0</ele><time>2026-03-22T08:39:31.976Z</time></trkpt><trkpt lat="45.5410473" lon="10.8625276"><ele>363.85714285714283</ele><time>2026-03-22T08:39:34.968Z</time></trkpt><trkpt lat="45.5409793" lon="10.862485"><ele>364.7142857142857</ele><time>2026-03-22T08:39:39.978Z</time></trkpt><trkpt lat="45.5409254" lon="10.8624323"><ele>365.57142857142856</ele><time>2026-03-22T08:39:42.982Z</time></trkpt><trkpt lat="45.5408573" lon="10.8623565"><ele>366.42857142857144</ele><time>2026-03-22T08:39:45.961Z</time></trkpt><trkpt lat="45.540803" lon="10.8622864"><ele>367.2857142857143</ele><time>2026-03-22T08:39:47.971Z</time></trkpt><trkpt lat="45.540755" lon="10.8622228"><ele>368.1428571428571</ele><time>2026-03-22T08:39:49.994Z</time></trkpt><trkpt lat="45.5407048" lon="10.8621557"><ele>369.0</ele><time>2026-03-22T08:39:54.973Z</time></trkpt><trkpt lat="45.5406383" lon="10.8621178"><ele>369.0</ele><time>2026-03-22T08:40:04.975Z</time></trkpt><trkpt lat="45.5405918" lon="10.8620217"><ele>369.0</ele><time>2026-03-22T08:41:42.965Z</time></trkpt><trkpt lat="45.5405238" lon="10.8619941"><ele>369.0</ele><time>2026-03-22T08:41:47.959Z</time></trkpt><trkpt lat="45.5404508" lon="10.8619349"><ele>369.0</ele><time>2026-03-22T08:43:41.959Z</time></trkpt><trkpt lat="45.5403703" lon="10.8618677"><ele>369.0</ele><time>2026-03-22T08:43:44.956Z</time></trkpt><trkpt lat="45.5402966" lon="10.8618031"><ele>369.0</ele><time>2026-03-22T08:43:47.967Z</time></trkpt><trkpt lat="45.5402313" lon="10.8617297"><ele>372.0</ele><time>2026-03-22T08:43:50.964Z</time></trkpt><trkpt lat="45.5401863" lon="10.8616372"><ele>375.0</ele><time>2026-03-22T08:43:53.959Z</time></trkpt><trkpt lat="45.5401109" lon="10.8615551"><ele>378.0</ele><time>2026-03-22T08:43:56.958Z</time></trkpt><trkpt lat="45.5400375" lon="10.8614721"><ele>381.0</ele><time>2026-03-22T08:43:58.953Z</time></trkpt><trkpt lat="45.540004" lon="10.8613954"><ele>384.0</ele><time>2026-03-22T08:44:03.969Z</time></trkpt><trkpt lat="45.5399328" lon="10.861311"><ele>387.0</ele><time>2026-03-22T08:44:08.961Z</time></trkpt><trkpt lat="45.5398498" lon="10.8612024"><ele>387.0</ele><time>2026-03-22T08:44:10.962Z</time></trkpt><trkpt lat="45.5397627" lon="10.8611707"><ele>387.0</ele><time>2026-03-22T08:44:12.972Z</time></trkpt><trkpt lat="45.5396991" lon="10.8611307"><ele>387.0</ele><time>2026-03-22T08:44:13.961Z</time></trkpt><trkpt lat="45.5396402" lon="10.8610968"><ele>387.0</ele><time>2026-03-22T08:44:14.954Z</time></trkpt><trkpt lat="45.5395317" lon="10.8610104"><ele>387.0</ele><time>2026-03-22T08:44:16.964Z</time></trkpt><trkpt lat="45.5394644" lon="10.8609652"><ele>387.0</ele><time>2026-03-22T08:44:17.962Z</time></trkpt><trkpt lat="45.5393957" lon="10.8609053"><ele>388.8571428571429</ele><time>2026-03-22T08:44:18.969Z</time></trkpt><trkpt lat="45.5393294" lon="10.8608455"><ele>390.7142857142857</ele><time>2026-03-22T08:44:19.966Z</time></trkpt><trkpt lat="45.5392656" lon="10.8607989"><ele>392.57142857142856</ele><time>2026-03-22T08:44:20.968Z</time></trkpt><trkpt lat="45.5391992" lon="10.8607406"><ele>394.42857142857144</ele><time>2026-03-22T08:44:21.958Z</time></trkpt><trkpt lat="45.5391383" lon="10.8606893"><ele>396.2857142857143</ele><time>2026-03-22T08:44:22.967Z</time></trkpt><trkpt lat="45.5390793" lon="10.8606296"><ele>398.14285714285717</ele><time>2026-03-22T08:44:23.969Z</time></trkpt><trkpt lat="45.5390212" lon="10.8605703"><ele>400.0</ele><time>2026-03-22T08:44:24.962Z</time></trkpt><trkpt lat="45.5389604" lon="10.8605049"><ele>400.00000000000006</ele><time>2026-03-22T08:44:25.964Z</time></trkpt><trkpt lat="45.5388989" lon="10.8604402"><ele>400.0</ele><time>2026-03-22T08:44:26.965Z</time></trkpt><trkpt lat="45.5388324" lon="10.8603671"><ele>400.0</ele><time>2026-03-22T08:44:27.957Z</time></trkpt><trkpt lat="45.5387641" lon="10.8602939"><ele>400.0</ele><time>2026-03-22T08:44:28.962Z</time></trkpt><trkpt lat="45.538696" lon="10.8602081"><ele>400.00000000000006</ele><time>2026-03-22T08:44:29.967Z</time></trkpt><trkpt lat="45.5386283" lon="10.8601257"><ele>400.0</ele><time>2026-03-22T08:44:30.969Z</time></trkpt><trkpt lat="45.5385653" lon="10.8600437"><ele>401.2</ele><time>2026-03-22T08:44:31.954Z</time></trkpt><trkpt lat="45.5385023" lon="10.8599653"><ele>402.4</ele><time>2026-03-22T08:44:32.967Z</time></trkpt><trkpt lat="45.5384483" lon="10.8598865"><ele>403.6</ele><time>2026-03-22T08:44:33.968Z</time></trkpt><trkpt lat="45.5383971" lon="10.8598046"><ele>404.8</ele><time>2026-03-22T08:44:34.963Z</time></trkpt><trkpt lat="45.5383344" lon="10.8596729"><ele>406.0</ele><time>2026-03-22T08:44:36.96Z</time></trkpt><trkpt lat="45.538296" lon="10.8595388"><ele>406.00000000000006</ele><time>2026-03-22T08:44:38.963Z</time></trkpt><trkpt lat="45.5382603" lon="10.8594081"><ele>406.0</ele><time>2026-03-22T08:44:40.959Z</time></trkpt><trkpt lat="45.5382563" lon="10.859318"><ele>406.0</ele><time>2026-03-22T08:44:43.974Z</time></trkpt><trkpt lat="45.5382923" lon="10.859236"><ele>406.0</ele><time>2026-03-22T08:44:46.951Z</time></trkpt><trkpt lat="45.5383934" lon="10.8592828"><ele>406.00000000000006</ele><time>2026-03-22T08:44:49.962Z</time></trkpt><trkpt lat="45.5384514" lon="10.8592434"><ele>406.0</ele><time>2026-03-22T08:44:51.964Z</time></trkpt><trkpt lat="45.5384867" lon="10.8591462"><ele>408.4</ele><time>2026-03-22T08:44:54.01Z</time></trkpt><trkpt lat="45.5384941" lon="10.8590177"><ele>410.8</ele><time>2026-03-22T08:44:57.024Z</time></trkpt><trkpt lat="45.5385297" lon="10.8589167"><ele>413.2</ele><time>2026-03-22T08:44:58.947Z</time></trkpt><trkpt lat="45.538607" lon="10.8588201"><ele>415.59999999999997</ele><time>2026-03-22T08:45:00.964Z</time></trkpt><trkpt lat="45.5386673" lon="10.8587637"><ele>418.0</ele><time>2026-03-22T08:45:03.979Z</time></trkpt><trkpt lat="45.5387609" lon="10.8588963"><ele>419.2</ele><time>2026-03-22T08:45:05.97Z</time></trkpt><trkpt lat="45.5388056" lon="10.8590177"><ele>420.4</ele><time>2026-03-22T08:45:06.972Z</time></trkpt><trkpt lat="45.5388499" lon="10.8591381"><ele>421.59999999999997</ele><time>2026-03-22T08:45:07.957Z</time></trkpt><trkpt lat="45.5389084" lon="10.8592345"><ele>422.79999999999995</ele><time>2026-03-22T08:45:08.97Z</time></trkpt><trkpt lat="45.5389671" lon="10.8593296"><ele>424.0</ele><time>2026-03-22T08:45:09.97Z</time></trkpt><trkpt lat="45.5390261" lon="10.8594151"><ele>424.00000000000006</ele><time>2026-03-22T08:45:10.968Z</time></trkpt><trkpt lat="45.539088" lon="10.8594986"><ele>424.0</ele><time>2026-03-22T08:45:12.017Z</time></trkpt><trkpt lat="45.5391498" lon="10.8595759"><ele>424.0</ele><time>2026-03-22T08:45:12.959Z</time></trkpt><trkpt lat="45.5392081" lon="10.8596438"><ele>424.0</ele><time>2026-03-22T08:45:13.963Z</time></trkpt><trkpt lat="45.5392595" lon="10.8597026"><ele>424.00000000000006</ele><time>2026-03-22T08:45:14.951Z</time></trkpt><trkpt lat="45.539344" lon="10.8597881"><ele>424.0</ele><time>2026-03-22T08:45:16.968Z</time></trkpt><trkpt lat="45.539423" lon="10.8598473"><ele>424.00000000000006</ele><time>2026-03-22T08:45:18.965Z</time></trkpt><trkpt lat="45.5395246" lon="10.8598781"><ele>424.0</ele><time>2026-03-22T08:45:20.966Z</time></trkpt><trkpt lat="45.5395898" lon="10.8598743"><ele>424.0</ele><time>2026-03-22T08:45:21.969Z</time></trkpt><trkpt lat="45.5396825" lon="10.8598264"><ele>424.0</ele><time>2026-03-22T08:45:23.947Z</time></trkpt><trkpt lat="45.539739" lon="10.8597509"><ele>424.00000000000006</ele><time>2026-03-22T08:45:25.969Z</time></trkpt><trkpt lat="45.539787" lon="10.8596632"><ele>424.0</ele><time>2026-03-22T08:45:30.973Z</time></trkpt><trkpt lat="45.5398046" lon="10.8595658"><ele>426.79999999999995</ele><time>2026-03-22T08:45:32.959Z</time></trkpt><trkpt lat="45.5398383" lon="10.8594696"><ele>429.59999999999997</ele><time>2026-03-22T08:45:34.971Z</time></trkpt><trkpt lat="45.5399048" lon="10.8593606"><ele>432.4</ele><time>2026-03-22T08:45:36.961Z</time></trkpt><trkpt lat="45.5399435" lon="10.8592213"><ele>435.2</ele><time>2026-03-22T08:45:38.969Z</time></trkpt><trkpt lat="45.5399812" lon="10.85908"><ele>438.0</ele><time>2026-03-22T08:45:40.963Z</time></trkpt><trkpt lat="45.539996" lon="10.858943"><ele>441.79999999999995</ele><time>2026-03-22T08:45:42.963Z</time></trkpt><trkpt lat="45.5400046" lon="10.8587904"><ele>445.59999999999997</ele><time>2026-03-22T08:45:44.958Z</time></trkpt><trkpt lat="45.5400397" lon="10.8586862"><ele>449.40000000000003</ele><time>2026-03-22T08:45:46.96Z</time></trkpt><trkpt lat="45.5401091" lon="10.8586083"><ele>453.20000000000005</ele><time>2026-03-22T08:45:48.952Z</time></trkpt><trkpt lat="45.540183" lon="10.8584959"><ele>457.0</ele><time>2026-03-22T08:45:50.965Z</time></trkpt><trkpt lat="45.5402365" lon="10.8584094"><ele>459.40000000000003</ele><time>2026-03-22T08:45:52.961Z</time></trkpt><trkpt lat="45.5402123" lon="10.858292"><ele>461.80000000000007</ele><time>2026-03-22T08:45:55.966Z</time></trkpt><trkpt lat="45.5401471" lon="10.8581948"><ele>464.2</ele><time>2026-03-22T08:46:14.964Z</time></trkpt><trkpt lat="45.5401011" lon="10.8581026"><ele>466.6</ele><time>2026-03-22T08:46:15.94Z</time></trkpt><trkpt lat="45.5400244" lon="10.8580112"><ele>469.0</ele><time>2026-03-22T08:46:16.964Z</time></trkpt><trkpt lat="45.5399329" lon="10.8579493"><ele>469.0</ele><time>2026-03-22T08:46:17.958Z</time></trkpt><trkpt lat="45.5398336" lon="10.8579016"><ele>469.0</ele><time>2026-03-22T08:46:18.96Z</time></trkpt><trkpt lat="45.5397324" lon="10.8578413"><ele>469.0</ele><time>2026-03-22T08:46:19.953Z</time></trkpt><trkpt lat="45.5396444" lon="10.8577512"><ele>469.0</ele><time>2026-03-22T08:46:20.963Z</time></trkpt><trkpt lat="45.5395527" lon="10.8576196"><ele>465.33333333333337</ele><time>2026-03-22T08:46:21.947Z</time></trkpt><trkpt lat="45.5394568" lon="10.8574595"><ele>461.66666666666663</ele><time>2026-03-22T08:46:22.967Z</time></trkpt><trkpt lat="45.5393683" lon="10.8572597"><ele>458.0</ele><time>2026-03-22T08:46:23.946Z</time></trkpt><trkpt lat="45.5392849" lon="10.8570503"><ele>458.0</ele><time>2026-03-22T08:46:25.01Z</time></trkpt><trkpt lat="45.5392049" lon="10.8568549"><ele>458.0</ele><time>2026-03-22T08:46:26.012Z</time></trkpt><trkpt lat="45.5391054" lon="10.8566792"><ele>458.0</ele><time>2026-03-22T08:46:27.03Z</time></trkpt><trkpt lat="45.5390082" lon="10.8565124"><ele>459.3333333333333</ele><time>2026-03-22T08:46:27.974Z</time></trkpt><trkpt lat="45.5389109" lon="10.85635"><ele>460.66666666666663</ele><time>2026-03-22T08:46:28.97Z</time></trkpt><trkpt lat="45.5388169" lon="10.8561817"><ele>462.0</ele><time>2026-03-22T08:46:29.965Z</time></trkpt><trkpt lat="45.5387227" lon="10.8560165"><ele>458.40000000000003</ele><time>2026-03-22T08:46:30.971Z</time></trkpt><trkpt lat="45.5386386" lon="10.8558695"><ele>454.80000000000007</ele><time>2026-03-22T08:46:31.967Z</time></trkpt><trkpt lat="45.5385734" lon="10.8557507"><ele>451.2</ele><time>2026-03-22T08:46:32.96Z</time></trkpt><trkpt lat="45.5385319" lon="10.8556452"><ele>447.6</ele><time>2026-03-22T08:46:33.975Z</time></trkpt><trkpt lat="45.5384873" lon="10.8555622"><ele>444.0</ele><time>2026-03-22T08:46:34.984Z</time></trkpt><trkpt lat="45.5384463" lon="10.8554761"><ele>444.0</ele><time>2026-03-22T08:46:35.969Z</time></trkpt><trkpt lat="45.5384104" lon="10.8553937"><ele>444.0</ele><time>2026-03-22T08:46:36.96Z</time></trkpt><trkpt lat="45.5383727" lon="10.855273"><ele>444.0</ele><time>2026-03-22T08:46:38.96Z</time></trkpt><trkpt lat="45.5383567" lon="10.8551829"><ele>444.0</ele><time>2026-03-22T08:46:41.952Z</time></trkpt><trkpt lat="45.5383266" lon="10.8550663"><ele>444.0</ele><time>2026-03-22T08:47:20.963Z</time></trkpt><trkpt lat="45.5382908" lon="10.8549735"><ele>444.0</ele><time>2026-03-22T08:47:23.977Z</time></trkpt><trkpt lat="45.5383406" lon="10.8550587"><ele>444.0</ele><time>2026-03-22T08:47:28.966Z</time></trkpt><trkpt lat="45.5383656" lon="10.8552176"><ele>444.0</ele><time>2026-03-22T08:47:30.963Z</time></trkpt><trkpt lat="45.538382" lon="10.8553082"><ele>444.0</ele><time>2026-03-22T08:47:31.966Z</time></trkpt><trkpt lat="45.5384279" lon="10.8554388"><ele>444.0</ele><time>2026-03-22T08:47:33.961Z</time></trkpt><trkpt lat="45.538483" lon="10.8555997"><ele>444.0</ele><time>2026-03-22T08:47:35.975Z</time></trkpt><trkpt lat="45.5385241" lon="10.8556943"><ele>444.0</ele><time>2026-03-22T08:47:36.969Z</time></trkpt><trkpt lat="45.5385712" lon="10.8557795"><ele>444.0</ele><time>2026-03-22T08:47:37.978Z</time></trkpt><trkpt lat="45.5386193" lon="10.8558744"><ele>444.0</ele><time>2026-03-22T08:47:38.969Z</time></trkpt><trkpt lat="45.5386767" lon="10.8559778"><ele>444.0</ele><time>2026-03-22T08:47:39.971Z</time></trkpt><trkpt lat="45.5387384" lon="10.8560806"><ele>444.0</ele><time>2026-03-22T08:47:40.968Z</time></trkpt><trkpt lat="45.5388112" lon="10.856211"><ele>447.5</ele><time>2026-03-22T08:47:41.967Z</time></trkpt><trkpt lat="45.538886" lon="10.856359"><ele>451.0</ele><time>2026-03-22T08:47:42.971Z</time></trkpt><trkpt lat="45.5389691" lon="10.8565121"><ele>454.5</ele><time>2026-03-22T08:47:43.964Z</time></trkpt><trkpt lat="45.5390589" lon="10.8566712"><ele>458.0</ele><time>2026-03-22T08:47:44.976Z</time></trkpt><trkpt lat="45.5391667" lon="10.8568504"><ele>458.0</ele><time>2026-03-22T08:47:45.966Z</time></trkpt><trkpt lat="45.5392627" lon="10.857024"><ele>458.0</ele><time>2026-03-22T08:47:46.967Z</time></trkpt><trkpt lat="45.5393464" lon="10.8572029"><ele>458.0</ele><time>2026-03-22T08:47:47.969Z</time></trkpt><trkpt lat="45.5394182" lon="10.8573736"><ele>458.0</ele><time>2026-03-22T08:47:49.033Z</time></trkpt><trkpt lat="45.5394922" lon="10.8575273"><ele>460.75</ele><time>2026-03-22T08:47:50.038Z</time></trkpt><trkpt lat="45.5395748" lon="10.8576559"><ele>463.5</ele><time>2026-03-22T08:47:51.026Z</time></trkpt><trkpt lat="45.5396626" lon="10.8577889"><ele>466.25</ele><time>2026-03-22T08:47:52.011Z</time></trkpt><trkpt lat="45.5397455" lon="10.8578835"><ele>469.0</ele><time>2026-03-22T08:47:52.973Z</time></trkpt><trkpt lat="45.5398284" lon="10.857952"><ele>469.00000000000006</ele><time>2026-03-22T08:47:53.964Z</time></trkpt><trkpt lat="45.539909" lon="10.8579921"><ele>469.0</ele><time>2026-03-22T08:47:54.982Z</time></trkpt><trkpt lat="45.540009" lon="10.8580314"><ele>469.0</ele><time>2026-03-22T08:47:57.026Z</time></trkpt><trkpt lat="45.5400736" lon="10.8579558"><ele>469.0</ele><time>2026-03-22T08:47:59.963Z</time></trkpt><trkpt lat="45.5400976" lon="10.8578215"><ele>469.00000000000006</ele><time>2026-03-22T08:48:01.96Z</time></trkpt><trkpt lat="45.5401025" lon="10.8577276"><ele>469.0</ele><time>2026-03-22T08:48:02.962Z</time></trkpt><trkpt lat="45.5401056" lon="10.8576191"><ele>470.50000000000006</ele><time>2026-03-22T08:48:04.041Z</time></trkpt><trkpt lat="45.5401178" lon="10.8575067"><ele>472.0</ele><time>2026-03-22T08:48:04.965Z</time></trkpt><trkpt lat="45.5401431" lon="10.8574098"><ele>473.5</ele><time>2026-03-22T08:48:05.966Z</time></trkpt><trkpt lat="45.5401838" lon="10.8573267"><ele>475.0</ele><time>2026-03-22T08:48:06.961Z</time></trkpt><trkpt lat="45.5402443" lon="10.8572569"><ele>476.50000000000006</ele><time>2026-03-22T08:48:07.975Z</time></trkpt><trkpt lat="45.5403101" lon="10.8571877"><ele>478.0</ele><time>2026-03-22T08:48:08.947Z</time></trkpt><trkpt lat="45.5403747" lon="10.8571146"><ele>480.6666666666667</ele><time>2026-03-22T08:48:09.964Z</time></trkpt><trkpt lat="45.5404175" lon="10.8570301"><ele>483.33333333333337</ele><time>2026-03-22T08:48:10.983Z</time></trkpt><trkpt lat="45.54046" lon="10.8568726"><ele>486.0</ele><time>2026-03-22T08:48:12.957Z</time></trkpt><trkpt lat="45.5405134" lon="10.8567317"><ele>488.66666666666663</ele><time>2026-03-22T08:48:14.971Z</time></trkpt><trkpt lat="45.5405495" lon="10.8566576"><ele>491.3333333333333</ele><time>2026-03-22T08:48:15.965Z</time></trkpt><trkpt lat="45.5405809" lon="10.8565753"><ele>494.0</ele><time>2026-03-22T08:48:16.97Z</time></trkpt><trkpt lat="45.5406297" lon="10.8564184"><ele>494.42857142857144</ele><time>2026-03-22T08:48:19.017Z</time></trkpt><trkpt lat="45.5406892" lon="10.8563732"><ele>494.85714285714283</ele><time>2026-03-22T08:48:20.964Z</time></trkpt><trkpt lat="45.5407338" lon="10.8564469"><ele>495.2857142857143</ele><time>2026-03-22T08:48:29.962Z</time></trkpt><trkpt lat="45.5407986" lon="10.8564526"><ele>495.7142857142857</ele><time>2026-03-22T08:48:32.96Z</time></trkpt><trkpt lat="45.5408739" lon="10.8564121"><ele>496.1428571428571</ele><time>2026-03-22T08:48:35.958Z</time></trkpt><trkpt lat="45.5409478" lon="10.8563836"><ele>496.57142857142856</ele><time>2026-03-22T08:48:38.959Z</time></trkpt><trkpt lat="45.5410165" lon="10.8563935"><ele>497.0</ele><time>2026-03-22T08:48:41.962Z</time></trkpt><trkpt lat="45.5410764" lon="10.8563624"><ele>497.0</ele><time>2026-03-22T08:48:43.968Z</time></trkpt><trkpt lat="45.541137" lon="10.8563349"><ele>497.0</ele><time>2026-03-22T08:48:46.992Z</time></trkpt><trkpt lat="45.5410983" lon="10.8562546"><ele>497.0</ele><time>2026-03-22T08:49:04.957Z</time></trkpt><trkpt lat="45.5410275" lon="10.8562266"><ele>497.0</ele><time>2026-03-22T08:49:07.965Z</time></trkpt><trkpt lat="45.5409484" lon="10.8562236"><ele>497.0</ele><time>2026-03-22T08:49:38.964Z</time></trkpt><trkpt lat="45.5408901" lon="10.8561805"><ele>497.0</ele><time>2026-03-22T08:49:41.967Z</time></trkpt><trkpt lat="45.5408079" lon="10.8561476"><ele>497.0</ele><time>2026-03-22T08:49:44.965Z</time></trkpt><trkpt lat="45.5407702" lon="10.8560737"><ele>497.0</ele><time>2026-03-22T08:49:52.955Z</time></trkpt><trkpt lat="45.5408413" lon="10.8560563"><ele>497.0</ele><time>2026-03-22T08:50:16.945Z</time></trkpt><trkpt lat="45.5409182" lon="10.8560999"><ele>497.0</ele><time>2026-03-22T08:50:20.958Z</time></trkpt><trkpt lat="45.5409829" lon="10.856077"><ele>497.0</ele><time>2026-03-22T08:50:22.962Z</time></trkpt><trkpt lat="45.5410453" lon="10.8560626"><ele>497.0</ele><time>2026-03-22T08:50:24.953Z</time></trkpt><trkpt lat="45.5411145" lon="10.8560709"><ele>497.0</ele><time>2026-03-22T08:50:26.961Z</time></trkpt><trkpt lat="45.5411972" lon="10.8560835"><ele>497.0</ele><time>2026-03-22T08:50:28.967Z</time></trkpt><trkpt lat="45.5412744" lon="10.8560967"><ele>498.99999999999994</ele><time>2026-03-22T08:50:31.959Z</time></trkpt><trkpt lat="45.5413723" lon="10.8561355"><ele>501.0</ele><time>2026-03-22T08:50:34.963Z</time></trkpt><trkpt lat="45.5414549" lon="10.8561614"><ele>503.0</ele><time>2026-03-22T08:50:36.969Z</time></trkpt><trkpt lat="45.5415327" lon="10.856145"><ele>505.0</ele><time>2026-03-22T08:50:39.97Z</time></trkpt><trkpt lat="45.5416105" lon="10.856149"><ele>506.99999999999994</ele><time>2026-03-22T08:50:42.966Z</time></trkpt><trkpt lat="45.5416963" lon="10.8561837"><ele>509.0</ele><time>2026-03-22T08:50:45.973Z</time></trkpt><trkpt lat="45.5417583" lon="10.856219"><ele>508.99999999999994</ele><time>2026-03-22T08:50:47.96Z</time></trkpt><trkpt lat="45.5418073" lon="10.8562816"><ele>509.0</ele><time>2026-03-22T08:50:50.959Z</time></trkpt><trkpt lat="45.541879" lon="10.8563507"><ele>509.0</ele><time>2026-03-22T08:50:53.977Z</time></trkpt><trkpt lat="45.5419729" lon="10.856326"><ele>509.0</ele><time>2026-03-22T08:50:56.962Z</time></trkpt><trkpt lat="45.5420423" lon="10.8562872"><ele>508.99999999999994</ele><time>2026-03-22T08:50:58.956Z</time></trkpt><trkpt lat="45.5421386" lon="10.8562635"><ele>509.0</ele><time>2026-03-22T08:51:00.956Z</time></trkpt><trkpt lat="45.5422356" lon="10.8562368"><ele>510.79999999999995</ele><time>2026-03-22T08:51:02.962Z</time></trkpt><trkpt lat="45.5423313" lon="10.8562298"><ele>512.5999999999999</ele><time>2026-03-22T08:51:04.968Z</time></trkpt><trkpt lat="45.542446" lon="10.8562219"><ele>514.4</ele><time>2026-03-22T08:51:06.973Z</time></trkpt><trkpt lat="45.5425498" lon="10.8562427"><ele>516.1999999999999</ele><time>2026-03-22T08:51:08.943Z</time></trkpt><trkpt lat="45.5426236" lon="10.8562547"><ele>518.0</ele><time>2026-03-22T08:51:10.965Z</time></trkpt><trkpt lat="45.5426943" lon="10.8562961"><ele>518.0</ele><time>2026-03-22T08:51:12.958Z</time></trkpt><trkpt lat="45.5427566" lon="10.8563548"><ele>518.0</ele><time>2026-03-22T08:51:14.972Z</time></trkpt><trkpt lat="45.542818" lon="10.856403"><ele>518.0</ele><time>2026-03-22T08:51:18.972Z</time></trkpt><trkpt lat="45.5428942" lon="10.8564546"><ele>518.0</ele><time>2026-03-22T08:51:22.944Z</time></trkpt><trkpt lat="45.5429897" lon="10.8564783"><ele>518.0</ele><time>2026-03-22T08:51:25.97Z</time></trkpt><trkpt lat="45.5430585" lon="10.8565066"><ele>518.0</ele><time>2026-03-22T08:51:27.97Z</time></trkpt><trkpt lat="45.5431299" lon="10.8565292"><ele>518.8</ele><time>2026-03-22T08:51:29.961Z</time></trkpt><trkpt lat="45.5432058" lon="10.8564984"><ele>519.5999999999999</ele><time>2026-03-22T08:51:32.977Z</time></trkpt><trkpt lat="45.5432916" lon="10.8564831"><ele>520.4000000000001</ele><time>2026-03-22T08:51:35.979Z</time></trkpt><trkpt lat="45.5433668" lon="10.8565374"><ele>521.2</ele><time>2026-03-22T08:51:39.949Z</time></trkpt><trkpt lat="45.5434806" lon="10.8565013"><ele>522.0</ele><time>2026-03-22T08:51:42.967Z</time></trkpt><trkpt lat="45.5436006" lon="10.8564795"><ele>522.0</ele><time>2026-03-22T08:51:44.97Z</time></trkpt><trkpt lat="45.5436637" lon="10.8564479"><ele>522.0</ele><time>2026-03-22T08:51:45.958Z</time></trkpt><trkpt lat="45.5437685" lon="10.8563609"><ele>522.0</ele><time>2026-03-22T08:51:47.964Z</time></trkpt><trkpt lat="45.5438124" lon="10.8562934"><ele>522.0</ele><time>2026-03-22T08:51:48.942Z</time></trkpt><trkpt lat="45.543861" lon="10.8562236"><ele>522.0</ele><time>2026-03-22T08:51:49.962Z</time></trkpt><trkpt lat="45.5439126" lon="10.8561526"><ele>522.0</ele><time>2026-03-22T08:51:50.958Z</time></trkpt><trkpt lat="45.5439842" lon="10.8560046"><ele>522.2857142857143</ele><time>2026-03-22T08:51:52.97Z</time></trkpt><trkpt lat="45.5440172" lon="10.8559138"><ele>522.5714285714286</ele><time>2026-03-22T08:51:53.969Z</time></trkpt><trkpt lat="45.5440498" lon="10.855818"><ele>522.8571428571429</ele><time>2026-03-22T08:51:54.958Z</time></trkpt><trkpt lat="45.544091" lon="10.8557272"><ele>523.1428571428571</ele><time>2026-03-22T08:51:55.959Z</time></trkpt><trkpt lat="45.5441203" lon="10.855636"><ele>523.4285714285714</ele><time>2026-03-22T08:51:56.971Z</time></trkpt><trkpt lat="45.5441449" lon="10.8555419"><ele>523.7142857142858</ele><time>2026-03-22T08:51:57.971Z</time></trkpt><trkpt lat="45.5441776" lon="10.8554385"><ele>524.0</ele><time>2026-03-22T08:51:58.965Z</time></trkpt><trkpt lat="45.5442112" lon="10.855343"><ele>524.0</ele><time>2026-03-22T08:51:59.964Z</time></trkpt><trkpt lat="45.5442434" lon="10.8552368"><ele>524.0</ele><time>2026-03-22T08:52:00.964Z</time></trkpt><trkpt lat="45.5442746" lon="10.8551403"><ele>524.0</ele><time>2026-03-22T08:52:01.968Z</time></trkpt><trkpt lat="45.5443208" lon="10.8550261"><ele>524.0</ele><time>2026-03-22T08:52:03.968Z</time></trkpt><trkpt lat="45.5442084" lon="10.8550334"><ele>524.0</ele><time>2026-03-22T08:52:07.95Z</time></trkpt><trkpt lat="45.5440895" lon="10.8551099"><ele>524.0</ele><time>2026-03-22T08:52:08.968Z</time></trkpt><trkpt lat="45.5439826" lon="10.8551706"><ele>524.0</ele><time>2026-03-22T08:52:09.958Z</time></trkpt><trkpt lat="45.5438982" lon="10.8552378"><ele>524.0</ele><time>2026-03-22T08:52:10.96Z</time></trkpt><trkpt lat="45.5437968" lon="10.8553219"><ele>524.0</ele><time>2026-03-22T08:52:11.961Z</time></trkpt><trkpt lat="45.5437022" lon="10.8553903"><ele>524.0</ele><time>2026-03-22T08:52:12.953Z</time></trkpt><trkpt lat="45.5436221" lon="10.8554558"><ele>520.6666666666666</ele><time>2026-03-22T08:52:13.96Z</time></trkpt><trkpt lat="45.5435407" lon="10.8555167"><ele>517.3333333333333</ele><time>2026-03-22T08:52:14.963Z</time></trkpt><trkpt lat="45.5434642" lon="10.8555708"><ele>514.0</ele><time>2026-03-22T08:52:15.937Z</time></trkpt><trkpt lat="45.5433935" lon="10.8556133"><ele>510.66666666666663</ele><time>2026-03-22T08:52:16.96Z</time></trkpt><trkpt lat="45.5433091" lon="10.8556799"><ele>507.3333333333333</ele><time>2026-03-22T08:52:18.96Z</time></trkpt><trkpt lat="45.5432208" lon="10.8556569"><ele>504.0</ele><time>2026-03-22T08:52:20.957Z</time></trkpt><trkpt lat="45.543146" lon="10.8556202"><ele>504.0</ele><time>2026-03-22T08:52:21.956Z</time></trkpt><trkpt lat="45.5430642" lon="10.8556116"><ele>504.0</ele><time>2026-03-22T08:52:22.956Z</time></trkpt><trkpt lat="45.5429854" lon="10.8556072"><ele>504.0</ele><time>2026-03-22T08:52:23.959Z</time></trkpt><trkpt lat="45.5429137" lon="10.8555858"><ele>504.0</ele><time>2026-03-22T08:52:24.961Z</time></trkpt><trkpt lat="45.5428132" lon="10.8555065"><ele>504.0</ele><time>2026-03-22T08:52:26.966Z</time></trkpt><trkpt lat="45.5427889" lon="10.8553637"><ele>503.6</ele><time>2026-03-22T08:52:28.969Z</time></trkpt><trkpt lat="45.542746" lon="10.8552522"><ele>503.2</ele><time>2026-03-22T08:52:30.949Z</time></trkpt><trkpt lat="45.5426362" lon="10.8552162"><ele>502.80000000000007</ele><time>2026-03-22T08:52:32.962Z</time></trkpt><trkpt lat="45.5425307" lon="10.8551778"><ele>502.40000000000003</ele><time>2026-03-22T08:52:34.968Z</time></trkpt><trkpt lat="45.5424344" lon="10.8551016"><ele>502.0</ele><time>2026-03-22T08:52:36.959Z</time></trkpt><trkpt lat="45.5423507" lon="10.8550179"><ele>498.5714285714285</ele><time>2026-03-22T08:52:38.948Z</time></trkpt><trkpt lat="45.5422757" lon="10.8549545"><ele>495.1428571428571</ele><time>2026-03-22T08:52:40.96Z</time></trkpt><trkpt lat="45.5422153" lon="10.8548915"><ele>491.7142857142857</ele><time>2026-03-22T08:52:42.964Z</time></trkpt><trkpt lat="45.5422099" lon="10.8547983"><ele>488.2857142857143</ele><time>2026-03-22T08:52:45.956Z</time></trkpt><trkpt lat="45.5422698" lon="10.854744"><ele>484.8571428571429</ele><time>2026-03-22T08:52:47.962Z</time></trkpt><trkpt lat="45.5423247" lon="10.8546986"><ele>481.4285714285715</ele><time>2026-03-22T08:52:49.964Z</time></trkpt><trkpt lat="45.5422627" lon="10.8546223"><ele>478.00000000000006</ele><time>2026-03-22T09:01:49.963Z</time></trkpt><trkpt lat="45.5421983" lon="10.85461"><ele>478.00000000000006</ele><time>2026-03-22T09:01:51.974Z</time></trkpt><trkpt lat="45.5421345" lon="10.8545947"><ele>478.0</ele><time>2026-03-22T09:01:55.955Z</time></trkpt><trkpt lat="45.5420813" lon="10.8545358"><ele>478.00000000000006</ele><time>2026-03-22T09:02:03.962Z</time></trkpt><trkpt lat="45.5420366" lon="10.854466"><ele>478.00000000000006</ele><time>2026-03-22T09:02:07.949Z</time></trkpt><trkpt lat="45.5420848" lon="10.854376"><ele>478.0</ele><time>2026-03-22T09:02:11.968Z</time></trkpt><trkpt lat="45.542085" lon="10.8542657"><ele>478.00000000000006</ele><time>2026-03-22T09:02:13.952Z</time></trkpt><trkpt lat="45.5420262" lon="10.8542063"><ele>478.00000000000006</ele><time>2026-03-22T09:02:15.954Z</time></trkpt><trkpt lat="45.5419613" lon="10.8541807"><ele>474.00000000000006</ele><time>2026-03-22T09:02:16.965Z</time></trkpt><trkpt lat="45.5418962" lon="10.8541561"><ele>470.0</ele><time>2026-03-22T09:02:17.96Z</time></trkpt><trkpt lat="45.541802" lon="10.8540803"><ele>466.0</ele><time>2026-03-22T09:02:19.954Z</time></trkpt><trkpt lat="45.5417742" lon="10.8539882"><ele>462.0</ele><time>2026-03-22T09:02:22.953Z</time></trkpt><trkpt lat="45.5418281" lon="10.8538557"><ele>458.00000000000006</ele><time>2026-03-22T09:02:24.965Z</time></trkpt><trkpt lat="45.5418488" lon="10.8537679"><ele>454.0</ele><time>2026-03-22T09:02:25.965Z</time></trkpt><trkpt lat="45.5418692" lon="10.8536794"><ele>454.0</ele><time>2026-03-22T09:02:26.968Z</time></trkpt><trkpt lat="45.5418806" lon="10.853528"><ele>454.0</ele><time>2026-03-22T09:02:28.957Z</time></trkpt><trkpt lat="45.5418071" lon="10.8534108"><ele>454.0</ele><time>2026-03-22T09:02:30.961Z</time></trkpt><trkpt lat="45.5417197" lon="10.8533551"><ele>454.0</ele><time>2026-03-22T09:02:32.96Z</time></trkpt><trkpt lat="45.541627" lon="10.8534067"><ele>454.0</ele><time>2026-03-22T09:02:35.956Z</time></trkpt><trkpt lat="45.541557" lon="10.8533822"><ele>452.14285714285717</ele><time>2026-03-22T09:02:37.969Z</time></trkpt><trkpt lat="45.5415269" lon="10.8532887"><ele>450.28571428571433</ele><time>2026-03-22T09:02:57.957Z</time></trkpt><trkpt lat="45.5416112" lon="10.8532524"><ele>448.42857142857144</ele><time>2026-03-22T09:03:00.958Z</time></trkpt><trkpt lat="45.5416716" lon="10.8531824"><ele>446.57142857142856</ele><time>2026-03-22T09:03:02.965Z</time></trkpt><trkpt lat="45.5417153" lon="10.853102"><ele>444.7142857142857</ele><time>2026-03-22T09:03:04.966Z</time></trkpt><trkpt lat="45.5417299" lon="10.8530031"><ele>442.8571428571429</ele><time>2026-03-22T09:03:14.957Z</time></trkpt><trkpt lat="45.5416687" lon="10.852962"><ele>441.0</ele><time>2026-03-22T09:03:18.967Z</time></trkpt><trkpt lat="45.5416536" lon="10.8528662"><ele>441.0</ele><time>2026-03-22T09:03:25.961Z</time></trkpt><trkpt lat="45.5416018" lon="10.8528097"><ele>441.0</ele><time>2026-03-22T09:03:32.94Z</time></trkpt><trkpt lat="45.5416419" lon="10.8527223"><ele>441.0</ele><time>2026-03-22T09:03:44.967Z</time></trkpt><trkpt lat="45.5417145" lon="10.8526923"><ele>441.0</ele><time>2026-03-22T09:04:23.962Z</time></trkpt><trkpt lat="45.5417822" lon="10.8526753"><ele>441.0</ele><time>2026-03-22T09:04:27.96Z</time></trkpt><trkpt lat="45.5418393" lon="10.8525835"><ele>441.0</ele><time>2026-03-22T09:04:36.962Z</time></trkpt><trkpt lat="45.541854" lon="10.8524942"><ele>441.0</ele><time>2026-03-22T09:04:47.96Z</time></trkpt><trkpt lat="45.5418047" lon="10.8524131"><ele>442.8571428571429</ele><time>2026-03-22T09:04:51.972Z</time></trkpt><trkpt lat="45.5417366" lon="10.8523912"><ele>444.7142857142857</ele><time>2026-03-22T09:09:05.967Z</time></trkpt><trkpt lat="45.5416795" lon="10.8523318"><ele>446.57142857142856</ele><time>2026-03-22T09:09:07.962Z</time></trkpt><trkpt lat="45.5416242" lon="10.8522778"><ele>448.42857142857144</ele><time>2026-03-22T09:09:09.957Z</time></trkpt><trkpt lat="45.5415604" lon="10.8522057"><ele>450.28571428571433</ele><time>2026-03-22T09:09:11.967Z</time></trkpt><trkpt lat="45.5415066" lon="10.8521346"><ele>452.14285714285717</ele><time>2026-03-22T09:09:12.961Z</time></trkpt><trkpt lat="45.5414586" lon="10.8520618"><ele>454.0</ele><time>2026-03-22T09:09:13.959Z</time></trkpt><trkpt lat="45.541418" lon="10.8519772"><ele>454.00000000000006</ele><time>2026-03-22T09:09:14.957Z</time></trkpt><trkpt lat="45.5413934" lon="10.8518932"><ele>454.0</ele><time>2026-03-22T09:09:15.955Z</time></trkpt><trkpt lat="45.5413617" lon="10.8518044"><ele>454.0</ele><time>2026-03-22T09:09:16.968Z</time></trkpt><trkpt lat="45.5413189" lon="10.8516581"><ele>454.0</ele><time>2026-03-22T09:09:18.966Z</time></trkpt><trkpt lat="45.5412996" lon="10.8515445"><ele>454.00000000000006</ele><time>2026-03-22T09:09:20.944Z</time></trkpt><trkpt lat="45.5412819" lon="10.8514351"><ele>454.0</ele><time>2026-03-22T09:09:22.933Z</time></trkpt><trkpt lat="45.54126" lon="10.8513263"><ele>452.6666666666667</ele><time>2026-03-22T09:09:24.961Z</time></trkpt><trkpt lat="45.5412293" lon="10.8512064"><ele>451.33333333333337</ele><time>2026-03-22T09:09:26.963Z</time></trkpt><trkpt lat="45.5412155" lon="10.8510962"><ele>450.0</ele><time>2026-03-22T09:09:29.969Z</time></trkpt><trkpt lat="45.5412145" lon="10.8510014"><ele>448.66666666666663</ele><time>2026-03-22T09:09:35.968Z</time></trkpt><trkpt lat="45.5411972" lon="10.8508798"><ele>447.3333333333333</ele><time>2026-03-22T09:09:37.963Z</time></trkpt><trkpt lat="45.5411802" lon="10.8507415"><ele>446.0</ele><time>2026-03-22T09:09:39.965Z</time></trkpt><trkpt lat="45.541168" lon="10.8506185"><ele>445.99999999999994</ele><time>2026-03-22T09:09:41.97Z</time></trkpt><trkpt lat="45.5411743" lon="10.8505175"><ele>446.0</ele><time>2026-03-22T09:09:43.976Z</time></trkpt><trkpt lat="45.5412285" lon="10.8504605"><ele>446.0</ele><time>2026-03-22T09:09:46.041Z</time></trkpt><trkpt lat="45.5412997" lon="10.8504752"><ele>446.0</ele><time>2026-03-22T09:09:47.971Z</time></trkpt><trkpt lat="45.5413866" lon="10.8504926"><ele>445.99999999999994</ele><time>2026-03-22T09:09:49.967Z</time></trkpt><trkpt lat="45.5414614" lon="10.850474"><ele>446.0</ele><time>2026-03-22T09:09:51.974Z</time></trkpt><trkpt lat="45.5415143" lon="10.8503643"><ele>450.8</ele><time>2026-03-22T09:09:54.97Z</time></trkpt><trkpt lat="45.5415354" lon="10.850215"><ele>455.6</ele><time>2026-03-22T09:09:56.954Z</time></trkpt><trkpt lat="45.5415633" lon="10.8500517"><ele>460.4</ele><time>2026-03-22T09:09:58.976Z</time></trkpt><trkpt lat="45.5415934" lon="10.8499049"><ele>465.2</ele><time>2026-03-22T09:10:00.962Z</time></trkpt><trkpt lat="45.5416175" lon="10.8497943"><ele>470.0</ele><time>2026-03-22T09:10:02.977Z</time></trkpt><trkpt lat="45.5416756" lon="10.8498678"><ele>469.99999999999994</ele><time>2026-03-22T09:10:13.965Z</time></trkpt><trkpt lat="45.5416949" lon="10.850027"><ele>470.0</ele><time>2026-03-22T09:10:15.967Z</time></trkpt><trkpt lat="45.5417405" lon="10.8501203"><ele>470.0</ele><time>2026-03-22T09:10:17.962Z</time></trkpt><trkpt lat="45.5418066" lon="10.8500847"><ele>470.0</ele><time>2026-03-22T09:10:21.944Z</time></trkpt><trkpt lat="45.5418332" lon="10.8500011"><ele>469.99999999999994</ele><time>2026-03-22T09:10:25.971Z</time></trkpt><trkpt lat="45.5418271" lon="10.8499044"><ele>470.0</ele><time>2026-03-22T09:11:59.963Z</time></trkpt><trkpt lat="45.5418352" lon="10.8497741"><ele>469.99999999999994</ele><time>2026-03-22T09:12:09.971Z</time></trkpt><trkpt lat="45.5419133" lon="10.8497257"><ele>470.0</ele><time>2026-03-22T09:12:13.975Z</time></trkpt><trkpt lat="45.5420064" lon="10.8496731"><ele>470.0</ele><time>2026-03-22T09:12:16.972Z</time></trkpt><trkpt lat="45.5421168" lon="10.8496211"><ele>470.0</ele><time>2026-03-22T09:12:18.974Z</time></trkpt><trkpt lat="45.5421904" lon="10.8496142"><ele>469.99999999999994</ele><time>2026-03-22T09:12:19.972Z</time></trkpt><trkpt lat="45.5422618" lon="10.8496081"><ele>470.0</ele><time>2026-03-22T09:12:20.965Z</time></trkpt><trkpt lat="45.5423809" lon="10.849604"><ele>474.16666666666663</ele><time>2026-03-22T09:12:22.961Z</time></trkpt><trkpt lat="45.5424687" lon="10.8495779"><ele>478.3333333333333</ele><time>2026-03-22T09:12:24.969Z</time></trkpt><trkpt lat="45.5425484" lon="10.8495904"><ele>482.5</ele><time>2026-03-22T09:12:26.963Z</time></trkpt><trkpt lat="45.5426287" lon="10.8495738"><ele>486.66666666666663</ele><time>2026-03-22T09:12:28.977Z</time></trkpt><trkpt lat="45.5426913" lon="10.8495575"><ele>490.8333333333333</ele><time>2026-03-22T09:12:30.97Z</time></trkpt><trkpt lat="45.5427652" lon="10.8495108"><ele>495.0</ele><time>2026-03-22T09:12:34.97Z</time></trkpt><trkpt lat="45.5428364" lon="10.8495236"><ele>497.5714285714285</ele><time>2026-03-22T09:12:38.964Z</time></trkpt><trkpt lat="45.5429072" lon="10.84955"><ele>500.1428571428571</ele><time>2026-03-22T09:12:41.963Z</time></trkpt><trkpt lat="45.5429747" lon="10.8495781"><ele>502.7142857142857</ele><time>2026-03-22T09:12:43.97Z</time></trkpt><trkpt lat="45.5430449" lon="10.8495804"><ele>505.2857142857143</ele><time>2026-03-22T09:12:46.03Z</time></trkpt><trkpt lat="45.5431168" lon="10.8495875"><ele>507.8571428571429</ele><time>2026-03-22T09:12:48.965Z</time></trkpt><trkpt lat="45.5431651" lon="10.8496682"><ele>510.4285714285715</ele><time>2026-03-22T09:13:22.956Z</time></trkpt><trkpt lat="45.543231" lon="10.849698"><ele>513.0</ele><time>2026-03-22T09:13:25.973Z</time></trkpt><trkpt lat="45.5432869" lon="10.8496552"><ele>513.0</ele><time>2026-03-22T09:13:27.966Z</time></trkpt><trkpt lat="45.5433291" lon="10.849583"><ele>513.0</ele><time>2026-03-22T09:13:29.957Z</time></trkpt><trkpt lat="45.5433947" lon="10.8493654"><ele>513.0</ele><time>2026-03-22T09:13:31.964Z</time></trkpt><trkpt lat="45.5434255" lon="10.8492273"><ele>513.0</ele><time>2026-03-22T09:13:32.971Z</time></trkpt><trkpt lat="45.5434603" lon="10.8490879"><ele>513.0</ele><time>2026-03-22T09:13:33.969Z</time></trkpt><trkpt lat="45.5435012" lon="10.8489631"><ele>511.3333333333333</ele><time>2026-03-22T09:13:34.975Z</time></trkpt><trkpt lat="45.54353" lon="10.8488492"><ele>509.66666666666663</ele><time>2026-03-22T09:13:35.95Z</time></trkpt><trkpt lat="45.5435491" lon="10.8487519"><ele>508.0</ele><time>2026-03-22T09:13:36.967Z</time></trkpt><trkpt lat="45.543571" lon="10.8486583"><ele>506.3333333333333</ele><time>2026-03-22T09:13:37.968Z</time></trkpt><trkpt lat="45.5436059" lon="10.8485021"><ele>504.66666666666663</ele><time>2026-03-22T09:13:39.971Z</time></trkpt><trkpt lat="45.5436127" lon="10.8484026"><ele>503.0</ele><time>2026-03-22T09:13:41.962Z</time></trkpt><trkpt lat="45.543608" lon="10.8483022"><ele>502.3333333333333</ele><time>2026-03-22T09:13:43.95Z</time></trkpt><trkpt lat="45.5436429" lon="10.8481834"><ele>501.66666666666663</ele><time>2026-03-22T09:13:45.968Z</time></trkpt><trkpt lat="45.5437038" lon="10.8480634"><ele>501.0</ele><time>2026-03-22T09:13:47.951Z</time></trkpt><trkpt lat="45.5437395" lon="10.8479523"><ele>500.33333333333337</ele><time>2026-03-22T09:13:49.961Z</time></trkpt><trkpt lat="45.5438177" lon="10.8479191"><ele>499.6666666666667</ele><time>2026-03-22T09:13:51.966Z</time></trkpt><trkpt lat="45.5439032" lon="10.8479136"><ele>499.0</ele><time>2026-03-22T09:13:52.972Z</time></trkpt><trkpt lat="45.5439968" lon="10.8479268"><ele>501.50000000000006</ele><time>2026-03-22T09:13:53.974Z</time></trkpt><trkpt lat="45.5441053" lon="10.8479276"><ele>504.0</ele><time>2026-03-22T09:13:54.975Z</time></trkpt><trkpt lat="45.5442012" lon="10.8479276"><ele>506.5</ele><time>2026-03-22T09:13:56.042Z</time></trkpt><trkpt lat="45.5442746" lon="10.8479299"><ele>509.0</ele><time>2026-03-22T09:13:57.037Z</time></trkpt><trkpt lat="45.5443412" lon="10.84795"><ele>511.50000000000006</ele><time>2026-03-22T09:13:57.948Z</time></trkpt><trkpt lat="45.5444098" lon="10.8479955"><ele>514.0</ele><time>2026-03-22T09:13:58.967Z</time></trkpt><trkpt lat="45.5444826" lon="10.8480455"><ele>515.1666666666667</ele><time>2026-03-22T09:13:59.993Z</time></trkpt><trkpt lat="45.544553" lon="10.8480986"><ele>516.3333333333334</ele><time>2026-03-22T09:14:00.964Z</time></trkpt><trkpt lat="45.5446346" lon="10.8481555"><ele>517.5</ele><time>2026-03-22T09:14:01.971Z</time></trkpt><trkpt lat="45.5447161" lon="10.848196"><ele>518.6666666666666</ele><time>2026-03-22T09:14:02.968Z</time></trkpt><trkpt lat="45.5447947" lon="10.8482442"><ele>519.8333333333333</ele><time>2026-03-22T09:14:03.969Z</time></trkpt><trkpt lat="45.5448725" lon="10.8483034"><ele>521.0</ele><time>2026-03-22T09:14:05.009Z</time></trkpt><trkpt lat="45.5449513" lon="10.8483603"><ele>521.0</ele><time>2026-03-22T09:14:05.971Z</time></trkpt><trkpt lat="45.545028" lon="10.8484058"><ele>521.0</ele><time>2026-03-22T09:14:07.024Z</time></trkpt><trkpt lat="45.5451024" lon="10.8484453"><ele>521.0</ele><time>2026-03-22T09:14:07.969Z</time></trkpt><trkpt lat="45.5451681" lon="10.848498"><ele>521.0</ele><time>2026-03-22T09:14:08.967Z</time></trkpt><trkpt lat="45.5452343" lon="10.8485425"><ele>521.0</ele><time>2026-03-22T09:14:09.967Z</time></trkpt><trkpt lat="45.5453151" lon="10.8485794"><ele>521.0</ele><time>2026-03-22T09:14:11.975Z</time></trkpt><trkpt lat="45.5453669" lon="10.8486518"><ele>523.8333333333333</ele><time>2026-03-22T09:14:18.972Z</time></trkpt><trkpt lat="45.5453899" lon="10.8487732"><ele>526.6666666666666</ele><time>2026-03-22T09:14:22.957Z</time></trkpt><trkpt lat="45.5454309" lon="10.8488721"><ele>529.5</ele><time>2026-03-22T09:14:24.964Z</time></trkpt><trkpt lat="45.5455016" lon="10.8489498"><ele>532.3333333333334</ele><time>2026-03-22T09:14:26.968Z</time></trkpt><trkpt lat="45.5455188" lon="10.8490409"><ele>535.1666666666667</ele><time>2026-03-22T09:14:28.962Z</time></trkpt><trkpt lat="45.5455515" lon="10.8491293"><ele>538.0</ele><time>2026-03-22T09:14:30.965Z</time></trkpt><trkpt lat="45.5455874" lon="10.8492696"><ele>540.1666666666667</ele><time>2026-03-22T09:14:32.953Z</time></trkpt><trkpt lat="45.5456257" lon="10.8493827"><ele>542.3333333333334</ele><time>2026-03-22T09:14:34.957Z</time></trkpt><trkpt lat="45.5456639" lon="10.8494911"><ele>544.5</ele><time>2026-03-22T09:14:36.954Z</time></trkpt><trkpt lat="45.5457008" lon="10.8496461"><ele>546.6666666666666</ele><time>2026-03-22T09:14:38.966Z</time></trkpt><trkpt lat="45.5457557" lon="10.8496992"><ele>548.8333333333333</ele><time>2026-03-22T09:14:40.054Z</time></trkpt><trkpt lat="45.5458198" lon="10.8497339"><ele>551.0</ele><time>2026-03-22T09:14:41.03Z</time></trkpt><trkpt lat="45.5459009" lon="10.8497278"><ele>551.0</ele><time>2026-03-22T09:14:42.025Z</time></trkpt><trkpt lat="45.5460002" lon="10.8496807"><ele>551.0</ele><time>2026-03-22T09:14:42.967Z</time></trkpt><trkpt lat="45.5461076" lon="10.8496306"><ele>551.0</ele><time>2026-03-22T09:14:44.039Z</time></trkpt><trkpt lat="45.5462185" lon="10.8495972"><ele>551.0</ele><time>2026-03-22T09:14:44.965Z</time></trkpt><trkpt lat="45.546311" lon="10.8495577"><ele>551.0</ele><time>2026-03-22T09:14:45.965Z</time></trkpt><trkpt lat="45.5463896" lon="10.849538"><ele>551.6666666666666</ele><time>2026-03-22T09:14:46.968Z</time></trkpt><trkpt lat="45.5464613" lon="10.8495464"><ele>552.3333333333333</ele><time>2026-03-22T09:14:47.968Z</time></trkpt><trkpt lat="45.546537" lon="10.8495706"><ele>553.0</ele><time>2026-03-22T09:14:48.967Z</time></trkpt><trkpt lat="45.5466186" lon="10.8496005"><ele>553.6666666666666</ele><time>2026-03-22T09:14:49.991Z</time></trkpt><trkpt lat="45.5467049" lon="10.8496208"><ele>554.3333333333334</ele><time>2026-03-22T09:14:50.962Z</time></trkpt><trkpt lat="45.5467807" lon="10.8496386"><ele>555.0</ele><time>2026-03-22T09:14:51.986Z</time></trkpt><trkpt lat="45.546844" lon="10.8496588"><ele>555.0</ele><time>2026-03-22T09:14:52.97Z</time></trkpt><trkpt lat="45.5469387" lon="10.8497032"><ele>555.0</ele><time>2026-03-22T09:14:54.961Z</time></trkpt><trkpt lat="45.5469916" lon="10.8497688"><ele>555.0</ele><time>2026-03-22T09:14:57.956Z</time></trkpt><trkpt lat="45.5470255" lon="10.8498661"><ele>555.0</ele><time>2026-03-22T09:15:00.956Z</time></trkpt><trkpt lat="45.5470103" lon="10.8499636"><ele>555.0</ele><time>2026-03-22T09:16:37.964Z</time></trkpt><trkpt lat="45.5470044" lon="10.8500747"><ele>555.0</ele><time>2026-03-22T09:16:40.966Z</time></trkpt><trkpt lat="45.5470293" lon="10.84999"><ele>555.0</ele><time>2026-03-22T09:16:43.971Z</time></trkpt><trkpt lat="45.5470131" lon="10.8498757"><ele>555.0</ele><time>2026-03-22T09:16:45.961Z</time></trkpt><trkpt lat="45.546981" lon="10.849741"><ele>555.0</ele><time>2026-03-22T09:16:47.969Z</time></trkpt><trkpt lat="45.5468805" lon="10.8496667"><ele>555.0</ele><time>2026-03-22T09:16:49.962Z</time></trkpt><trkpt lat="45.5467639" lon="10.8496127"><ele>555.0</ele><time>2026-03-22T09:16:51.97Z</time></trkpt><trkpt lat="45.5466978" lon="10.8495913"><ele>555.0</ele><time>2026-03-22T09:16:52.966Z</time></trkpt><trkpt lat="45.5466288" lon="10.8495836"><ele>555.0</ele><time>2026-03-22T09:16:53.968Z</time></trkpt><trkpt lat="45.546564" lon="10.8495797"><ele>555.0</ele><time>2026-03-22T09:16:54.965Z</time></trkpt><trkpt lat="45.5465026" lon="10.8495596"><ele>555.0</ele><time>2026-03-22T09:16:55.974Z</time></trkpt><trkpt lat="45.546374" lon="10.8495458"><ele>555.0</ele><time>2026-03-22T09:16:57.993Z</time></trkpt><trkpt lat="45.5462983" lon="10.8495611"><ele>555.0</ele><time>2026-03-22T09:16:58.953Z</time></trkpt><trkpt lat="45.5462337" lon="10.8495784"><ele>554.3333333333334</ele><time>2026-03-22T09:16:59.954Z</time></trkpt><trkpt lat="45.5461509" lon="10.8495939"><ele>553.6666666666666</ele><time>2026-03-22T09:17:01.974Z</time></trkpt><trkpt lat="45.5460698" lon="10.8496192"><ele>553.0</ele><time>2026-03-22T09:17:03.97Z</time></trkpt><trkpt lat="45.5459892" lon="10.8496729"><ele>552.3333333333333</ele><time>2026-03-22T09:17:04.969Z</time></trkpt><trkpt lat="45.5459173" lon="10.8496999"><ele>551.6666666666666</ele><time>2026-03-22T09:17:05.969Z</time></trkpt><trkpt lat="45.5458087" lon="10.849721"><ele>551.0</ele><time>2026-03-22T09:17:07.968Z</time></trkpt><trkpt lat="45.5457277" lon="10.8496715"><ele>551.0</ele><time>2026-03-22T09:17:09.971Z</time></trkpt><trkpt lat="45.5456635" lon="10.8495765"><ele>551.0</ele><time>2026-03-22T09:17:11.979Z</time></trkpt><trkpt lat="45.5456261" lon="10.8494169"><ele>551.0</ele><time>2026-03-22T09:17:13.95Z</time></trkpt><trkpt lat="45.5455782" lon="10.8492704"><ele>551.0</ele><time>2026-03-22T09:17:15.975Z</time></trkpt><trkpt lat="45.54554" lon="10.8491349"><ele>551.0</ele><time>2026-03-22T09:17:17.965Z</time></trkpt><trkpt lat="45.5455075" lon="10.8490289"><ele>548.8333333333333</ele><time>2026-03-22T09:17:19.974Z</time></trkpt><trkpt lat="45.5454822" lon="10.8489352"><ele>546.6666666666666</ele><time>2026-03-22T09:17:21.97Z</time></trkpt><trkpt lat="45.5454236" lon="10.8488357"><ele>544.5</ele><time>2026-03-22T09:17:24.944Z</time></trkpt><trkpt lat="45.5453719" lon="10.8487625"><ele>542.3333333333334</ele><time>2026-03-22T09:17:26.995Z</time></trkpt><trkpt lat="45.5453645" lon="10.8486668"><ele>540.1666666666667</ele><time>2026-03-22T09:17:28.965Z</time></trkpt><trkpt lat="45.5453303" lon="10.8485662"><ele>538.0</ele><time>2026-03-22T09:17:31.979Z</time></trkpt><trkpt lat="45.5452287" lon="10.848507"><ele>537.0</ele><time>2026-03-22T09:17:33.966Z</time></trkpt><trkpt lat="45.5451601" lon="10.8484705"><ele>536.0</ele><time>2026-03-22T09:17:34.967Z</time></trkpt><trkpt lat="45.5450984" lon="10.8484356"><ele>535.0</ele><time>2026-03-22T09:17:35.976Z</time></trkpt><trkpt lat="45.5449896" lon="10.8483561"><ele>534.0</ele><time>2026-03-22T09:17:37.968Z</time></trkpt><trkpt lat="45.5449291" lon="10.8483222"><ele>533.0</ele><time>2026-03-22T09:17:38.968Z</time></trkpt><trkpt lat="45.5448128" lon="10.8482496"><ele>531.0</ele><time>2026-03-22T09:17:40.961Z</time></trkpt><trkpt lat="45.5447525" lon="10.8482121"><ele>529.0</ele><time>2026-03-22T09:17:41.964Z</time></trkpt><trkpt lat="45.5446588" lon="10.8481525"><ele>527.0</ele><time>2026-03-22T09:17:43.956Z</time></trkpt><trkpt lat="45.5445823" lon="10.848112"><ele>525.0</ele><time>2026-03-22T09:17:45.973Z</time></trkpt><trkpt lat="45.5445046" lon="10.8480615"><ele>523.0</ele><time>2026-03-22T09:17:47.965Z</time></trkpt><trkpt lat="45.5444476" lon="10.848023"><ele>521.0</ele><time>2026-03-22T09:18:22.967Z</time></trkpt><trkpt lat="45.5443736" lon="10.8479735"><ele>519.8333333333333</ele><time>2026-03-22T09:18:26.971Z</time></trkpt><trkpt lat="45.5443069" lon="10.8479348"><ele>518.6666666666666</ele><time>2026-03-22T09:18:28.968Z</time></trkpt><trkpt lat="45.5442348" lon="10.8479162"><ele>517.5</ele><time>2026-03-22T09:18:30.968Z</time></trkpt><trkpt lat="45.5441249" lon="10.8479253"><ele>516.3333333333334</ele><time>2026-03-22T09:18:32.976Z</time></trkpt><trkpt lat="45.5440154" lon="10.8479354"><ele>515.1666666666667</ele><time>2026-03-22T09:18:34.968Z</time></trkpt><trkpt lat="45.5439319" lon="10.8479339"><ele>514.0</ele><time>2026-03-22T09:18:36.971Z</time></trkpt><trkpt lat="45.5440128" lon="10.847945"><ele>514.0</ele><time>2026-03-22T09:18:42.977Z</time></trkpt><trkpt lat="45.544122" lon="10.8479238"><ele>514.0</ele><time>2026-03-22T09:18:44.965Z</time></trkpt><trkpt lat="45.5442351" lon="10.8479252"><ele>514.0</ele><time>2026-03-22T09:18:46.96Z</time></trkpt><trkpt lat="45.544321" lon="10.8479501"><ele>514.0</ele><time>2026-03-22T09:18:48.972Z</time></trkpt><trkpt lat="45.5443884" lon="10.8479899"><ele>514.0</ele><time>2026-03-22T09:18:50.969Z</time></trkpt><trkpt lat="45.5444512" lon="10.8480354"><ele>514.0</ele><time>2026-03-22T09:22:56.97Z</time></trkpt><trkpt lat="45.5445395" lon="10.8480847"><ele>514.0</ele><time>2026-03-22T09:23:13.969Z</time></trkpt><trkpt lat="45.5446432" lon="10.8481446"><ele>514.0</ele><time>2026-03-22T09:23:15.973Z</time></trkpt><trkpt lat="45.5447364" lon="10.8482036"><ele>514.0</ele><time>2026-03-22T09:23:17.969Z</time></trkpt><trkpt lat="45.5448485" lon="10.8482775"><ele>514.0</ele><time>2026-03-22T09:23:19.971Z</time></trkpt><trkpt lat="45.5449112" lon="10.8483126"><ele>515.4</ele><time>2026-03-22T09:23:20.965Z</time></trkpt><trkpt lat="45.5450074" lon="10.8483871"><ele>516.8</ele><time>2026-03-22T09:23:22.978Z</time></trkpt><trkpt lat="45.5450755" lon="10.8484363"><ele>518.2</ele><time>2026-03-22T09:23:24.969Z</time></trkpt><trkpt lat="45.5451613" lon="10.8484892"><ele>519.6</ele><time>2026-03-22T09:23:26.978Z</time></trkpt><trkpt lat="45.5452669" lon="10.8485356"><ele>521.0</ele><time>2026-03-22T09:23:29.03Z</time></trkpt><trkpt lat="45.545337" lon="10.8485786"><ele>523.0</ele><time>2026-03-22T09:23:31.973Z</time></trkpt><trkpt lat="45.5453612" lon="10.8486664"><ele>525.0</ele><time>2026-03-22T09:23:33.96Z</time></trkpt><trkpt lat="45.5453765" lon="10.8487619"><ele>527.0</ele><time>2026-03-22T09:23:35.997Z</time></trkpt><trkpt lat="45.5454325" lon="10.8488928"><ele>529.0</ele><time>2026-03-22T09:23:39.05Z</time></trkpt><trkpt lat="45.5454751" lon="10.8490157"><ele>531.0</ele><time>2026-03-22T09:23:41.972Z</time></trkpt><trkpt lat="45.5455123" lon="10.8491395"><ele>533.0</ele><time>2026-03-22T09:23:43.975Z</time></trkpt><trkpt lat="45.5455516" lon="10.849233"><ele>536.0</ele><time>2026-03-22T09:23:45.977Z</time></trkpt><trkpt lat="45.5455878" lon="10.8493164"><ele>539.0</ele><time>2026-03-22T09:23:47.974Z</time></trkpt><trkpt lat="45.5456215" lon="10.8494164"><ele>542.0</ele><time>2026-03-22T09:23:49.99Z</time></trkpt><trkpt lat="45.5456494" lon="10.8495231"><ele>545.0</ele><time>2026-03-22T09:23:51.976Z</time></trkpt><trkpt lat="45.5456976" lon="10.8496256"><ele>548.0</ele><time>2026-03-22T09:23:53.967Z</time></trkpt><trkpt lat="45.5457976" lon="10.8497019"><ele>551.0</ele><time>2026-03-22T09:23:55.973Z</time></trkpt><trkpt lat="45.5458935" lon="10.8497095"><ele>551.0</ele><time>2026-03-22T09:23:57.981Z</time></trkpt><trkpt lat="45.5459641" lon="10.8496654"><ele>551.0</ele><time>2026-03-22T09:23:59.982Z</time></trkpt><trkpt lat="45.5460516" lon="10.8496445"><ele>551.0</ele><time>2026-03-22T09:24:28.978Z</time></trkpt><trkpt lat="45.5461394" lon="10.8496055"><ele>551.0</ele><time>2026-03-22T09:24:29.97Z</time></trkpt><trkpt lat="45.5462472" lon="10.8495723"><ele>551.0</ele><time>2026-03-22T09:24:30.983Z</time></trkpt><trkpt lat="45.546346" lon="10.849546"><ele>551.8</ele><time>2026-03-22T09:24:31.982Z</time></trkpt><trkpt lat="45.5464312" lon="10.8495286"><ele>552.6</ele><time>2026-03-22T09:24:32.977Z</time></trkpt><trkpt lat="45.5465173" lon="10.8495402"><ele>553.4</ele><time>2026-03-22T09:24:33.994Z</time></trkpt><trkpt lat="45.5466045" lon="10.8495837"><ele>554.2</ele><time>2026-03-22T09:24:34.985Z</time></trkpt><trkpt lat="45.5467043" lon="10.8496042"><ele>555.0</ele><time>2026-03-22T09:24:35.992Z</time></trkpt><trkpt lat="45.5468069" lon="10.8496294"><ele>555.0</ele><time>2026-03-22T09:24:36.987Z</time></trkpt><trkpt lat="45.546894" lon="10.8496543"><ele>555.0</ele><time>2026-03-22T09:24:37.977Z</time></trkpt><trkpt lat="45.5469643" lon="10.8496783"><ele>555.0</ele><time>2026-03-22T09:24:38.974Z</time></trkpt><trkpt lat="45.547033" lon="10.8497958"><ele>555.0</ele><time>2026-03-22T09:24:40.982Z</time></trkpt><trkpt lat="45.5470429" lon="10.8498961"><ele>555.0</ele><time>2026-03-22T09:24:41.982Z</time></trkpt><trkpt lat="45.54704" lon="10.8500087"><ele>555.0</ele><time>2026-03-22T09:24:42.968Z</time></trkpt><trkpt lat="45.54703" lon="10.8501469"><ele>557.6</ele><time>2026-03-22T09:24:43.978Z</time></trkpt><trkpt lat="45.5470019" lon="10.8503035"><ele>560.2</ele><time>2026-03-22T09:24:44.986Z</time></trkpt><trkpt lat="45.5469787" lon="10.8504249"><ele>562.8</ele><time>2026-03-22T09:24:45.971Z</time></trkpt><trkpt lat="45.5469711" lon="10.8505385"><ele>565.4</ele><time>2026-03-22T09:24:46.976Z</time></trkpt><trkpt lat="45.5469647" lon="10.8506866"><ele>568.0</ele><time>2026-03-22T09:24:48.984Z</time></trkpt><trkpt lat="45.5469987" lon="10.8508147"><ele>568.3333333333334</ele><time>2026-03-22T09:24:50.98Z</time></trkpt><trkpt lat="45.5470548" lon="10.8509344"><ele>568.6666666666667</ele><time>2026-03-22T09:24:52.974Z</time></trkpt><trkpt lat="45.5471251" lon="10.8509483"><ele>569.0</ele><time>2026-03-22T09:24:54.98Z</time></trkpt><trkpt lat="45.5472033" lon="10.8509758"><ele>569.3333333333334</ele><time>2026-03-22T09:24:56.982Z</time></trkpt><trkpt lat="45.5472847" lon="10.8509928"><ele>569.6666666666666</ele><time>2026-03-22T09:24:58.97Z</time></trkpt><trkpt lat="45.5473661" lon="10.8510348"><ele>570.0</ele><time>2026-03-22T09:25:00.961Z</time></trkpt><trkpt lat="45.5474907" lon="10.8510883"><ele>571.5</ele><time>2026-03-22T09:25:02.978Z</time></trkpt><trkpt lat="45.5475933" lon="10.8511646"><ele>573.0</ele><time>2026-03-22T09:25:05.038Z</time></trkpt><trkpt lat="45.5476402" lon="10.8512294"><ele>574.5</ele><time>2026-03-22T09:25:06.03Z</time></trkpt><trkpt lat="45.5476583" lon="10.8513588"><ele>576.0</ele><time>2026-03-22T09:25:07.974Z</time></trkpt><trkpt lat="45.5476531" lon="10.8514693"><ele>577.5</ele><time>2026-03-22T09:25:09.951Z</time></trkpt><trkpt lat="45.5476484" lon="10.8515834"><ele>579.0</ele><time>2026-03-22T09:25:11.968Z</time></trkpt><trkpt lat="45.5476557" lon="10.8516947"><ele>579.4</ele><time>2026-03-22T09:25:13.976Z</time></trkpt><trkpt lat="45.5477035" lon="10.8518355"><ele>579.8</ele><time>2026-03-22T09:25:15.967Z</time></trkpt><trkpt lat="45.5477289" lon="10.8519464"><ele>580.2</ele><time>2026-03-22T09:25:17.987Z</time></trkpt><trkpt lat="45.5477599" lon="10.8520898"><ele>580.6</ele><time>2026-03-22T09:25:19.981Z</time></trkpt><trkpt lat="45.5477824" lon="10.8522102"><ele>581.0</ele><time>2026-03-22T09:25:21.973Z</time></trkpt><trkpt lat="45.5478197" lon="10.8523049"><ele>581.0</ele><time>2026-03-22T09:25:23.984Z</time></trkpt><trkpt lat="45.5478805" lon="10.8523853"><ele>581.0</ele><time>2026-03-22T09:25:27.023Z</time></trkpt><trkpt lat="45.5479253" lon="10.8524806"><ele>581.0</ele><time>2026-03-22T09:25:29.979Z</time></trkpt><trkpt lat="45.5479387" lon="10.8525779"><ele>581.0</ele><time>2026-03-22T09:25:31.978Z</time></trkpt><trkpt lat="45.5479522" lon="10.8526767"><ele>581.0</ele><time>2026-03-22T09:25:33.982Z</time></trkpt><trkpt lat="45.5479876" lon="10.8527788"><ele>581.0</ele><time>2026-03-22T09:25:36.02Z</time></trkpt><trkpt lat="45.5480259" lon="10.8528833"><ele>581.6666666666666</ele><time>2026-03-22T09:25:37.991Z</time></trkpt><trkpt lat="45.5480513" lon="10.8530184"><ele>582.3333333333333</ele><time>2026-03-22T09:25:39.976Z</time></trkpt><trkpt lat="45.5480644" lon="10.8531079"><ele>583.0</ele><time>2026-03-22T09:25:40.97Z</time></trkpt><trkpt lat="45.5480743" lon="10.8532398"><ele>583.6666666666666</ele><time>2026-03-22T09:25:41.981Z</time></trkpt><trkpt lat="45.5480773" lon="10.8533685"><ele>584.3333333333334</ele><time>2026-03-22T09:25:42.992Z</time></trkpt><trkpt lat="45.5480744" lon="10.8534599"><ele>585.0</ele><time>2026-03-22T09:25:43.972Z</time></trkpt><trkpt lat="45.5480631" lon="10.8535928"><ele>585.6666666666666</ele><time>2026-03-22T09:25:45.051Z</time></trkpt><trkpt lat="45.5480535" lon="10.8537087"><ele>586.3333333333334</ele><time>2026-03-22T09:25:46.028Z</time></trkpt><trkpt lat="45.548062" lon="10.8538158"><ele>587.0</ele><time>2026-03-22T09:25:47.022Z</time></trkpt><trkpt lat="45.5480818" lon="10.853906"><ele>587.6666666666667</ele><time>2026-03-22T09:25:47.979Z</time></trkpt><trkpt lat="45.5481612" lon="10.8540226"><ele>588.3333333333334</ele><time>2026-03-22T09:25:49.975Z</time></trkpt><trkpt lat="45.5482309" lon="10.8541114"><ele>589.0</ele><time>2026-03-22T09:25:51.98Z</time></trkpt><trkpt lat="45.5483144" lon="10.8542117"><ele>589.0</ele><time>2026-03-22T09:25:53.976Z</time></trkpt><trkpt lat="45.5483562" lon="10.8542818"><ele>589.0</ele><time>2026-03-22T09:25:55.045Z</time></trkpt><trkpt lat="45.5484037" lon="10.8543731"><ele>589.0</ele><time>2026-03-22T09:25:56.046Z</time></trkpt><trkpt lat="45.5484593" lon="10.8544694"><ele>589.0</ele><time>2026-03-22T09:25:57.051Z</time></trkpt><trkpt lat="45.5485087" lon="10.8545579"><ele>589.0</ele><time>2026-03-22T09:25:57.974Z</time></trkpt><trkpt lat="45.5485643" lon="10.8546411"><ele>589.0</ele><time>2026-03-22T09:25:58.987Z</time></trkpt><trkpt lat="45.548624" lon="10.8547234"><ele>589.8</ele><time>2026-03-22T09:26:00.001Z</time></trkpt><trkpt lat="45.548694" lon="10.854805"><ele>590.5999999999999</ele><time>2026-03-22T09:26:01.032Z</time></trkpt><trkpt lat="45.5487722" lon="10.8548688"><ele>591.4</ele><time>2026-03-22T09:26:02.035Z</time></trkpt><trkpt lat="45.548868" lon="10.8549299"><ele>592.1999999999999</ele><time>2026-03-22T09:26:02.979Z</time></trkpt><trkpt lat="45.5489533" lon="10.8549855"><ele>593.0</ele><time>2026-03-22T09:26:03.983Z</time></trkpt><trkpt lat="45.5490381" lon="10.8550395"><ele>594.6666666666666</ele><time>2026-03-22T09:26:04.991Z</time></trkpt><trkpt lat="45.5491071" lon="10.8550798"><ele>596.3333333333333</ele><time>2026-03-22T09:26:06.057Z</time></trkpt><trkpt lat="45.5491687" lon="10.8551321"><ele>598.0</ele><time>2026-03-22T09:26:07.035Z</time></trkpt><trkpt lat="45.5492231" lon="10.8552068"><ele>599.6666666666666</ele><time>2026-03-22T09:26:07.95Z</time></trkpt><trkpt lat="45.5492748" lon="10.8553042"><ele>601.3333333333334</ele><time>2026-03-22T09:26:08.975Z</time></trkpt><trkpt lat="45.5493294" lon="10.8554245"><ele>603.0</ele><time>2026-03-22T09:26:09.959Z</time></trkpt><trkpt lat="45.5493886" lon="10.8555519"><ele>604.8333333333334</ele><time>2026-03-22T09:26:11.032Z</time></trkpt><trkpt lat="45.5494563" lon="10.8556622"><ele>606.6666666666666</ele><time>2026-03-22T09:26:12.033Z</time></trkpt><trkpt lat="45.5495216" lon="10.8557691"><ele>608.5</ele><time>2026-03-22T09:26:12.96Z</time></trkpt><trkpt lat="45.549578" lon="10.8558674"><ele>610.3333333333333</ele><time>2026-03-22T09:26:14.038Z</time></trkpt><trkpt lat="45.5496306" lon="10.8559577"><ele>612.1666666666666</ele><time>2026-03-22T09:26:15.05Z</time></trkpt><trkpt lat="45.5496784" lon="10.8560293"><ele>614.0</ele><time>2026-03-22T09:26:16.04Z</time></trkpt><trkpt lat="45.5497433" lon="10.856151"><ele>616.0</ele><time>2026-03-22T09:26:17.964Z</time></trkpt><trkpt lat="45.5497866" lon="10.8562467"><ele>618.0</ele><time>2026-03-22T09:26:19.967Z</time></trkpt><trkpt lat="45.549843" lon="10.8561886"><ele>620.0</ele><time>2026-03-22T09:26:21.968Z</time></trkpt><trkpt lat="45.5499561" lon="10.8560578"><ele>622.0</ele><time>2026-03-22T09:26:23.973Z</time></trkpt><trkpt lat="45.5500334" lon="10.8559781"><ele>624.0</ele><time>2026-03-22T09:26:24.964Z</time></trkpt><trkpt lat="45.5501323" lon="10.8559084"><ele>624.0</ele><time>2026-03-22T09:26:25.969Z</time></trkpt><trkpt lat="45.5502332" lon="10.8558335"><ele>624.0</ele><time>2026-03-22T09:26:26.963Z</time></trkpt><trkpt lat="45.5503149" lon="10.8557642"><ele>624.0</ele><time>2026-03-22T09:26:27.962Z</time></trkpt><trkpt lat="45.5503845" lon="10.8557163"><ele>624.0</ele><time>2026-03-22T09:26:28.969Z</time></trkpt><trkpt lat="45.5504643" lon="10.8556721"><ele>624.0</ele><time>2026-03-22T09:26:29.964Z</time></trkpt><trkpt lat="45.5505646" lon="10.8556128"><ele>625.0</ele><time>2026-03-22T09:26:30.958Z</time></trkpt><trkpt lat="45.5506787" lon="10.8555512"><ele>626.0</ele><time>2026-03-22T09:26:31.962Z</time></trkpt><trkpt lat="45.5507922" lon="10.8554989"><ele>627.0</ele><time>2026-03-22T09:26:32.961Z</time></trkpt><trkpt lat="45.5509021" lon="10.8554595"><ele>628.0</ele><time>2026-03-22T09:26:33.962Z</time></trkpt><trkpt lat="45.5510069" lon="10.8554331"><ele>628.0</ele><time>2026-03-22T09:26:34.959Z</time></trkpt><trkpt lat="45.5511119" lon="10.8554114"><ele>628.0</ele><time>2026-03-22T09:26:35.964Z</time></trkpt><trkpt lat="45.5512142" lon="10.8554144"><ele>628.0</ele><time>2026-03-22T09:26:36.962Z</time></trkpt><trkpt lat="45.5513098" lon="10.8554394"><ele>628.0</ele><time>2026-03-22T09:26:37.965Z</time></trkpt><trkpt lat="45.5514006" lon="10.8554786"><ele>628.0</ele><time>2026-03-22T09:26:38.963Z</time></trkpt><trkpt lat="45.551483" lon="10.8555315"><ele>628.4</ele><time>2026-03-22T09:26:39.968Z</time></trkpt><trkpt lat="45.5515392" lon="10.8555827"><ele>628.8</ele><time>2026-03-22T09:26:40.962Z</time></trkpt><trkpt lat="45.5515623" lon="10.8556951"><ele>629.2</ele><time>2026-03-22T09:26:42.964Z</time></trkpt><trkpt lat="45.5515379" lon="10.8558938"><ele>629.6</ele><time>2026-03-22T09:26:44.961Z</time></trkpt><trkpt lat="45.5515245" lon="10.8560303"><ele>630.0</ele><time>2026-03-22T09:26:45.962Z</time></trkpt><trkpt lat="45.5515146" lon="10.8561684"><ele>632.4</ele><time>2026-03-22T09:26:46.967Z</time></trkpt><trkpt lat="45.5515071" lon="10.8563073"><ele>634.8</ele><time>2026-03-22T09:26:47.956Z</time></trkpt><trkpt lat="45.5514898" lon="10.8564519"><ele>637.2</ele><time>2026-03-22T09:26:48.954Z</time></trkpt><trkpt lat="45.5514734" lon="10.8566103"><ele>639.6</ele><time>2026-03-22T09:26:49.959Z</time></trkpt><trkpt lat="45.5514465" lon="10.8567972"><ele>642.0</ele><time>2026-03-22T09:26:50.956Z</time></trkpt><trkpt lat="45.551425" lon="10.8569747"><ele>643.5</ele><time>2026-03-22T09:26:51.975Z</time></trkpt><trkpt lat="45.5514194" lon="10.8570921"><ele>645.0</ele><time>2026-03-22T09:26:52.97Z</time></trkpt><trkpt lat="45.5514807" lon="10.8571842"><ele>646.5</ele><time>2026-03-22T09:26:54.969Z</time></trkpt><trkpt lat="45.5515473" lon="10.8572002"><ele>648.0</ele><time>2026-03-22T09:26:55.965Z</time></trkpt><trkpt lat="45.5516276" lon="10.8572167"><ele>649.5</ele><time>2026-03-22T09:26:56.968Z</time></trkpt><trkpt lat="45.5516955" lon="10.857279"><ele>651.0</ele><time>2026-03-22T09:26:57.962Z</time></trkpt><trkpt lat="45.5517668" lon="10.8573667"><ele>651.0</ele><time>2026-03-22T09:26:58.966Z</time></trkpt><trkpt lat="45.5518254" lon="10.8574775"><ele>651.0</ele><time>2026-03-22T09:26:59.96Z</time></trkpt><trkpt lat="45.5518848" lon="10.8575991"><ele>651.0</ele><time>2026-03-22T09:27:00.962Z</time></trkpt><trkpt lat="45.5519564" lon="10.8577054"><ele>651.0</ele><time>2026-03-22T09:27:01.961Z</time></trkpt><trkpt lat="45.5520179" lon="10.857818"><ele>651.0</ele><time>2026-03-22T09:27:02.96Z</time></trkpt><trkpt lat="45.5520914" lon="10.8579268"><ele>650.5999999999999</ele><time>2026-03-22T09:27:03.96Z</time></trkpt><trkpt lat="45.5521784" lon="10.8580231"><ele>650.2</ele><time>2026-03-22T09:27:04.962Z</time></trkpt><trkpt lat="45.5522577" lon="10.8581062"><ele>649.8</ele><time>2026-03-22T09:27:05.961Z</time></trkpt><trkpt lat="45.5523348" lon="10.8581931"><ele>649.4000000000001</ele><time>2026-03-22T09:27:06.962Z</time></trkpt><trkpt lat="45.5524018" lon="10.8582909"><ele>649.0</ele><time>2026-03-22T09:27:07.97Z</time></trkpt><trkpt lat="45.5524585" lon="10.8583931"><ele>647.6666666666667</ele><time>2026-03-22T09:27:08.965Z</time></trkpt><trkpt lat="45.5525088" lon="10.8584791"><ele>646.3333333333334</ele><time>2026-03-22T09:27:09.964Z</time></trkpt><trkpt lat="45.552527" lon="10.8585873"><ele>645.0</ele><time>2026-03-22T09:27:11.96Z</time></trkpt><trkpt lat="45.5524983" lon="10.8586843"><ele>643.6666666666666</ele><time>2026-03-22T09:27:12.956Z</time></trkpt><trkpt lat="45.5524785" lon="10.8587969"><ele>642.3333333333333</ele><time>2026-03-22T09:27:13.965Z</time></trkpt><trkpt lat="45.5524668" lon="10.8589078"><ele>641.0</ele><time>2026-03-22T09:27:14.943Z</time></trkpt><trkpt lat="45.5524591" lon="10.8590143"><ele>641.0</ele><time>2026-03-22T09:27:15.969Z</time></trkpt><trkpt lat="45.5524554" lon="10.8591158"><ele>641.0</ele><time>2026-03-22T09:27:16.968Z</time></trkpt><trkpt lat="45.5524649" lon="10.8592227"><ele>641.0</ele><time>2026-03-22T09:27:17.966Z</time></trkpt><trkpt lat="45.5524824" lon="10.8593334"><ele>641.0</ele><time>2026-03-22T09:27:18.95Z</time></trkpt><trkpt lat="45.5525141" lon="10.8594372"><ele>641.0</ele><time>2026-03-22T09:27:19.955Z</time></trkpt><trkpt lat="45.5525591" lon="10.8595332"><ele>641.0</ele><time>2026-03-22T09:27:20.982Z</time></trkpt><trkpt lat="45.552604" lon="10.8596372"><ele>637.1999999999999</ele><time>2026-03-22T09:27:21.973Z</time></trkpt><trkpt lat="45.5526469" lon="10.8597491"><ele>633.4</ele><time>2026-03-22T09:27:22.964Z</time></trkpt><trkpt lat="45.5526801" lon="10.8598698"><ele>629.6</ele><time>2026-03-22T09:27:23.951Z</time></trkpt><trkpt lat="45.5527092" lon="10.860001"><ele>625.8</ele><time>2026-03-22T09:27:24.962Z</time></trkpt><trkpt lat="45.5527478" lon="10.8601234"><ele>622.0</ele><time>2026-03-22T09:27:25.964Z</time></trkpt><trkpt lat="45.5528046" lon="10.8602423"><ele>623.0</ele><time>2026-03-22T09:27:26.957Z</time></trkpt><trkpt lat="45.5528693" lon="10.8603565"><ele>624.0</ele><time>2026-03-22T09:27:27.961Z</time></trkpt><trkpt lat="45.5529234" lon="10.860421"><ele>625.0</ele><time>2026-03-22T09:27:28.964Z</time></trkpt><trkpt lat="45.5529994" lon="10.860452"><ele>626.0</ele><time>2026-03-22T09:27:30.963Z</time></trkpt><trkpt lat="45.5531117" lon="10.8603834"><ele>627.0</ele><time>2026-03-22T09:27:32.944Z</time></trkpt><trkpt lat="45.5532016" lon="10.8603255"><ele>627.0</ele><time>2026-03-22T09:27:33.956Z</time></trkpt><trkpt lat="45.5533015" lon="10.8602423"><ele>627.0</ele><time>2026-03-22T09:27:34.963Z</time></trkpt><trkpt lat="45.5533879" lon="10.8601719"><ele>627.0</ele><time>2026-03-22T09:27:35.968Z</time></trkpt><trkpt lat="45.5534567" lon="10.8600993"><ele>627.0</ele><time>2026-03-22T09:27:36.97Z</time></trkpt><trkpt lat="45.5535365" lon="10.86003"><ele>627.0</ele><time>2026-03-22T09:27:37.95Z</time></trkpt><trkpt lat="45.5536151" lon="10.8599662"><ele>627.1666666666666</ele><time>2026-03-22T09:27:38.945Z</time></trkpt><trkpt lat="45.5536913" lon="10.8599558"><ele>627.3333333333334</ele><time>2026-03-22T09:27:39.968Z</time></trkpt><trkpt lat="45.5537629" lon="10.8599916"><ele>627.5</ele><time>2026-03-22T09:27:40.955Z</time></trkpt><trkpt lat="45.5538301" lon="10.8600515"><ele>627.6666666666667</ele><time>2026-03-22T09:27:41.957Z</time></trkpt><trkpt lat="45.553896" lon="10.8601615"><ele>627.8333333333334</ele><time>2026-03-22T09:27:42.962Z</time></trkpt><trkpt lat="45.5539535" lon="10.8602869"><ele>628.0</ele><time>2026-03-22T09:27:43.947Z</time></trkpt><trkpt lat="45.5540157" lon="10.8604297"><ele>628.1999999999999</ele><time>2026-03-22T09:27:44.954Z</time></trkpt><trkpt lat="45.5540725" lon="10.8605541"><ele>628.4</ele><time>2026-03-22T09:27:45.965Z</time></trkpt><trkpt lat="45.5541471" lon="10.8606357"><ele>628.5999999999999</ele><time>2026-03-22T09:27:46.968Z</time></trkpt><trkpt lat="45.5542235" lon="10.860693"><ele>628.8</ele><time>2026-03-22T09:27:47.961Z</time></trkpt><trkpt lat="45.5543193" lon="10.8607138"><ele>629.0</ele><time>2026-03-22T09:27:48.949Z</time></trkpt><trkpt lat="45.5544132" lon="10.8607056"><ele>629.0</ele><time>2026-03-22T09:27:49.946Z</time></trkpt><trkpt lat="45.5544935" lon="10.8606805"><ele>629.0</ele><time>2026-03-22T09:27:50.969Z</time></trkpt><trkpt lat="45.5545565" lon="10.8606847"><ele>629.0</ele><time>2026-03-22T09:27:51.96Z</time></trkpt><trkpt lat="45.5546116" lon="10.8607282"><ele>629.0</ele><time>2026-03-22T09:27:52.973Z</time></trkpt><trkpt lat="45.5546871" lon="10.8608608"><ele>629.0</ele><time>2026-03-22T09:27:54.966Z</time></trkpt><trkpt lat="45.5547336" lon="10.8609252"><ele>629.0</ele><time>2026-03-22T09:27:55.967Z</time></trkpt><trkpt lat="45.554798" lon="10.8609851"><ele>628.6666666666666</ele><time>2026-03-22T09:27:56.959Z</time></trkpt><trkpt lat="45.554876" lon="10.8610554"><ele>628.3333333333333</ele><time>2026-03-22T09:27:57.961Z</time></trkpt><trkpt lat="45.5549439" lon="10.8611365"><ele>628.0</ele><time>2026-03-22T09:27:58.97Z</time></trkpt><trkpt lat="45.5550048" lon="10.8612021"><ele>627.6666666666666</ele><time>2026-03-22T09:27:59.967Z</time></trkpt><trkpt lat="45.5550784" lon="10.8612497"><ele>627.3333333333334</ele><time>2026-03-22T09:28:00.978Z</time></trkpt><trkpt lat="45.5551488" lon="10.8612623"><ele>627.0</ele><time>2026-03-22T09:28:01.969Z</time></trkpt><trkpt lat="45.5552265" lon="10.8612353"><ele>627.0</ele><time>2026-03-22T09:28:02.975Z</time></trkpt><trkpt lat="45.5553082" lon="10.8611737"><ele>627.0</ele><time>2026-03-22T09:28:03.958Z</time></trkpt><trkpt lat="45.5554029" lon="10.861106"><ele>627.0</ele><time>2026-03-22T09:28:04.967Z</time></trkpt><trkpt lat="45.5555043" lon="10.8610483"><ele>627.0</ele><time>2026-03-22T09:28:05.961Z</time></trkpt><trkpt lat="45.5555895" lon="10.8610249"><ele>627.0</ele><time>2026-03-22T09:28:06.941Z</time></trkpt><trkpt lat="45.5556743" lon="10.8610474"><ele>627.8333333333334</ele><time>2026-03-22T09:28:07.969Z</time></trkpt><trkpt lat="45.555748" lon="10.8611053"><ele>628.6666666666666</ele><time>2026-03-22T09:28:08.964Z</time></trkpt><trkpt lat="45.5558088" lon="10.8611799"><ele>629.5</ele><time>2026-03-22T09:28:09.966Z</time></trkpt><trkpt lat="45.5558672" lon="10.8612193"><ele>630.3333333333333</ele><time>2026-03-22T09:28:10.975Z</time></trkpt><trkpt lat="45.5559431" lon="10.8612219"><ele>631.1666666666666</ele><time>2026-03-22T09:28:11.966Z</time></trkpt><trkpt lat="45.5560301" lon="10.861191"><ele>632.0</ele><time>2026-03-22T09:28:12.962Z</time></trkpt><trkpt lat="45.5561311" lon="10.8611275"><ele>632.6</ele><time>2026-03-22T09:28:13.96Z</time></trkpt><trkpt lat="45.5562604" lon="10.861071"><ele>633.2</ele><time>2026-03-22T09:28:14.966Z</time></trkpt><trkpt lat="45.5563679" lon="10.8610174"><ele>633.8</ele><time>2026-03-22T09:28:15.968Z</time></trkpt><trkpt lat="45.5564429" lon="10.8609671"><ele>634.4</ele><time>2026-03-22T09:28:16.971Z</time></trkpt><trkpt lat="45.5565297" lon="10.8609259"><ele>635.0</ele><time>2026-03-22T09:28:17.972Z</time></trkpt><trkpt lat="45.5565998" lon="10.8609011"><ele>635.8</ele><time>2026-03-22T09:28:18.977Z</time></trkpt><trkpt lat="45.556718" lon="10.8608474"><ele>636.6</ele><time>2026-03-22T09:28:20.962Z</time></trkpt><trkpt lat="45.5568196" lon="10.8608117"><ele>637.4</ele><time>2026-03-22T09:28:22.968Z</time></trkpt><trkpt lat="45.556911" lon="10.8608214"><ele>638.2</ele><time>2026-03-22T09:28:25.962Z</time></trkpt><trkpt lat="45.5570074" lon="10.8609188"><ele>639.0</ele><time>2026-03-22T09:28:27.972Z</time></trkpt><trkpt lat="45.5570638" lon="10.8609804"><ele>639.1666666666666</ele><time>2026-03-22T09:28:28.963Z</time></trkpt><trkpt lat="45.5571283" lon="10.8610369"><ele>639.3333333333334</ele><time>2026-03-22T09:28:29.965Z</time></trkpt><trkpt lat="45.5571938" lon="10.861098"><ele>639.5</ele><time>2026-03-22T09:28:30.956Z</time></trkpt><trkpt lat="45.5572704" lon="10.8611467"><ele>639.6666666666667</ele><time>2026-03-22T09:28:31.975Z</time></trkpt><trkpt lat="45.5573559" lon="10.8612088"><ele>639.8333333333334</ele><time>2026-03-22T09:28:32.967Z</time></trkpt><trkpt lat="45.5574342" lon="10.8612562"><ele>640.0</ele><time>2026-03-22T09:28:33.972Z</time></trkpt><trkpt lat="45.5575189" lon="10.8612813"><ele>640.0</ele><time>2026-03-22T09:28:34.969Z</time></trkpt><trkpt lat="45.5576019" lon="10.8613054"><ele>640.0</ele><time>2026-03-22T09:28:35.96Z</time></trkpt><trkpt lat="45.5576826" lon="10.861323"><ele>640.0</ele><time>2026-03-22T09:28:36.967Z</time></trkpt><trkpt lat="45.5577639" lon="10.8613402"><ele>640.0</ele><time>2026-03-22T09:28:37.971Z</time></trkpt><trkpt lat="45.5578432" lon="10.8613488"><ele>640.0</ele><time>2026-03-22T09:28:38.958Z</time></trkpt><trkpt lat="45.5579162" lon="10.8613679"><ele>640.0</ele><time>2026-03-22T09:28:39.962Z</time></trkpt><trkpt lat="45.5579879" lon="10.8613957"><ele>640.5</ele><time>2026-03-22T09:28:40.961Z</time></trkpt><trkpt lat="45.5580734" lon="10.8614192"><ele>641.0</ele><time>2026-03-22T09:28:41.966Z</time></trkpt><trkpt lat="45.5581705" lon="10.8614346"><ele>641.5</ele><time>2026-03-22T09:28:42.962Z</time></trkpt><trkpt lat="45.5582585" lon="10.8614487"><ele>642.0</ele><time>2026-03-22T09:28:43.971Z</time></trkpt><trkpt lat="45.5583403" lon="10.8614491"><ele>642.5</ele><time>2026-03-22T09:28:44.949Z</time></trkpt><trkpt lat="45.5584195" lon="10.8614487"><ele>643.0</ele><time>2026-03-22T09:28:45.961Z</time></trkpt><trkpt lat="45.5584972" lon="10.8614435"><ele>643.0</ele><time>2026-03-22T09:28:46.965Z</time></trkpt><trkpt lat="45.5585808" lon="10.8614402"><ele>643.0</ele><time>2026-03-22T09:28:47.968Z</time></trkpt><trkpt lat="45.5586743" lon="10.8614306"><ele>643.0</ele><time>2026-03-22T09:28:48.969Z</time></trkpt><trkpt lat="45.5587749" lon="10.861407"><ele>643.0</ele><time>2026-03-22T09:28:49.944Z</time></trkpt><trkpt lat="45.5588704" lon="10.8613937"><ele>643.0</ele><time>2026-03-22T09:28:50.96Z</time></trkpt><trkpt lat="45.5589595" lon="10.8613923"><ele>644.0</ele><time>2026-03-22T09:28:51.949Z</time></trkpt><trkpt lat="45.559045" lon="10.8613847"><ele>645.0</ele><time>2026-03-22T09:28:52.944Z</time></trkpt><trkpt lat="45.5591255" lon="10.86138"><ele>646.0</ele><time>2026-03-22T09:28:53.964Z</time></trkpt><trkpt lat="45.5592129" lon="10.8613599"><ele>647.0</ele><time>2026-03-22T09:28:54.969Z</time></trkpt><trkpt lat="45.559299" lon="10.8613383"><ele>648.0</ele><time>2026-03-22T09:28:55.966Z</time></trkpt><trkpt lat="45.5593915" lon="10.8613126"><ele>649.0</ele><time>2026-03-22T09:28:56.958Z</time></trkpt><trkpt lat="45.5594783" lon="10.8612921"><ele>649.5</ele><time>2026-03-22T09:28:57.959Z</time></trkpt><trkpt lat="45.5595622" lon="10.8612581"><ele>650.0</ele><time>2026-03-22T09:28:58.968Z</time></trkpt><trkpt lat="45.5596414" lon="10.8612087"><ele>650.5</ele><time>2026-03-22T09:28:59.961Z</time></trkpt><trkpt lat="45.5597208" lon="10.8611611"><ele>651.0</ele><time>2026-03-22T09:29:00.945Z</time></trkpt><trkpt lat="45.5598031" lon="10.8611211"><ele>651.5</ele><time>2026-03-22T09:29:01.957Z</time></trkpt><trkpt lat="45.5598839" lon="10.8610832"><ele>652.0</ele><time>2026-03-22T09:29:02.966Z</time></trkpt><trkpt lat="45.5599561" lon="10.8610623"><ele>652.0</ele><time>2026-03-22T09:29:03.963Z</time></trkpt><trkpt lat="45.5600248" lon="10.861038"><ele>652.0</ele><time>2026-03-22T09:29:04.963Z</time></trkpt><trkpt lat="45.5601351" lon="10.8610115"><ele>652.0</ele><time>2026-03-22T09:29:06.971Z</time></trkpt><trkpt lat="45.5602231" lon="10.8609818"><ele>652.0</ele><time>2026-03-22T09:29:08.967Z</time></trkpt><trkpt lat="45.5602752" lon="10.8609076"><ele>652.0</ele><time>2026-03-22T09:29:13.967Z</time></trkpt><trkpt lat="45.5602408" lon="10.8607603"><ele>653.2</ele><time>2026-03-22T09:29:15.966Z</time></trkpt><trkpt lat="45.5601952" lon="10.8606449"><ele>654.4000000000001</ele><time>2026-03-22T09:29:16.965Z</time></trkpt><trkpt lat="45.5601494" lon="10.8605224"><ele>655.5999999999999</ele><time>2026-03-22T09:29:17.967Z</time></trkpt><trkpt lat="45.5601176" lon="10.8604042"><ele>656.8</ele><time>2026-03-22T09:29:18.974Z</time></trkpt><trkpt lat="45.5600968" lon="10.8603002"><ele>658.0</ele><time>2026-03-22T09:29:19.963Z</time></trkpt><trkpt lat="45.5600648" lon="10.8601237"><ele>658.6666666666667</ele><time>2026-03-22T09:29:21.963Z</time></trkpt><trkpt lat="45.5600639" lon="10.8600287"><ele>659.3333333333334</ele><time>2026-03-22T09:29:22.975Z</time></trkpt><trkpt lat="45.5600589" lon="10.8599381"><ele>660.0</ele><time>2026-03-22T09:29:23.97Z</time></trkpt><trkpt lat="45.560042" lon="10.8597532"><ele>660.6666666666666</ele><time>2026-03-22T09:29:25.964Z</time></trkpt><trkpt lat="45.5600336" lon="10.8596579"><ele>661.3333333333333</ele><time>2026-03-22T09:29:26.973Z</time></trkpt><trkpt lat="45.5600141" lon="10.859563"><ele>662.0</ele><time>2026-03-22T09:29:27.952Z</time></trkpt><trkpt lat="45.5600081" lon="10.8594673"><ele>662.0</ele><time>2026-03-22T09:29:28.963Z</time></trkpt><trkpt lat="45.5599897" lon="10.8592987"><ele>662.0</ele><time>2026-03-22T09:29:30.961Z</time></trkpt><trkpt lat="45.5599679" lon="10.859213"><ele>662.0</ele><time>2026-03-22T09:29:31.965Z</time></trkpt><trkpt lat="45.5599241" lon="10.859121"><ele>662.0</ele><time>2026-03-22T09:29:32.965Z</time></trkpt><trkpt lat="45.5598641" lon="10.8590348"><ele>662.0</ele><time>2026-03-22T09:29:33.973Z</time></trkpt><trkpt lat="45.5598007" lon="10.8589615"><ele>662.0</ele><time>2026-03-22T09:29:34.965Z</time></trkpt><trkpt lat="45.5597323" lon="10.8588956"><ele>661.5</ele><time>2026-03-22T09:29:35.972Z</time></trkpt><trkpt lat="45.5596751" lon="10.8588328"><ele>661.0</ele><time>2026-03-22T09:29:36.962Z</time></trkpt><trkpt lat="45.5596155" lon="10.8587654"><ele>660.5</ele><time>2026-03-22T09:29:37.977Z</time></trkpt><trkpt lat="45.5595501" lon="10.858696"><ele>660.0</ele><time>2026-03-22T09:29:38.973Z</time></trkpt><trkpt lat="45.5594854" lon="10.8586359"><ele>659.5</ele><time>2026-03-22T09:29:39.975Z</time></trkpt><trkpt lat="45.5593905" lon="10.8585539"><ele>659.0</ele><time>2026-03-22T09:29:41.964Z</time></trkpt><trkpt lat="45.5593458" lon="10.8584324"><ele>657.5</ele><time>2026-03-22T09:29:43.971Z</time></trkpt><trkpt lat="45.5592956" lon="10.8582848"><ele>656.0</ele><time>2026-03-22T09:29:46.043Z</time></trkpt><trkpt lat="45.5592678" lon="10.8582029"><ele>654.5</ele><time>2026-03-22T09:29:46.964Z</time></trkpt><trkpt lat="45.5592213" lon="10.8581262"><ele>653.0</ele><time>2026-03-22T09:29:47.962Z</time></trkpt><trkpt lat="45.5591633" lon="10.858065"><ele>651.5</ele><time>2026-03-22T09:29:48.974Z</time></trkpt><trkpt lat="45.5591082" lon="10.8580019"><ele>650.0</ele><time>2026-03-22T09:29:49.96Z</time></trkpt><trkpt lat="45.5590576" lon="10.8579425"><ele>650.0</ele><time>2026-03-22T09:29:50.959Z</time></trkpt><trkpt lat="45.5589953" lon="10.8578885"><ele>650.0</ele><time>2026-03-22T09:29:51.97Z</time></trkpt><trkpt lat="45.5589084" lon="10.8578123"><ele>650.0</ele><time>2026-03-22T09:29:53.954Z</time></trkpt><trkpt lat="45.5588333" lon="10.8577188"><ele>650.0</ele><time>2026-03-22T09:29:55.981Z</time></trkpt><trkpt lat="45.5587586" lon="10.857629"><ele>650.0</ele><time>2026-03-22T09:29:57.963Z</time></trkpt><trkpt lat="45.5586925" lon="10.8575816"><ele>650.0</ele><time>2026-03-22T09:29:59.967Z</time></trkpt><trkpt lat="45.5586392" lon="10.8575165"><ele>646.8</ele><time>2026-03-22T09:30:01.983Z</time></trkpt><trkpt lat="45.5585672" lon="10.8574426"><ele>643.6</ele><time>2026-03-22T09:30:03.965Z</time></trkpt><trkpt lat="45.5585427" lon="10.8573095"><ele>640.4</ele><time>2026-03-22T09:30:05.964Z</time></trkpt><trkpt lat="45.5585364" lon="10.8572134"><ele>637.2</ele><time>2026-03-22T09:30:06.962Z</time></trkpt><trkpt lat="45.5585043" lon="10.8570559"><ele>634.0</ele><time>2026-03-22T09:30:08.974Z</time></trkpt><trkpt lat="45.5584973" lon="10.8569073"><ele>633.0</ele><time>2026-03-22T09:30:10.959Z</time></trkpt><trkpt lat="45.5585368" lon="10.8567572"><ele>632.0</ele><time>2026-03-22T09:30:12.964Z</time></trkpt><trkpt lat="45.5585935" lon="10.8566301"><ele>631.0</ele><time>2026-03-22T09:30:14.968Z</time></trkpt><trkpt lat="45.5586679" lon="10.8565079"><ele>630.0</ele><time>2026-03-22T09:30:16.963Z</time></trkpt><trkpt lat="45.5587066" lon="10.8564309"><ele>629.0</ele><time>2026-03-22T09:30:18.974Z</time></trkpt><trkpt lat="45.5587781" lon="10.8563786"><ele>628.0</ele><time>2026-03-22T09:30:20.968Z</time></trkpt><trkpt lat="45.558858" lon="10.8563433"><ele>627.0</ele><time>2026-03-22T09:30:22.988Z</time></trkpt><trkpt lat="45.5589426" lon="10.8563312"><ele>626.0</ele><time>2026-03-22T09:30:24.961Z</time></trkpt><trkpt lat="45.5590221" lon="10.8563122"><ele>625.0</ele><time>2026-03-22T09:30:26.956Z</time></trkpt><trkpt lat="45.5591071" lon="10.8563181"><ele>624.0</ele><time>2026-03-22T09:30:28.956Z</time></trkpt><trkpt lat="45.5592078" lon="10.8563453"><ele>623.0</ele><time>2026-03-22T09:30:30.96Z</time></trkpt><trkpt lat="45.5592991" lon="10.856385"><ele>623.0</ele><time>2026-03-22T09:30:32.955Z</time></trkpt><trkpt lat="45.5593638" lon="10.8564071"><ele>623.0</ele><time>2026-03-22T09:30:33.956Z</time></trkpt><trkpt lat="45.559422" lon="10.8564427"><ele>623.0</ele><time>2026-03-22T09:30:34.958Z</time></trkpt><trkpt lat="45.5594831" lon="10.8564971"><ele>623.0</ele><time>2026-03-22T09:30:36.965Z</time></trkpt><trkpt lat="45.5595549" lon="10.8564972"><ele>623.0</ele><time>2026-03-22T09:30:39.963Z</time></trkpt><trkpt lat="45.559557" lon="10.8564017"><ele>623.0</ele><time>2026-03-22T09:30:42.968Z</time></trkpt><trkpt lat="45.5595305" lon="10.8562934"><ele>623.0</ele><time>2026-03-22T09:30:44.959Z</time></trkpt><trkpt lat="45.5594923" lon="10.8561531"><ele>623.0</ele><time>2026-03-22T09:30:46.97Z</time></trkpt><trkpt lat="45.5594685" lon="10.8560669"><ele>623.0</ele><time>2026-03-22T09:30:47.948Z</time></trkpt><trkpt lat="45.5594318" lon="10.8559811"><ele>623.0</ele><time>2026-03-22T09:30:48.96Z</time></trkpt><trkpt lat="45.5593878" lon="10.8558905"><ele>623.0</ele><time>2026-03-22T09:30:49.96Z</time></trkpt><trkpt lat="45.5593336" lon="10.855802"><ele>623.0</ele><time>2026-03-22T09:30:50.959Z</time></trkpt><trkpt lat="45.5592752" lon="10.8557147"><ele>623.0</ele><time>2026-03-22T09:30:52.036Z</time></trkpt><trkpt lat="45.5592296" lon="10.8556329"><ele>620.0</ele><time>2026-03-22T09:30:52.973Z</time></trkpt><trkpt lat="45.5591673" lon="10.8555366"><ele>617.0</ele><time>2026-03-22T09:30:54.97Z</time></trkpt><trkpt lat="45.5591162" lon="10.8554388"><ele>614.0</ele><time>2026-03-22T09:30:57.971Z</time></trkpt><trkpt lat="45.5590712" lon="10.8553428"><ele>611.0</ele><time>2026-03-22T09:30:59.966Z</time></trkpt><trkpt lat="45.5590025" lon="10.8552462"><ele>608.0</ele><time>2026-03-22T09:31:01.976Z</time></trkpt><trkpt lat="45.5589463" lon="10.8551557"><ele>605.0</ele><time>2026-03-22T09:31:03.965Z</time></trkpt><trkpt lat="45.5588874" lon="10.8550694"><ele>601.1666666666666</ele><time>2026-03-22T09:31:05.982Z</time></trkpt><trkpt lat="45.558806" lon="10.8550161"><ele>597.3333333333333</ele><time>2026-03-22T09:31:07.982Z</time></trkpt><trkpt lat="45.5587403" lon="10.8549866"><ele>593.5</ele><time>2026-03-22T09:31:08.968Z</time></trkpt><trkpt lat="45.5586174" lon="10.8549454"><ele>589.6666666666666</ele><time>2026-03-22T09:31:10.955Z</time></trkpt><trkpt lat="45.5585423" lon="10.8549222"><ele>585.8333333333334</ele><time>2026-03-22T09:31:12.968Z</time></trkpt><trkpt lat="45.5584802" lon="10.8548984"><ele>582.0</ele><time>2026-03-22T09:31:14.959Z</time></trkpt><trkpt lat="45.5584273" lon="10.8548492"><ele>582.0</ele><time>2026-03-22T09:31:23.971Z</time></trkpt><trkpt lat="45.5584431" lon="10.8547525"><ele>582.0</ele><time>2026-03-22T09:31:33.96Z</time></trkpt><trkpt lat="45.5584974" lon="10.85468"><ele>582.0</ele><time>2026-03-22T09:31:37.964Z</time></trkpt><trkpt lat="45.5585586" lon="10.8545943"><ele>582.0</ele><time>2026-03-22T09:31:53.958Z</time></trkpt><trkpt lat="45.5586347" lon="10.8545506"><ele>582.0</ele><time>2026-03-22T09:31:57.957Z</time></trkpt><trkpt lat="45.558687" lon="10.8544748"><ele>582.0</ele><time>2026-03-22T09:32:00.959Z</time></trkpt><trkpt lat="45.5587592" lon="10.8543954"><ele>581.6</ele><time>2026-03-22T09:32:03.956Z</time></trkpt><trkpt lat="45.5588335" lon="10.8543201"><ele>581.2</ele><time>2026-03-22T09:32:06.943Z</time></trkpt><trkpt lat="45.5588956" lon="10.8542449"><ele>580.8</ele><time>2026-03-22T09:32:09.959Z</time></trkpt><trkpt lat="45.5590189" lon="10.854217"><ele>580.4</ele><time>2026-03-22T09:32:43.971Z</time></trkpt><trkpt lat="45.5591012" lon="10.8541964"><ele>580.0</ele><time>2026-03-22T09:32:49.954Z</time></trkpt><trkpt lat="45.5591706" lon="10.8542137"><ele>580.0</ele><time>2026-03-22T09:33:27.945Z</time></trkpt><trkpt lat="45.559094" lon="10.8542615"><ele>580.0</ele><time>2026-03-22T09:34:45.946Z</time></trkpt><trkpt lat="45.5591846" lon="10.8542507"><ele>580.0</ele><time>2026-03-22T09:38:41.957Z</time></trkpt><trkpt lat="45.5592856" lon="10.8542989"><ele>580.0</ele><time>2026-03-22T09:38:45.951Z</time></trkpt><trkpt lat="45.559345" lon="10.8543344"><ele>580.0</ele><time>2026-03-22T09:38:46.966Z</time></trkpt><trkpt lat="45.5594737" lon="10.8543762"><ele>575.4</ele><time>2026-03-22T09:38:48.963Z</time></trkpt><trkpt lat="45.5595837" lon="10.8543672"><ele>570.8</ele><time>2026-03-22T09:38:50.956Z</time></trkpt><trkpt lat="45.5596601" lon="10.8543875"><ele>566.2</ele><time>2026-03-22T09:38:51.942Z</time></trkpt><trkpt lat="45.5597807" lon="10.8544077"><ele>561.6</ele><time>2026-03-22T09:38:53.949Z</time></trkpt><trkpt lat="45.5598481" lon="10.8544084"><ele>557.0</ele><time>2026-03-22T09:38:55.936Z</time></trkpt><trkpt lat="45.5598657" lon="10.854303"><ele>553.6666666666666</ele><time>2026-03-22T09:38:59.958Z</time></trkpt><trkpt lat="45.5598398" lon="10.8542064"><ele>550.3333333333333</ele><time>2026-03-22T09:39:02.952Z</time></trkpt><trkpt lat="45.5597926" lon="10.8541005"><ele>547.0</ele><time>2026-03-22T09:39:05.962Z</time></trkpt><trkpt lat="45.5597591" lon="10.8540167"><ele>543.6666666666666</ele><time>2026-03-22T09:39:07.941Z</time></trkpt><trkpt lat="45.5596983" lon="10.8538967"><ele>540.3333333333334</ele><time>2026-03-22T09:39:09.969Z</time></trkpt><trkpt lat="45.5596482" lon="10.853836"><ele>537.0</ele><time>2026-03-22T09:39:10.953Z</time></trkpt><trkpt lat="45.5595951" lon="10.8537861"><ele>539.0</ele><time>2026-03-22T09:39:11.959Z</time></trkpt><trkpt lat="45.5595312" lon="10.8537448"><ele>541.0</ele><time>2026-03-22T09:39:12.963Z</time></trkpt><trkpt lat="45.5594672" lon="10.8536931"><ele>543.0</ele><time>2026-03-22T09:39:13.966Z</time></trkpt><trkpt lat="45.5594035" lon="10.853649"><ele>545.0</ele><time>2026-03-22T09:39:14.957Z</time></trkpt><trkpt lat="45.5593324" lon="10.8536155"><ele>547.0</ele><time>2026-03-22T09:39:15.958Z</time></trkpt><trkpt lat="45.5592479" lon="10.853598"><ele>549.0</ele><time>2026-03-22T09:39:16.962Z</time></trkpt><trkpt lat="45.5591611" lon="10.8535946"><ele>549.0</ele><time>2026-03-22T09:39:17.969Z</time></trkpt><trkpt lat="45.5590789" lon="10.8535911"><ele>549.0</ele><time>2026-03-22T09:39:18.968Z</time></trkpt><trkpt lat="45.5589966" lon="10.8535894"><ele>549.0</ele><time>2026-03-22T09:39:19.964Z</time></trkpt><trkpt lat="45.5589195" lon="10.8535865"><ele>549.0</ele><time>2026-03-22T09:39:20.959Z</time></trkpt><trkpt lat="45.5588491" lon="10.8535786"><ele>549.0</ele><time>2026-03-22T09:39:21.958Z</time></trkpt><trkpt lat="45.5587541" lon="10.8535687"><ele>549.0</ele><time>2026-03-22T09:39:23.962Z</time></trkpt><trkpt lat="45.5586807" lon="10.8535364"><ele>549.3333333333334</ele><time>2026-03-22T09:39:25.95Z</time></trkpt><trkpt lat="45.5586219" lon="10.8534559"><ele>549.6666666666666</ele><time>2026-03-22T09:39:28.959Z</time></trkpt><trkpt lat="45.5586292" lon="10.8533199"><ele>550.0</ele><time>2026-03-22T09:39:31.937Z</time></trkpt><trkpt lat="45.5586224" lon="10.853223"><ele>550.3333333333333</ele><time>2026-03-22T09:39:33.942Z</time></trkpt><trkpt lat="45.5585526" lon="10.8531057"><ele>550.6666666666666</ele><time>2026-03-22T09:39:36.958Z</time></trkpt><trkpt lat="45.5584967" lon="10.8530614"><ele>551.0</ele><time>2026-03-22T09:39:37.946Z</time></trkpt><trkpt lat="45.5584108" lon="10.8529875"><ele>546.0</ele><time>2026-03-22T09:39:39.958Z</time></trkpt><trkpt lat="45.5583538" lon="10.8529267"><ele>541.0</ele><time>2026-03-22T09:39:42.956Z</time></trkpt><trkpt lat="45.5583426" lon="10.852814"><ele>536.0</ele><time>2026-03-22T09:39:53.959Z</time></trkpt><trkpt lat="45.558368" lon="10.8527025"><ele>531.0</ele><time>2026-03-22T09:39:56.95Z</time></trkpt><trkpt lat="45.5583852" lon="10.8526076"><ele>526.0</ele><time>2026-03-22T09:39:59.96Z</time></trkpt><trkpt lat="45.5584231" lon="10.8524952"><ele>521.0</ele><time>2026-03-22T09:40:03.959Z</time></trkpt><trkpt lat="45.5584452" lon="10.8524013"><ele>517.4</ele><time>2026-03-22T09:40:05.967Z</time></trkpt><trkpt lat="45.5584528" lon="10.8522593"><ele>513.8</ele><time>2026-03-22T09:40:07.962Z</time></trkpt><trkpt lat="45.5584896" lon="10.8521174"><ele>510.19999999999993</ele><time>2026-03-22T09:40:09.967Z</time></trkpt><trkpt lat="45.558502" lon="10.8520055"><ele>506.59999999999997</ele><time>2026-03-22T09:40:10.96Z</time></trkpt><trkpt lat="45.5585594" lon="10.851865"><ele>503.0</ele><time>2026-03-22T09:40:12.968Z</time></trkpt><trkpt lat="45.5585917" lon="10.8517673"><ele>500.49999999999994</ele><time>2026-03-22T09:40:14.95Z</time></trkpt><trkpt lat="45.5586323" lon="10.8516815"><ele>498.0</ele><time>2026-03-22T09:40:33.938Z</time></trkpt><trkpt lat="45.5586954" lon="10.8516946"><ele>495.5</ele><time>2026-03-22T09:40:35.958Z</time></trkpt><trkpt lat="45.5588241" lon="10.8516749"><ele>493.0</ele><time>2026-03-22T09:40:37.957Z</time></trkpt><trkpt lat="45.5589003" lon="10.8516431"><ele>490.49999999999994</ele><time>2026-03-22T09:40:38.957Z</time></trkpt><trkpt lat="45.5589824" lon="10.8516169"><ele>488.0</ele><time>2026-03-22T09:40:39.966Z</time></trkpt><trkpt lat="45.5590732" lon="10.8515943"><ele>487.66666666666663</ele><time>2026-03-22T09:40:40.96Z</time></trkpt><trkpt lat="45.5591757" lon="10.8515902"><ele>487.3333333333333</ele><time>2026-03-22T09:40:41.961Z</time></trkpt><trkpt lat="45.5592718" lon="10.8515913"><ele>487.0</ele><time>2026-03-22T09:40:42.946Z</time></trkpt><trkpt lat="45.5593606" lon="10.8515886"><ele>486.66666666666663</ele><time>2026-03-22T09:40:43.945Z</time></trkpt><trkpt lat="45.5594409" lon="10.8515875"><ele>486.3333333333333</ele><time>2026-03-22T09:40:44.968Z</time></trkpt><trkpt lat="45.5595138" lon="10.8515723"><ele>486.0</ele><time>2026-03-22T09:40:45.963Z</time></trkpt><trkpt lat="45.5595872" lon="10.8515522"><ele>486.0</ele><time>2026-03-22T09:40:46.97Z</time></trkpt><trkpt lat="45.5596694" lon="10.8515242"><ele>486.0</ele><time>2026-03-22T09:40:48.032Z</time></trkpt><trkpt lat="45.5597513" lon="10.8514734"><ele>486.0</ele><time>2026-03-22T09:40:49.028Z</time></trkpt><trkpt lat="45.5598372" lon="10.8514513"><ele>486.0</ele><time>2026-03-22T09:40:49.952Z</time></trkpt><trkpt lat="45.5599168" lon="10.8514609"><ele>486.0</ele><time>2026-03-22T09:40:50.955Z</time></trkpt><trkpt lat="45.5599946" lon="10.8514649"><ele>486.0</ele><time>2026-03-22T09:40:51.991Z</time></trkpt><trkpt lat="45.5600694" lon="10.8514699"><ele>486.0</ele><time>2026-03-22T09:40:52.956Z</time></trkpt><trkpt lat="45.5601533" lon="10.8514869"><ele>486.0</ele><time>2026-03-22T09:40:54.034Z</time></trkpt><trkpt lat="45.5602405" lon="10.8515102"><ele>486.0</ele><time>2026-03-22T09:40:54.993Z</time></trkpt><trkpt lat="45.5603386" lon="10.8515404"><ele>486.0</ele><time>2026-03-22T09:40:55.977Z</time></trkpt><trkpt lat="45.5604258" lon="10.851566"><ele>486.0</ele><time>2026-03-22T09:40:57Z</time></trkpt><trkpt lat="45.5605078" lon="10.8515873"><ele>486.0</ele><time>2026-03-22T09:40:58.03Z</time></trkpt><trkpt lat="45.5605724" lon="10.8516043"><ele>486.1666666666667</ele><time>2026-03-22T09:40:59.05Z</time></trkpt><trkpt lat="45.5606549" lon="10.8515887"><ele>486.33333333333337</ele><time>2026-03-22T09:41:00.964Z</time></trkpt><trkpt lat="45.5607268" lon="10.8515324"><ele>486.5</ele><time>2026-03-22T09:41:02.981Z</time></trkpt><trkpt lat="45.560819" lon="10.8514597"><ele>486.6666666666667</ele><time>2026-03-22T09:41:04.982Z</time></trkpt><trkpt lat="45.5607527" lon="10.8514198"><ele>486.83333333333337</ele><time>2026-03-22T09:41:07.979Z</time></trkpt><trkpt lat="45.560704" lon="10.8514967"><ele>487.0</ele><time>2026-03-22T09:41:10.985Z</time></trkpt><trkpt lat="45.5606495" lon="10.8515618"><ele>487.00000000000006</ele><time>2026-03-22T09:41:13.982Z</time></trkpt><trkpt lat="45.5605751" lon="10.8515847"><ele>487.0</ele><time>2026-03-22T09:41:17.979Z</time></trkpt><trkpt lat="45.5605214" lon="10.8516461"><ele>487.0</ele><time>2026-03-22T09:41:34.943Z</time></trkpt><trkpt lat="45.5604915" lon="10.851754"><ele>487.0</ele><time>2026-03-22T09:41:39.966Z</time></trkpt><trkpt lat="45.5604806" lon="10.8518601"><ele>487.00000000000006</ele><time>2026-03-22T09:41:42.971Z</time></trkpt><trkpt lat="45.5604781" lon="10.8519806"><ele>487.0</ele><time>2026-03-22T09:41:45.963Z</time></trkpt><trkpt lat="45.5605232" lon="10.8521121"><ele>488.33333333333337</ele><time>2026-03-22T09:41:49.045Z</time></trkpt><trkpt lat="45.5605687" lon="10.8522033"><ele>489.6666666666667</ele><time>2026-03-22T09:41:50.971Z</time></trkpt><trkpt lat="45.5606333" lon="10.8522848"><ele>491.0</ele><time>2026-03-22T09:41:53.969Z</time></trkpt><trkpt lat="45.5606758" lon="10.8523675"><ele>492.33333333333337</ele><time>2026-03-22T09:41:56.968Z</time></trkpt><trkpt lat="45.5607039" lon="10.8524556"><ele>493.6666666666667</ele><time>2026-03-22T09:41:59.968Z</time></trkpt><trkpt lat="45.5607369" lon="10.8525496"><ele>495.0</ele><time>2026-03-22T09:42:03.953Z</time></trkpt><trkpt lat="45.5607385" lon="10.8526561"><ele>497.1666666666667</ele><time>2026-03-22T09:42:13.963Z</time></trkpt><trkpt lat="45.5607031" lon="10.8527551"><ele>499.33333333333337</ele><time>2026-03-22T09:42:16.96Z</time></trkpt><trkpt lat="45.5606742" lon="10.8528496"><ele>501.5</ele><time>2026-03-22T09:42:19.971Z</time></trkpt><trkpt lat="45.5606447" lon="10.8529428"><ele>503.6666666666667</ele><time>2026-03-22T09:42:29.962Z</time></trkpt><trkpt lat="45.5606514" lon="10.8530665"><ele>505.83333333333337</ele><time>2026-03-22T09:42:33.95Z</time></trkpt><trkpt lat="45.5606449" lon="10.8531732"><ele>508.0</ele><time>2026-03-22T09:42:36.967Z</time></trkpt><trkpt lat="45.5606475" lon="10.8532831"><ele>508.00000000000006</ele><time>2026-03-22T09:42:39.962Z</time></trkpt><trkpt lat="45.5606588" lon="10.8533931"><ele>508.0</ele><time>2026-03-22T09:42:41.961Z</time></trkpt><trkpt lat="45.5606853" lon="10.8535087"><ele>508.0</ele><time>2026-03-22T09:42:44.033Z</time></trkpt><trkpt lat="45.5607367" lon="10.85359"><ele>508.0</ele><time>2026-03-22T09:42:45.985Z</time></trkpt><trkpt lat="45.5608076" lon="10.853689"><ele>508.00000000000006</ele><time>2026-03-22T09:43:07.964Z</time></trkpt><trkpt lat="45.5608978" lon="10.8537629"><ele>508.0</ele><time>2026-03-22T09:43:08.954Z</time></trkpt><trkpt lat="45.560974" lon="10.8538399"><ele>510.33333333333337</ele><time>2026-03-22T09:43:09.957Z</time></trkpt><trkpt lat="45.561047" lon="10.8539794"><ele>512.6666666666667</ele><time>2026-03-22T09:43:11.956Z</time></trkpt><trkpt lat="45.5611026" lon="10.8541075"><ele>515.0</ele><time>2026-03-22T09:43:13.952Z</time></trkpt><trkpt lat="45.5611506" lon="10.8541804"><ele>517.3333333333334</ele><time>2026-03-22T09:43:14.978Z</time></trkpt><trkpt lat="45.5611896" lon="10.8542554"><ele>519.6666666666666</ele><time>2026-03-22T09:43:15.964Z</time></trkpt><trkpt lat="45.5612242" lon="10.8543347"><ele>522.0</ele><time>2026-03-22T09:43:16.959Z</time></trkpt><trkpt lat="45.5612512" lon="10.854426"><ele>522.3333333333334</ele><time>2026-03-22T09:43:17.961Z</time></trkpt><trkpt lat="45.5612752" lon="10.8545124"><ele>522.6666666666666</ele><time>2026-03-22T09:43:18.956Z</time></trkpt><trkpt lat="45.5613225" lon="10.8546402"><ele>523.0</ele><time>2026-03-22T09:43:20.964Z</time></trkpt><trkpt lat="45.5613713" lon="10.8547027"><ele>523.3333333333333</ele><time>2026-03-22T09:43:21.957Z</time></trkpt><trkpt lat="45.5614547" lon="10.8548132"><ele>523.6666666666666</ele><time>2026-03-22T09:43:23.961Z</time></trkpt><trkpt lat="45.5614913" lon="10.8548872"><ele>524.0</ele><time>2026-03-22T09:43:24.958Z</time></trkpt><trkpt lat="45.5615713" lon="10.8549787"><ele>524.0</ele><time>2026-03-22T09:43:27.029Z</time></trkpt><trkpt lat="45.5616552" lon="10.8550451"><ele>524.0</ele><time>2026-03-22T09:43:29.032Z</time></trkpt><trkpt lat="45.5617053" lon="10.8551041"><ele>524.0</ele><time>2026-03-22T09:43:30.98Z</time></trkpt><trkpt lat="45.5617555" lon="10.8552088"><ele>524.0</ele><time>2026-03-22T09:43:34.036Z</time></trkpt><trkpt lat="45.561797" lon="10.8553223"><ele>524.0</ele><time>2026-03-22T09:43:35.967Z</time></trkpt><trkpt lat="45.5618318" lon="10.8554252"><ele>524.0</ele><time>2026-03-22T09:43:37.963Z</time></trkpt><trkpt lat="45.5618592" lon="10.8555678"><ele>526.0</ele><time>2026-03-22T09:43:39.967Z</time></trkpt><trkpt lat="45.561902" lon="10.8557033"><ele>528.0</ele><time>2026-03-22T09:43:42.006Z</time></trkpt><trkpt lat="45.5619646" lon="10.8558579"><ele>530.0</ele><time>2026-03-22T09:43:43.979Z</time></trkpt><trkpt lat="45.5620156" lon="10.8559788"><ele>532.0</ele><time>2026-03-22T09:43:45.971Z</time></trkpt><trkpt lat="45.5620346" lon="10.8560865"><ele>534.0</ele><time>2026-03-22T09:43:47.964Z</time></trkpt><trkpt lat="45.5620324" lon="10.856177"><ele>535.6666666666666</ele><time>2026-03-22T09:43:49.965Z</time></trkpt><trkpt lat="45.562038" lon="10.8562908"><ele>537.3333333333334</ele><time>2026-03-22T09:43:53.067Z</time></trkpt><trkpt lat="45.5619884" lon="10.8563526"><ele>539.0</ele><time>2026-03-22T09:44:15.975Z</time></trkpt><trkpt lat="45.5619106" lon="10.8562948"><ele>540.6666666666667</ele><time>2026-03-22T09:44:28.976Z</time></trkpt><trkpt lat="45.5618496" lon="10.8561836"><ele>542.3333333333334</ele><time>2026-03-22T09:44:30.977Z</time></trkpt><trkpt lat="45.5618" lon="10.8561205"><ele>544.0</ele><time>2026-03-22T09:44:31.975Z</time></trkpt><trkpt lat="45.5617262" lon="10.8559894"><ele>542.3333333333334</ele><time>2026-03-22T09:44:33.966Z</time></trkpt><trkpt lat="45.561677" lon="10.855925"><ele>540.6666666666667</ele><time>2026-03-22T09:44:34.976Z</time></trkpt><trkpt lat="45.5616259" lon="10.8558713"><ele>539.0</ele><time>2026-03-22T09:44:35.985Z</time></trkpt><trkpt lat="45.5615558" lon="10.855805"><ele>537.3333333333334</ele><time>2026-03-22T09:44:38.032Z</time></trkpt><trkpt lat="45.5614846" lon="10.8557274"><ele>535.6666666666666</ele><time>2026-03-22T09:44:39.971Z</time></trkpt><trkpt lat="45.5614289" lon="10.8556807"><ele>534.0</ele><time>2026-03-22T09:44:40.975Z</time></trkpt><trkpt lat="45.5613426" lon="10.8556029"><ele>534.0</ele><time>2026-03-22T09:44:42.962Z</time></trkpt><trkpt lat="45.5612654" lon="10.8555897"><ele>534.0</ele><time>2026-03-22T09:44:43.972Z</time></trkpt><trkpt lat="45.5611877" lon="10.8555958"><ele>534.0</ele><time>2026-03-22T09:44:44.967Z</time></trkpt><trkpt lat="45.5611267" lon="10.8555726"><ele>534.0</ele><time>2026-03-22T09:44:46.043Z</time></trkpt><trkpt lat="45.5610406" lon="10.8554579"><ele>534.0</ele><time>2026-03-22T09:44:48.058Z</time></trkpt><trkpt lat="45.5609054" lon="10.8553371"><ele>534.5</ele><time>2026-03-22T09:44:49.962Z</time></trkpt><trkpt lat="45.5608419" lon="10.855277"><ele>535.0</ele><time>2026-03-22T09:44:50.956Z</time></trkpt><trkpt lat="45.5607852" lon="10.8552068"><ele>535.5</ele><time>2026-03-22T09:44:51.968Z</time></trkpt><trkpt lat="45.5606803" lon="10.8550928"><ele>536.0</ele><time>2026-03-22T09:44:54.042Z</time></trkpt><trkpt lat="45.5606114" lon="10.8550359"><ele>536.5</ele><time>2026-03-22T09:44:54.974Z</time></trkpt><trkpt lat="45.5605508" lon="10.8549819"><ele>537.0</ele><time>2026-03-22T09:44:55.976Z</time></trkpt><trkpt lat="45.5604892" lon="10.8549336"><ele>537.0</ele><time>2026-03-22T09:44:56.992Z</time></trkpt><trkpt lat="45.5603974" lon="10.8548273"><ele>537.0</ele><time>2026-03-22T09:44:58.974Z</time></trkpt><trkpt lat="45.5603133" lon="10.8547586"><ele>537.0</ele><time>2026-03-22T09:45:00.968Z</time></trkpt><trkpt lat="45.560241" lon="10.8547905"><ele>537.0</ele><time>2026-03-22T09:45:03.989Z</time></trkpt><trkpt lat="45.5602335" lon="10.8549105"><ele>537.0</ele><time>2026-03-22T09:45:06.973Z</time></trkpt><trkpt lat="45.56024" lon="10.8550082"><ele>537.0</ele><time>2026-03-22T09:45:12.944Z</time></trkpt><trkpt lat="45.5602853" lon="10.8550794"><ele>541.0</ele><time>2026-03-22T09:45:14.957Z</time></trkpt><trkpt lat="45.5603648" lon="10.8551952"><ele>545.0</ele><time>2026-03-22T09:45:16.942Z</time></trkpt><trkpt lat="45.5604096" lon="10.8553172"><ele>549.0</ele><time>2026-03-22T09:45:18.971Z</time></trkpt><trkpt lat="45.5604647" lon="10.8554543"><ele>553.0</ele><time>2026-03-22T09:45:20.965Z</time></trkpt><trkpt lat="45.560506" lon="10.8555793"><ele>557.0</ele><time>2026-03-22T09:45:22.954Z</time></trkpt><trkpt lat="45.5605531" lon="10.8556856"><ele>557.0</ele><time>2026-03-22T09:45:24.958Z</time></trkpt><trkpt lat="45.5605864" lon="10.8558335"><ele>557.0</ele><time>2026-03-22T09:45:26.967Z</time></trkpt><trkpt lat="45.5606456" lon="10.8559462"><ele>557.0</ele><time>2026-03-22T09:45:28.974Z</time></trkpt><trkpt lat="45.5607067" lon="10.8560548"><ele>557.0</ele><time>2026-03-22T09:45:30.981Z</time></trkpt><trkpt lat="45.560776" lon="10.8561729"><ele>557.0</ele><time>2026-03-22T09:45:32.969Z</time></trkpt><trkpt lat="45.560838" lon="10.8563276"><ele>560.0</ele><time>2026-03-22T09:45:35.048Z</time></trkpt><trkpt lat="45.5608737" lon="10.8564032"><ele>563.0</ele><time>2026-03-22T09:45:35.998Z</time></trkpt><trkpt lat="45.5609129" lon="10.8565549"><ele>566.0</ele><time>2026-03-22T09:45:38.048Z</time></trkpt><trkpt lat="45.5609395" lon="10.8567181"><ele>569.0</ele><time>2026-03-22T09:45:39.974Z</time></trkpt><trkpt lat="45.5609389" lon="10.8568141"><ele>572.0</ele><time>2026-03-22T09:45:40.971Z</time></trkpt><trkpt lat="45.5609648" lon="10.8569146"><ele>575.0</ele><time>2026-03-22T09:45:41.975Z</time></trkpt><trkpt lat="45.5610054" lon="10.856998"><ele>573.3333333333333</ele><time>2026-03-22T09:45:42.974Z</time></trkpt><trkpt lat="45.5610403" lon="10.8570839"><ele>571.6666666666666</ele><time>2026-03-22T09:45:43.972Z</time></trkpt><trkpt lat="45.5610978" lon="10.8572197"><ele>570.0</ele><time>2026-03-22T09:45:45.978Z</time></trkpt><trkpt lat="45.5611535" lon="10.85729"><ele>568.3333333333334</ele><time>2026-03-22T09:45:47.982Z</time></trkpt><trkpt lat="45.5612002" lon="10.8573508"><ele>566.6666666666667</ele><time>2026-03-22T09:45:48.976Z</time></trkpt><trkpt lat="45.5612488" lon="10.8574197"><ele>565.0</ele><time>2026-03-22T09:45:49.973Z</time></trkpt><trkpt lat="45.5613042" lon="10.8575481"><ele>569.8</ele><time>2026-03-22T09:45:51.996Z</time></trkpt><trkpt lat="45.5613684" lon="10.8576556"><ele>574.6</ele><time>2026-03-22T09:45:53.959Z</time></trkpt><trkpt lat="45.5614167" lon="10.8577257"><ele>579.4</ele><time>2026-03-22T09:45:54.96Z</time></trkpt><trkpt lat="45.5614721" lon="10.8578091"><ele>584.2</ele><time>2026-03-22T09:45:55.942Z</time></trkpt><trkpt lat="45.5615283" lon="10.8578897"><ele>589.0</ele><time>2026-03-22T09:45:56.969Z</time></trkpt><trkpt lat="45.5616204" lon="10.8580181"><ele>589.0</ele><time>2026-03-22T09:45:58.966Z</time></trkpt><trkpt lat="45.5616731" lon="10.8581411"><ele>589.0</ele><time>2026-03-22T09:46:00.963Z</time></trkpt><trkpt lat="45.5617036" lon="10.8582227"><ele>589.0</ele><time>2026-03-22T09:46:01.962Z</time></trkpt><trkpt lat="45.5617334" lon="10.8583095"><ele>589.0</ele><time>2026-03-22T09:46:02.968Z</time></trkpt><trkpt lat="45.5617886" lon="10.8584644"><ele>589.0</ele><time>2026-03-22T09:46:04.972Z</time></trkpt><trkpt lat="45.5618329" lon="10.8586121"><ele>588.2</ele><time>2026-03-22T09:46:06.952Z</time></trkpt><trkpt lat="45.5618671" lon="10.8587257"><ele>587.4</ele><time>2026-03-22T09:46:08.951Z</time></trkpt><trkpt lat="45.5618937" lon="10.8588411"><ele>586.6</ele><time>2026-03-22T09:46:11.024Z</time></trkpt><trkpt lat="45.5619277" lon="10.8589682"><ele>585.8</ele><time>2026-03-22T09:46:12.967Z</time></trkpt><trkpt lat="45.5619802" lon="10.8590939"><ele>585.0</ele><time>2026-03-22T09:46:14.973Z</time></trkpt><trkpt lat="45.5620457" lon="10.8592363"><ele>588.6</ele><time>2026-03-22T09:46:16.985Z</time></trkpt><trkpt lat="45.5620889" lon="10.859385"><ele>592.2</ele><time>2026-03-22T09:46:18.975Z</time></trkpt><trkpt lat="45.5621186" lon="10.8595387"><ele>595.8</ele><time>2026-03-22T09:46:20.982Z</time></trkpt><trkpt lat="45.5621517" lon="10.8597021"><ele>599.4</ele><time>2026-03-22T09:46:22.963Z</time></trkpt><trkpt lat="45.5621789" lon="10.8597859"><ele>603.0</ele><time>2026-03-22T09:46:23.984Z</time></trkpt><trkpt lat="45.5622086" lon="10.859873"><ele>603.0</ele><time>2026-03-22T09:46:24.974Z</time></trkpt><trkpt lat="45.5622462" lon="10.8599715"><ele>603.0</ele><time>2026-03-22T09:46:25.98Z</time></trkpt><trkpt lat="45.5622796" lon="10.8600781"><ele>603.0</ele><time>2026-03-22T09:46:26.975Z</time></trkpt><trkpt lat="45.5623182" lon="10.8601791"><ele>603.0</ele><time>2026-03-22T09:46:27.98Z</time></trkpt><trkpt lat="45.5623596" lon="10.8602654"><ele>603.0</ele><time>2026-03-22T09:46:28.978Z</time></trkpt><trkpt lat="45.5624361" lon="10.8604073"><ele>603.0</ele><time>2026-03-22T09:46:30.958Z</time></trkpt><trkpt lat="45.5624951" lon="10.860481"><ele>604.1666666666666</ele><time>2026-03-22T09:46:31.974Z</time></trkpt><trkpt lat="45.5625552" lon="10.860569"><ele>605.3333333333334</ele><time>2026-03-22T09:46:32.97Z</time></trkpt><trkpt lat="45.5626109" lon="10.8606545"><ele>606.5</ele><time>2026-03-22T09:46:33.974Z</time></trkpt><trkpt lat="45.5627071" lon="10.8607737"><ele>607.6666666666667</ele><time>2026-03-22T09:46:35.979Z</time></trkpt><trkpt lat="45.5627658" lon="10.8608137"><ele>608.8333333333334</ele><time>2026-03-22T09:46:36.974Z</time></trkpt><trkpt lat="45.5628263" lon="10.8608403"><ele>610.0</ele><time>2026-03-22T09:46:37.976Z</time></trkpt><trkpt lat="45.5629173" lon="10.8608453"><ele>610.0</ele><time>2026-03-22T09:46:39.977Z</time></trkpt><trkpt lat="45.5629885" lon="10.8608577"><ele>610.0</ele><time>2026-03-22T09:46:40.983Z</time></trkpt><trkpt lat="45.563059" lon="10.8608624"><ele>610.0</ele><time>2026-03-22T09:46:42.022Z</time></trkpt><trkpt lat="45.5631367" lon="10.8608867"><ele>610.0</ele><time>2026-03-22T09:46:42.991Z</time></trkpt><trkpt lat="45.5632097" lon="10.8609146"><ele>610.0</ele><time>2026-03-22T09:46:43.99Z</time></trkpt><trkpt lat="45.5632822" lon="10.8609483"><ele>610.0</ele><time>2026-03-22T09:46:44.972Z</time></trkpt><trkpt lat="45.5633621" lon="10.8609748"><ele>610.8333333333334</ele><time>2026-03-22T09:46:45.981Z</time></trkpt><trkpt lat="45.5634424" lon="10.8610202"><ele>611.6666666666667</ele><time>2026-03-22T09:46:46.978Z</time></trkpt><trkpt lat="45.5635216" lon="10.8610613"><ele>612.5</ele><time>2026-03-22T09:46:47.976Z</time></trkpt><trkpt lat="45.5635923" lon="10.8610999"><ele>613.3333333333334</ele><time>2026-03-22T09:46:49.029Z</time></trkpt><trkpt lat="45.5636586" lon="10.8611397"><ele>614.1666666666666</ele><time>2026-03-22T09:46:49.968Z</time></trkpt><trkpt lat="45.5637253" lon="10.8611766"><ele>615.0</ele><time>2026-03-22T09:46:50.964Z</time></trkpt><trkpt lat="45.5637857" lon="10.8612126"><ele>615.0</ele><time>2026-03-22T09:46:51.955Z</time></trkpt><trkpt lat="45.5638511" lon="10.8612507"><ele>615.0</ele><time>2026-03-22T09:46:52.969Z</time></trkpt><trkpt lat="45.563949" lon="10.861332"><ele>615.0</ele><time>2026-03-22T09:46:54.959Z</time></trkpt><trkpt lat="45.5640211" lon="10.8614269"><ele>615.0</ele><time>2026-03-22T09:46:57.03Z</time></trkpt><trkpt lat="45.5640624" lon="10.8615857"><ele>615.0</ele><time>2026-03-22T09:46:58.966Z</time></trkpt><trkpt lat="45.5640922" lon="10.8616707"><ele>615.8333333333334</ele><time>2026-03-22T09:46:59.947Z</time></trkpt><trkpt lat="45.5641478" lon="10.8617832"><ele>616.6666666666666</ele><time>2026-03-22T09:47:02.022Z</time></trkpt><trkpt lat="45.5642099" lon="10.8618607"><ele>617.5</ele><time>2026-03-22T09:47:03.99Z</time></trkpt><trkpt lat="45.5642817" lon="10.8618677"><ele>618.3333333333333</ele><time>2026-03-22T09:47:04.966Z</time></trkpt><trkpt lat="45.564348" lon="10.8618695"><ele>619.1666666666666</ele><time>2026-03-22T09:47:05.958Z</time></trkpt><trkpt lat="45.5644598" lon="10.8619044"><ele>620.0</ele><time>2026-03-22T09:47:07.971Z</time></trkpt><trkpt lat="45.5645689" lon="10.8619848"><ele>620.0</ele><time>2026-03-22T09:47:09.975Z</time></trkpt><trkpt lat="45.56463" lon="10.8620277"><ele>620.0</ele><time>2026-03-22T09:47:10.973Z</time></trkpt><trkpt lat="45.5646904" lon="10.8620746"><ele>620.0</ele><time>2026-03-22T09:47:11.964Z</time></trkpt><trkpt lat="45.564787" lon="10.8621556"><ele>620.0</ele><time>2026-03-22T09:47:13.972Z</time></trkpt><trkpt lat="45.5648791" lon="10.8621932"><ele>620.0</ele><time>2026-03-22T09:47:15.973Z</time></trkpt><trkpt lat="45.5649474" lon="10.8622057"><ele>620.0</ele><time>2026-03-22T09:47:17.965Z</time></trkpt><trkpt lat="45.5650546" lon="10.8622119"><ele>620.0</ele><time>2026-03-22T09:47:19.972Z</time></trkpt><trkpt lat="45.5651448" lon="10.8622223"><ele>620.0</ele><time>2026-03-22T09:47:21.971Z</time></trkpt><trkpt lat="45.565226" lon="10.8622457"><ele>620.0</ele><time>2026-03-22T09:47:23.976Z</time></trkpt><trkpt lat="45.5652918" lon="10.8622837"><ele>620.0</ele><time>2026-03-22T09:47:25.973Z</time></trkpt><trkpt lat="45.5653462" lon="10.8623333"><ele>620.0</ele><time>2026-03-22T09:47:32.961Z</time></trkpt><trkpt lat="45.5654213" lon="10.8624539"><ele>620.0</ele><time>2026-03-22T09:47:34.966Z</time></trkpt><trkpt lat="45.5654697" lon="10.8625425"><ele>620.1666666666666</ele><time>2026-03-22T09:47:35.966Z</time></trkpt><trkpt lat="45.5655155" lon="10.8626221"><ele>620.3333333333333</ele><time>2026-03-22T09:47:36.968Z</time></trkpt><trkpt lat="45.5655742" lon="10.8627256"><ele>620.5</ele><time>2026-03-22T09:47:38.977Z</time></trkpt><trkpt lat="45.5656165" lon="10.8628"><ele>620.6666666666666</ele><time>2026-03-22T09:47:39.968Z</time></trkpt><trkpt lat="45.5656815" lon="10.8628849"><ele>620.8333333333334</ele><time>2026-03-22T09:47:40.969Z</time></trkpt><trkpt lat="45.5657518" lon="10.8629772"><ele>621.0</ele><time>2026-03-22T09:47:41.977Z</time></trkpt><trkpt lat="45.5658203" lon="10.8630874"><ele>621.0</ele><time>2026-03-22T09:47:42.967Z</time></trkpt><trkpt lat="45.5658881" lon="10.8631938"><ele>621.0</ele><time>2026-03-22T09:47:43.975Z</time></trkpt><trkpt lat="45.5659556" lon="10.8633005"><ele>621.0</ele><time>2026-03-22T09:47:44.974Z</time></trkpt><trkpt lat="45.5660355" lon="10.8634103"><ele>621.0</ele><time>2026-03-22T09:47:45.973Z</time></trkpt><trkpt lat="45.5661181" lon="10.863514"><ele>621.0</ele><time>2026-03-22T09:47:46.95Z</time></trkpt><trkpt lat="45.5662112" lon="10.8636312"><ele>621.75</ele><time>2026-03-22T09:47:47.97Z</time></trkpt><trkpt lat="45.5663083" lon="10.8637342"><ele>622.5</ele><time>2026-03-22T09:47:48.968Z</time></trkpt><trkpt lat="45.5664159" lon="10.8638344"><ele>623.25</ele><time>2026-03-22T09:47:49.964Z</time></trkpt><trkpt lat="45.5665281" lon="10.863943"><ele>624.0</ele><time>2026-03-22T09:47:50.966Z</time></trkpt><trkpt lat="45.5666523" lon="10.8640522"><ele>624.0</ele><time>2026-03-22T09:47:51.963Z</time></trkpt><trkpt lat="45.566772" lon="10.8641638"><ele>624.0</ele><time>2026-03-22T09:47:52.971Z</time></trkpt><trkpt lat="45.5668904" lon="10.8642709"><ele>624.0</ele><time>2026-03-22T09:47:53.967Z</time></trkpt><trkpt lat="45.5669992" lon="10.8643701"><ele>624.0</ele><time>2026-03-22T09:47:54.967Z</time></trkpt><trkpt lat="45.5671074" lon="10.8644614"><ele>621.75</ele><time>2026-03-22T09:47:55.97Z</time></trkpt><trkpt lat="45.5672182" lon="10.8645427"><ele>619.5</ele><time>2026-03-22T09:47:56.972Z</time></trkpt><trkpt lat="45.5673346" lon="10.8645988"><ele>617.25</ele><time>2026-03-22T09:47:57.972Z</time></trkpt><trkpt lat="45.5674519" lon="10.8646341"><ele>615.0</ele><time>2026-03-22T09:47:58.968Z</time></trkpt><trkpt lat="45.5675559" lon="10.864654"><ele>615.0</ele><time>2026-03-22T09:47:59.969Z</time></trkpt><trkpt lat="45.5676484" lon="10.8646735"><ele>615.0</ele><time>2026-03-22T09:48:00.974Z</time></trkpt><trkpt lat="45.5677267" lon="10.8646984"><ele>615.0</ele><time>2026-03-22T09:48:01.976Z</time></trkpt><trkpt lat="45.5677962" lon="10.8647381"><ele>615.0</ele><time>2026-03-22T09:48:02.972Z</time></trkpt><trkpt lat="45.5678574" lon="10.864765"><ele>615.0</ele><time>2026-03-22T09:48:03.965Z</time></trkpt><trkpt lat="45.5679733" lon="10.8647604"><ele>615.0</ele><time>2026-03-22T09:48:05.95Z</time></trkpt><trkpt lat="45.5680621" lon="10.8647492"><ele>618.0</ele><time>2026-03-22T09:48:07.969Z</time></trkpt><trkpt lat="45.5681409" lon="10.8647151"><ele>621.0</ele><time>2026-03-22T09:48:14.974Z</time></trkpt><trkpt lat="45.5682041" lon="10.8646888"><ele>624.0</ele><time>2026-03-22T09:48:16.964Z</time></trkpt><trkpt lat="45.5682623" lon="10.8646263"><ele>627.0</ele><time>2026-03-22T09:48:20.968Z</time></trkpt><trkpt lat="45.5683113" lon="10.8645586"><ele>630.0</ele><time>2026-03-22T09:48:22.945Z</time></trkpt><trkpt lat="45.5683728" lon="10.8645231"><ele>633.0</ele><time>2026-03-22T09:48:24.96Z</time></trkpt><trkpt lat="45.5684383" lon="10.8644569"><ele>636.0</ele><time>2026-03-22T09:48:26.965Z</time></trkpt><trkpt lat="45.5684924" lon="10.8643926"><ele>636.0</ele><time>2026-03-22T09:48:28.959Z</time></trkpt><trkpt lat="45.5685642" lon="10.8643319"><ele>636.0</ele><time>2026-03-22T09:48:31.981Z</time></trkpt><trkpt lat="45.5686298" lon="10.864276"><ele>636.0</ele><time>2026-03-22T09:48:33.959Z</time></trkpt><trkpt lat="45.568691" lon="10.8642309"><ele>636.0</ele><time>2026-03-22T09:48:35.964Z</time></trkpt><trkpt lat="45.5687769" lon="10.8641816"><ele>636.0</ele><time>2026-03-22T09:48:38.96Z</time></trkpt><trkpt lat="45.5688536" lon="10.8641607"><ele>636.0</ele><time>2026-03-22T09:48:41.968Z</time></trkpt><trkpt lat="45.5689317" lon="10.8641989"><ele>638.0</ele><time>2026-03-22T09:48:44.958Z</time></trkpt><trkpt lat="45.568988" lon="10.86413"><ele>640.0</ele><time>2026-03-22T09:49:16.959Z</time></trkpt><trkpt lat="45.5689047" lon="10.8640476"><ele>642.0</ele><time>2026-03-22T09:49:19.053Z</time></trkpt><trkpt lat="45.5688329" lon="10.8640166"><ele>644.0</ele><time>2026-03-22T09:49:19.969Z</time></trkpt><trkpt lat="45.5687524" lon="10.8639788"><ele>646.0</ele><time>2026-03-22T09:49:20.969Z</time></trkpt><trkpt lat="45.568691" lon="10.8639295"><ele>648.0</ele><time>2026-03-22T09:49:21.972Z</time></trkpt><trkpt lat="45.5686464" lon="10.8638631"><ele>648.0</ele><time>2026-03-22T09:49:22.985Z</time></trkpt><trkpt lat="45.5686584" lon="10.8637425"><ele>648.0</ele><time>2026-03-22T09:49:24.987Z</time></trkpt><trkpt lat="45.5687533" lon="10.863668"><ele>648.0</ele><time>2026-03-22T09:49:26.973Z</time></trkpt><trkpt lat="45.5688163" lon="10.8636313"><ele>648.0</ele><time>2026-03-22T09:49:27.982Z</time></trkpt><trkpt lat="45.5688853" lon="10.8635927"><ele>648.0</ele><time>2026-03-22T09:49:28.973Z</time></trkpt><trkpt lat="45.5689628" lon="10.8635494"><ele>648.0</ele><time>2026-03-22T09:49:29.992Z</time></trkpt><trkpt lat="45.5690537" lon="10.8635034"><ele>650.1666666666666</ele><time>2026-03-22T09:49:30.977Z</time></trkpt><trkpt lat="45.5691445" lon="10.8634688"><ele>652.3333333333334</ele><time>2026-03-22T09:49:31.972Z</time></trkpt><trkpt lat="45.5692363" lon="10.8634332"><ele>654.5</ele><time>2026-03-22T09:49:32.98Z</time></trkpt><trkpt lat="45.5693193" lon="10.8633955"><ele>656.6666666666667</ele><time>2026-03-22T09:49:34.015Z</time></trkpt><trkpt lat="45.5693976" lon="10.8633745"><ele>658.8333333333334</ele><time>2026-03-22T09:49:35.001Z</time></trkpt><trkpt lat="45.5694684" lon="10.8633561"><ele>661.0</ele><time>2026-03-22T09:49:35.984Z</time></trkpt><trkpt lat="45.5695418" lon="10.8633438"><ele>665.5</ele><time>2026-03-22T09:49:37.046Z</time></trkpt><trkpt lat="45.56962" lon="10.8633189"><ele>670.0</ele><time>2026-03-22T09:49:38.032Z</time></trkpt><trkpt lat="45.5696942" lon="10.8632892"><ele>674.5</ele><time>2026-03-22T09:49:39.032Z</time></trkpt><trkpt lat="45.5697684" lon="10.8632535"><ele>679.0</ele><time>2026-03-22T09:49:39.985Z</time></trkpt><trkpt lat="45.5698441" lon="10.8632189"><ele>683.5</ele><time>2026-03-22T09:49:40.965Z</time></trkpt><trkpt lat="45.5699169" lon="10.8631715"><ele>688.0</ele><time>2026-03-22T09:49:41.992Z</time></trkpt><trkpt lat="45.5699907" lon="10.8631132"><ele>688.0</ele><time>2026-03-22T09:49:43.039Z</time></trkpt><trkpt lat="45.5700674" lon="10.8630518"><ele>688.0</ele><time>2026-03-22T09:49:44.03Z</time></trkpt><trkpt lat="45.5701417" lon="10.8630064"><ele>688.0</ele><time>2026-03-22T09:49:44.981Z</time></trkpt><trkpt lat="45.5702206" lon="10.8629786"><ele>688.0</ele><time>2026-03-22T09:49:45.981Z</time></trkpt><trkpt lat="45.5703001" lon="10.862968"><ele>688.0</ele><time>2026-03-22T09:49:46.975Z</time></trkpt><trkpt lat="45.5703921" lon="10.8629601"><ele>688.0</ele><time>2026-03-22T09:49:48.041Z</time></trkpt><trkpt lat="45.5704946" lon="10.8629442"><ele>690.8333333333334</ele><time>2026-03-22T09:49:49.04Z</time></trkpt><trkpt lat="45.5705846" lon="10.8629183"><ele>693.6666666666667</ele><time>2026-03-22T09:49:49.97Z</time></trkpt><trkpt lat="45.5706593" lon="10.8628898"><ele>696.5</ele><time>2026-03-22T09:49:50.975Z</time></trkpt><trkpt lat="45.5707325" lon="10.8628536"><ele>699.3333333333334</ele><time>2026-03-22T09:49:51.983Z</time></trkpt><trkpt lat="45.5708297" lon="10.8628084"><ele>702.1666666666666</ele><time>2026-03-22T09:49:53.985Z</time></trkpt><trkpt lat="45.5709122" lon="10.8628339"><ele>705.0</ele><time>2026-03-22T09:49:56.978Z</time></trkpt><trkpt lat="45.5710086" lon="10.8629007"><ele>705.0</ele><time>2026-03-22T09:49:59.048Z</time></trkpt><trkpt lat="45.5711153" lon="10.8629973"><ele>705.0</ele><time>2026-03-22T09:50:00.971Z</time></trkpt><trkpt lat="45.5711706" lon="10.8630404"><ele>705.0</ele><time>2026-03-22T09:50:01.982Z</time></trkpt><trkpt lat="45.571284" lon="10.8630706"><ele>705.0</ele><time>2026-03-22T09:50:03.979Z</time></trkpt><trkpt lat="45.5714013" lon="10.8630639"><ele>705.0</ele><time>2026-03-22T09:50:05.984Z</time></trkpt><trkpt lat="45.5714755" lon="10.8630763"><ele>707.6666666666666</ele><time>2026-03-22T09:50:06.989Z</time></trkpt><trkpt lat="45.5715556" lon="10.8631039"><ele>710.3333333333334</ele><time>2026-03-22T09:50:07.977Z</time></trkpt><trkpt lat="45.5716422" lon="10.8631302"><ele>713.0</ele><time>2026-03-22T09:50:09.034Z</time></trkpt><trkpt lat="45.5717267" lon="10.8631521"><ele>715.6666666666667</ele><time>2026-03-22T09:50:09.996Z</time></trkpt><trkpt lat="45.5718118" lon="10.8631653"><ele>718.3333333333334</ele><time>2026-03-22T09:50:10.983Z</time></trkpt><trkpt lat="45.5718961" lon="10.8631895"><ele>721.0</ele><time>2026-03-22T09:50:11.976Z</time></trkpt><trkpt lat="45.5719815" lon="10.8632162"><ele>723.0</ele><time>2026-03-22T09:50:12.982Z</time></trkpt><trkpt lat="45.5720674" lon="10.863231"><ele>725.0</ele><time>2026-03-22T09:50:13.976Z</time></trkpt><trkpt lat="45.5721407" lon="10.8632368"><ele>727.0</ele><time>2026-03-22T09:50:14.975Z</time></trkpt><trkpt lat="45.572209" lon="10.8632316"><ele>729.0</ele><time>2026-03-22T09:50:15.99Z</time></trkpt><trkpt lat="45.5722746" lon="10.8632374"><ele>731.0</ele><time>2026-03-22T09:50:16.968Z</time></trkpt><trkpt lat="45.5723398" lon="10.8632414"><ele>733.0</ele><time>2026-03-22T09:50:17.996Z</time></trkpt><trkpt lat="45.5724085" lon="10.8632429"><ele>735.0</ele><time>2026-03-22T09:50:18.974Z</time></trkpt><trkpt lat="45.5724818" lon="10.8632423"><ele>735.0</ele><time>2026-03-22T09:50:19.972Z</time></trkpt><trkpt lat="45.5725593" lon="10.8632343"><ele>735.0</ele><time>2026-03-22T09:50:20.972Z</time></trkpt><trkpt lat="45.5726451" lon="10.8632077"><ele>735.0</ele><time>2026-03-22T09:50:21.963Z</time></trkpt><trkpt lat="45.5727389" lon="10.8631676"><ele>735.0</ele><time>2026-03-22T09:50:22.973Z</time></trkpt><trkpt lat="45.5728251" lon="10.8631255"><ele>735.0</ele><time>2026-03-22T09:50:24.047Z</time></trkpt><trkpt lat="45.5729169" lon="10.8630903"><ele>737.0</ele><time>2026-03-22T09:50:24.971Z</time></trkpt><trkpt lat="45.5729969" lon="10.8630686"><ele>739.0</ele><time>2026-03-22T09:50:25.979Z</time></trkpt><trkpt lat="45.573077" lon="10.8630463"><ele>741.0</ele><time>2026-03-22T09:50:26.971Z</time></trkpt><trkpt lat="45.5731506" lon="10.8630249"><ele>743.0</ele><time>2026-03-22T09:50:28.045Z</time></trkpt><trkpt lat="45.5732182" lon="10.8630056"><ele>745.0</ele><time>2026-03-22T09:50:29.023Z</time></trkpt><trkpt lat="45.5732832" lon="10.8629883"><ele>747.0</ele><time>2026-03-22T09:50:29.976Z</time></trkpt><trkpt lat="45.5733544" lon="10.8629884"><ele>749.0</ele><time>2026-03-22T09:50:30.977Z</time></trkpt><trkpt lat="45.5734695" lon="10.8629873"><ele>749.0</ele><time>2026-03-22T09:50:33.034Z</time></trkpt><trkpt lat="45.5735721" lon="10.8630103"><ele>749.0</ele><time>2026-03-22T09:50:34.969Z</time></trkpt><trkpt lat="45.5736752" lon="10.8630426"><ele>749.0</ele><time>2026-03-22T09:50:36.982Z</time></trkpt><trkpt lat="45.5737371" lon="10.8630597"><ele>749.0</ele><time>2026-03-22T09:50:38.029Z</time></trkpt><trkpt lat="45.5738596" lon="10.8630529"><ele>749.0</ele><time>2026-03-22T09:50:39.963Z</time></trkpt><trkpt lat="45.5739811" lon="10.8630185"><ele>751.6666666666666</ele><time>2026-03-22T09:50:41.985Z</time></trkpt><trkpt lat="45.574118" lon="10.8629902"><ele>754.3333333333333</ele><time>2026-03-22T09:50:43.965Z</time></trkpt><trkpt lat="45.5741925" lon="10.8629748"><ele>757.0</ele><time>2026-03-22T09:50:44.963Z</time></trkpt><trkpt lat="45.5742713" lon="10.8629648"><ele>759.6666666666666</ele><time>2026-03-22T09:50:45.974Z</time></trkpt><trkpt lat="45.5743521" lon="10.8629536"><ele>762.3333333333334</ele><time>2026-03-22T09:50:46.965Z</time></trkpt><trkpt lat="45.5744268" lon="10.8629404"><ele>765.0</ele><time>2026-03-22T09:50:48.025Z</time></trkpt><trkpt lat="45.5744992" lon="10.862929"><ele>769.4</ele><time>2026-03-22T09:50:49.022Z</time></trkpt><trkpt lat="45.5746224" lon="10.8628829"><ele>773.8</ele><time>2026-03-22T09:50:50.977Z</time></trkpt><trkpt lat="45.5746828" lon="10.8628265"><ele>778.2</ele><time>2026-03-22T09:50:51.952Z</time></trkpt><trkpt lat="45.5747629" lon="10.8627754"><ele>782.6</ele><time>2026-03-22T09:50:52.969Z</time></trkpt><trkpt lat="45.5748477" lon="10.8627294"><ele>787.0</ele><time>2026-03-22T09:50:53.965Z</time></trkpt><trkpt lat="45.5749251" lon="10.8626981"><ele>786.9999999999999</ele><time>2026-03-22T09:50:54.97Z</time></trkpt><trkpt lat="45.5749944" lon="10.8626674"><ele>787.0</ele><time>2026-03-22T09:50:55.974Z</time></trkpt><trkpt lat="45.5750592" lon="10.862637"><ele>787.0</ele><time>2026-03-22T09:50:56.974Z</time></trkpt><trkpt lat="45.5751173" lon="10.8625955"><ele>787.0</ele><time>2026-03-22T09:50:57.959Z</time></trkpt><trkpt lat="45.5752143" lon="10.8625319"><ele>786.9999999999999</ele><time>2026-03-22T09:50:59.967Z</time></trkpt><trkpt lat="45.5753111" lon="10.8624693"><ele>787.0</ele><time>2026-03-22T09:51:01.974Z</time></trkpt><trkpt lat="45.5753982" lon="10.862406"><ele>790.6</ele><time>2026-03-22T09:51:03.966Z</time></trkpt><trkpt lat="45.5754951" lon="10.8623376"><ele>794.2</ele><time>2026-03-22T09:51:05.967Z</time></trkpt><trkpt lat="45.5755966" lon="10.8622836"><ele>797.8</ele><time>2026-03-22T09:51:07.971Z</time></trkpt><trkpt lat="45.5756761" lon="10.8622196"><ele>801.4</ele><time>2026-03-22T09:51:09.981Z</time></trkpt><trkpt lat="45.5757641" lon="10.8621364"><ele>805.0</ele><time>2026-03-22T09:51:11.97Z</time></trkpt><trkpt lat="45.5758449" lon="10.8620658"><ele>805.0</ele><time>2026-03-22T09:51:13.964Z</time></trkpt><trkpt lat="45.5759277" lon="10.8619717"><ele>805.0</ele><time>2026-03-22T09:51:15.956Z</time></trkpt><trkpt lat="45.5760266" lon="10.8618467"><ele>805.0</ele><time>2026-03-22T09:51:17.966Z</time></trkpt><trkpt lat="45.5760837" lon="10.8617929"><ele>805.0</ele><time>2026-03-22T09:51:18.969Z</time></trkpt><trkpt lat="45.5761885" lon="10.8617009"><ele>805.0</ele><time>2026-03-22T09:51:20.957Z</time></trkpt><trkpt lat="45.5762476" lon="10.8616557"><ele>807.1666666666666</ele><time>2026-03-22T09:51:21.969Z</time></trkpt><trkpt lat="45.5763103" lon="10.8616075"><ele>809.3333333333333</ele><time>2026-03-22T09:51:22.971Z</time></trkpt><trkpt lat="45.5763664" lon="10.8615611"><ele>811.5</ele><time>2026-03-22T09:51:23.969Z</time></trkpt><trkpt lat="45.5764613" lon="10.8614512"><ele>813.6666666666667</ele><time>2026-03-22T09:51:25.958Z</time></trkpt><trkpt lat="45.5765297" lon="10.8614253"><ele>815.8333333333334</ele><time>2026-03-22T09:51:27.979Z</time></trkpt><trkpt lat="45.5766079" lon="10.8614859"><ele>818.0</ele><time>2026-03-22T09:51:29.963Z</time></trkpt><trkpt lat="45.5766675" lon="10.861544"><ele>818.0000000000001</ele><time>2026-03-22T09:51:31.975Z</time></trkpt><trkpt lat="45.5767404" lon="10.861459"><ele>818.0</ele><time>2026-03-22T09:51:35.969Z</time></trkpt><trkpt lat="45.5767857" lon="10.8613899"><ele>818.0</ele><time>2026-03-22T09:53:52.98Z</time></trkpt><trkpt lat="45.5768608" lon="10.861413"><ele>818.0</ele><time>2026-03-22T09:54:10.963Z</time></trkpt><trkpt lat="45.5768949" lon="10.8615174"><ele>818.0000000000001</ele><time>2026-03-22T09:54:13.953Z</time></trkpt><trkpt lat="45.5769444" lon="10.8615933"><ele>818.0</ele><time>2026-03-22T09:54:16.971Z</time></trkpt><trkpt lat="45.5769958" lon="10.8616724"><ele>823.2857142857142</ele><time>2026-03-22T09:54:19.959Z</time></trkpt><trkpt lat="45.5770358" lon="10.8617554"><ele>828.5714285714287</ele><time>2026-03-22T09:54:25.959Z</time></trkpt><trkpt lat="45.5770804" lon="10.8618374"><ele>833.8571428571429</ele><time>2026-03-22T09:54:32.959Z</time></trkpt><trkpt lat="45.5770858" lon="10.8619465"><ele>839.1428571428571</ele><time>2026-03-22T09:54:40.961Z</time></trkpt><trkpt lat="45.5770352" lon="10.86201"><ele>844.4285714285713</ele><time>2026-03-22T09:54:43.96Z</time></trkpt><trkpt lat="45.5770614" lon="10.8621315"><ele>849.7142857142858</ele><time>2026-03-22T09:54:46.965Z</time></trkpt><trkpt lat="45.577095" lon="10.862218"><ele>855.0</ele><time>2026-03-22T09:54:48.962Z</time></trkpt><trkpt lat="45.5771222" lon="10.8623109"><ele>855.0</ele><time>2026-03-22T09:54:50.964Z</time></trkpt><trkpt lat="45.57718" lon="10.8624232"><ele>855.0</ele><time>2026-03-22T09:54:54.051Z</time></trkpt><trkpt lat="45.5772459" lon="10.8625019"><ele>855.0</ele><time>2026-03-22T09:54:56.956Z</time></trkpt><trkpt lat="45.577305" lon="10.8625624"><ele>855.0</ele><time>2026-03-22T09:54:58.968Z</time></trkpt><trkpt lat="45.5773467" lon="10.8626597"><ele>855.0</ele><time>2026-03-22T09:55:01.961Z</time></trkpt><trkpt lat="45.5773888" lon="10.862745"><ele>855.0</ele><time>2026-03-22T09:55:37.961Z</time></trkpt><trkpt lat="45.5774179" lon="10.8628344"><ele>856.8571428571429</ele><time>2026-03-22T09:55:40.964Z</time></trkpt><trkpt lat="45.5773927" lon="10.8629349"><ele>858.7142857142857</ele><time>2026-03-22T09:55:43.96Z</time></trkpt><trkpt lat="45.5773422" lon="10.8629924"><ele>860.5714285714286</ele><time>2026-03-22T09:55:45.955Z</time></trkpt><trkpt lat="45.5773012" lon="10.8630649"><ele>862.4285714285714</ele><time>2026-03-22T09:55:47.963Z</time></trkpt><trkpt lat="45.5772948" lon="10.863158"><ele>864.2857142857142</ele><time>2026-03-22T09:55:49.963Z</time></trkpt><trkpt lat="45.5773164" lon="10.86326"><ele>866.1428571428571</ele><time>2026-03-22T09:55:51.961Z</time></trkpt><trkpt lat="45.5773422" lon="10.8633442"><ele>868.0</ele><time>2026-03-22T09:55:53.95Z</time></trkpt><trkpt lat="45.5773785" lon="10.8634283"><ele>870.6666666666666</ele><time>2026-03-22T09:55:55.971Z</time></trkpt><trkpt lat="45.5774304" lon="10.8635083"><ele>873.3333333333333</ele><time>2026-03-22T09:55:57.962Z</time></trkpt><trkpt lat="45.577483" lon="10.8636072"><ele>876.0</ele><time>2026-03-22T09:56:00.968Z</time></trkpt><trkpt lat="45.5775199" lon="10.8636913"><ele>878.6666666666667</ele><time>2026-03-22T09:56:02.955Z</time></trkpt><trkpt lat="45.5775712" lon="10.8637798"><ele>881.3333333333334</ele><time>2026-03-22T09:56:05.957Z</time></trkpt><trkpt lat="45.577642" lon="10.8638268"><ele>884.0</ele><time>2026-03-22T09:56:09.946Z</time></trkpt><trkpt lat="45.5777068" lon="10.8639192"><ele>884.0000000000001</ele><time>2026-03-22T09:56:13.964Z</time></trkpt><trkpt lat="45.5777493" lon="10.8639965"><ele>884.0</ele><time>2026-03-22T09:56:21.969Z</time></trkpt><trkpt lat="45.5777963" lon="10.8640997"><ele>884.0</ele><time>2026-03-22T09:56:24.965Z</time></trkpt><trkpt lat="45.57785" lon="10.8641571"><ele>884.0</ele><time>2026-03-22T09:56:26.935Z</time></trkpt><trkpt lat="45.5778668" lon="10.8642843"><ele>884.0000000000001</ele><time>2026-03-22T09:56:29.936Z</time></trkpt><trkpt lat="45.5778784" lon="10.8643913"><ele>884.0</ele><time>2026-03-22T09:56:32.932Z</time></trkpt><trkpt lat="45.57788" lon="10.8645185"><ele>888.0000000000001</ele><time>2026-03-22T09:56:36.96Z</time></trkpt><trkpt lat="45.5779057" lon="10.8646221"><ele>892.0</ele><time>2026-03-22T09:56:38.939Z</time></trkpt><trkpt lat="45.5779598" lon="10.8647142"><ele>896.0</ele><time>2026-03-22T09:56:40.936Z</time></trkpt><trkpt lat="45.5780133" lon="10.8647662"><ele>900.0</ele><time>2026-03-22T09:56:42.934Z</time></trkpt><trkpt lat="45.5780985" lon="10.8648084"><ele>904.0000000000001</ele><time>2026-03-22T09:56:45.956Z</time></trkpt><trkpt lat="45.5781601" lon="10.8647562"><ele>908.0</ele><time>2026-03-22T10:00:49.961Z</time></trkpt><trkpt lat="45.5782222" lon="10.8648078"><ele>908.0000000000001</ele><time>2026-03-22T10:00:52.961Z</time></trkpt><trkpt lat="45.5782934" lon="10.8648799"><ele>908.0</ele><time>2026-03-22T10:00:54.952Z</time></trkpt><trkpt lat="45.5783335" lon="10.8649779"><ele>908.0</ele><time>2026-03-22T10:00:57.949Z</time></trkpt><trkpt lat="45.5783072" lon="10.865087"><ele>908.0</ele><time>2026-03-22T10:01:00.963Z</time></trkpt><trkpt lat="45.5782711" lon="10.8652151"><ele>908.0000000000001</ele><time>2026-03-22T10:01:03.97Z</time></trkpt><trkpt lat="45.5782343" lon="10.8652965"><ele>908.0</ele><time>2026-03-22T10:01:05.965Z</time></trkpt><trkpt lat="45.5781882" lon="10.8653805"><ele>907.3333333333334</ele><time>2026-03-22T10:01:07.968Z</time></trkpt><trkpt lat="45.5781467" lon="10.8654638"><ele>906.6666666666667</ele><time>2026-03-22T10:01:09.955Z</time></trkpt><trkpt lat="45.5781144" lon="10.8655445"><ele>906.0</ele><time>2026-03-22T10:01:11.964Z</time></trkpt><trkpt lat="45.5780951" lon="10.8656565"><ele>905.3333333333333</ele><time>2026-03-22T10:01:14.96Z</time></trkpt><trkpt lat="45.5781044" lon="10.8657471"><ele>904.6666666666666</ele><time>2026-03-22T10:01:16.958Z</time></trkpt><trkpt lat="45.5781289" lon="10.8658728"><ele>904.0</ele><time>2026-03-22T10:01:19.944Z</time></trkpt><trkpt lat="45.5781311" lon="10.8659855"><ele>901.8333333333333</ele><time>2026-03-22T10:01:22.96Z</time></trkpt><trkpt lat="45.5781277" lon="10.8660839"><ele>899.6666666666666</ele><time>2026-03-22T10:01:25.961Z</time></trkpt><trkpt lat="45.5781471" lon="10.8662244"><ele>897.5</ele><time>2026-03-22T10:01:30.961Z</time></trkpt><trkpt lat="45.5781466" lon="10.8663617"><ele>895.3333333333333</ele><time>2026-03-22T10:01:33.961Z</time></trkpt><trkpt lat="45.5781626" lon="10.8664775"><ele>893.1666666666666</ele><time>2026-03-22T10:01:35.962Z</time></trkpt><trkpt lat="45.5781867" lon="10.866561"><ele>891.0</ele><time>2026-03-22T10:01:37.959Z</time></trkpt><trkpt lat="45.5782082" lon="10.8666466"><ele>891.0000000000001</ele><time>2026-03-22T10:01:39.955Z</time></trkpt><trkpt lat="45.5782392" lon="10.8667368"><ele>891.0</ele><time>2026-03-22T10:01:41.963Z</time></trkpt><trkpt lat="45.5782799" lon="10.8668269"><ele>891.0</ele><time>2026-03-22T10:01:43.961Z</time></trkpt><trkpt lat="45.5783099" lon="10.8669143"><ele>891.0</ele><time>2026-03-22T10:01:45.947Z</time></trkpt><trkpt lat="45.5783411" lon="10.867004"><ele>891.0</ele><time>2026-03-22T10:01:47.944Z</time></trkpt><trkpt lat="45.5783764" lon="10.8671077"><ele>891.0000000000001</ele><time>2026-03-22T10:01:50.952Z</time></trkpt><trkpt lat="45.5783968" lon="10.8671966"><ele>891.0</ele><time>2026-03-22T10:01:53.959Z</time></trkpt><trkpt lat="45.5784091" lon="10.8672943"><ele>887.6666666666666</ele><time>2026-03-22T10:01:56.96Z</time></trkpt><trkpt lat="45.5784169" lon="10.8674069"><ele>884.3333333333333</ele><time>2026-03-22T10:02:00.96Z</time></trkpt><trkpt lat="45.5784435" lon="10.8675387"><ele>881.0</ele><time>2026-03-22T10:02:19.955Z</time></trkpt><trkpt lat="45.5784429" lon="10.8676746"><ele>877.6666666666666</ele><time>2026-03-22T10:02:24.961Z</time></trkpt><trkpt lat="45.5784536" lon="10.8677705"><ele>874.3333333333333</ele><time>2026-03-22T10:02:27.955Z</time></trkpt><trkpt lat="45.5784456" lon="10.8678803"><ele>871.0</ele><time>2026-03-22T10:02:32.96Z</time></trkpt><trkpt lat="45.5784104" lon="10.8679573"><ele>868.1428571428571</ele><time>2026-03-22T10:02:35.965Z</time></trkpt><trkpt lat="45.5784135" lon="10.8680674"><ele>865.2857142857142</ele><time>2026-03-22T10:02:39.965Z</time></trkpt><trkpt lat="45.5784312" lon="10.8681585"><ele>862.4285714285714</ele><time>2026-03-22T10:02:43.955Z</time></trkpt><trkpt lat="45.5784478" lon="10.868248"><ele>859.5714285714286</ele><time>2026-03-22T10:02:47.962Z</time></trkpt><trkpt lat="45.5784336" lon="10.868363"><ele>856.7142857142858</ele><time>2026-03-22T10:02:51.957Z</time></trkpt><trkpt lat="45.5784048" lon="10.868455"><ele>853.8571428571429</ele><time>2026-03-22T10:02:54.957Z</time></trkpt><trkpt lat="45.5783696" lon="10.8685439"><ele>851.0</ele><time>2026-03-22T10:02:57.962Z</time></trkpt><trkpt lat="45.5783313" lon="10.8686206"><ele>849.0</ele><time>2026-03-22T10:03:01.964Z</time></trkpt><trkpt lat="45.5782633" lon="10.8686535"><ele>847.0</ele><time>2026-03-22T10:03:04.965Z</time></trkpt><trkpt lat="45.5782064" lon="10.8687025"><ele>845.0</ele><time>2026-03-22T10:03:07.958Z</time></trkpt><trkpt lat="45.5781347" lon="10.8687415"><ele>843.0</ele><time>2026-03-22T10:03:10.963Z</time></trkpt><trkpt lat="45.578078" lon="10.868782"><ele>841.0</ele><time>2026-03-22T10:03:14.959Z</time></trkpt><trkpt lat="45.57803" lon="10.8688838"><ele>839.0</ele><time>2026-03-22T10:03:18.95Z</time></trkpt><trkpt lat="45.5779884" lon="10.8689811"><ele>837.0</ele><time>2026-03-22T10:03:21.953Z</time></trkpt><trkpt lat="45.5779584" lon="10.8690908"><ele>837.0</ele><time>2026-03-22T10:03:24.959Z</time></trkpt><trkpt lat="45.57791" lon="10.8691858"><ele>837.0</ele><time>2026-03-22T10:03:27.943Z</time></trkpt><trkpt lat="45.5778701" lon="10.8692747"><ele>837.0</ele><time>2026-03-22T10:03:30.953Z</time></trkpt><trkpt lat="45.5778015" lon="10.86934"><ele>837.0</ele><time>2026-03-22T10:03:33.958Z</time></trkpt><trkpt lat="45.5777264" lon="10.8694054"><ele>837.0</ele><time>2026-03-22T10:03:36.963Z</time></trkpt><trkpt lat="45.5776708" lon="10.8694507"><ele>837.0</ele><time>2026-03-22T10:03:39.972Z</time></trkpt><trkpt lat="45.5776113" lon="10.8694914"><ele>830.2857142857143</ele><time>2026-03-22T10:03:42.956Z</time></trkpt><trkpt lat="45.5775286" lon="10.8695095"><ele>823.5714285714287</ele><time>2026-03-22T10:03:45.965Z</time></trkpt><trkpt lat="45.5774647" lon="10.8695711"><ele>816.8571428571429</ele><time>2026-03-22T10:03:49.952Z</time></trkpt><trkpt lat="45.577427" lon="10.8696435"><ele>810.1428571428571</ele><time>2026-03-22T10:03:52.96Z</time></trkpt><trkpt lat="45.5773649" lon="10.8696587"><ele>803.4285714285714</ele><time>2026-03-22T10:03:55.96Z</time></trkpt><trkpt lat="45.5772965" lon="10.8696876"><ele>796.7142857142857</ele><time>2026-03-22T10:03:58.965Z</time></trkpt><trkpt lat="45.5772253" lon="10.8697151"><ele>790.0</ele><time>2026-03-22T10:04:01.959Z</time></trkpt><trkpt lat="45.5771385" lon="10.8697252"><ele>790.0</ele><time>2026-03-22T10:04:04.958Z</time></trkpt><trkpt lat="45.5770665" lon="10.8697227"><ele>790.0</ele><time>2026-03-22T10:04:07.96Z</time></trkpt><trkpt lat="45.5770082" lon="10.8696822"><ele>790.0</ele><time>2026-03-22T10:04:10.96Z</time></trkpt><trkpt lat="45.5769263" lon="10.8696988"><ele>790.0</ele><time>2026-03-22T10:04:14.959Z</time></trkpt><trkpt lat="45.5768513" lon="10.8697404"><ele>790.0</ele><time>2026-03-22T10:04:20.958Z</time></trkpt><trkpt lat="45.5767795" lon="10.8697812"><ele>790.0</ele><time>2026-03-22T10:04:24.956Z</time></trkpt><trkpt lat="45.5767132" lon="10.8697518"><ele>790.0</ele><time>2026-03-22T10:05:38.96Z</time></trkpt><trkpt lat="45.5766457" lon="10.8697029"><ele>785.1666666666666</ele><time>2026-03-22T10:05:42.94Z</time></trkpt><trkpt lat="45.5766052" lon="10.8696276"><ele>780.3333333333333</ele><time>2026-03-22T10:05:45.975Z</time></trkpt><trkpt lat="45.5765404" lon="10.8695976"><ele>775.5</ele><time>2026-03-22T10:05:48.95Z</time></trkpt><trkpt lat="45.5764679" lon="10.8695773"><ele>770.6666666666666</ele><time>2026-03-22T10:05:51.965Z</time></trkpt><trkpt lat="45.5763719" lon="10.8695502"><ele>765.8333333333333</ele><time>2026-03-22T10:05:54.961Z</time></trkpt><trkpt lat="45.5762824" lon="10.8695308"><ele>761.0</ele><time>2026-03-22T10:05:57.964Z</time></trkpt><trkpt lat="45.5762078" lon="10.8695452"><ele>756.5</ele><time>2026-03-22T10:06:00.961Z</time></trkpt><trkpt lat="45.5761404" lon="10.8695835"><ele>752.0</ele><time>2026-03-22T10:06:03.967Z</time></trkpt><trkpt lat="45.5761204" lon="10.8697215"><ele>747.5</ele><time>2026-03-22T10:07:04.97Z</time></trkpt><trkpt lat="45.5760506" lon="10.869711"><ele>743.0</ele><time>2026-03-22T10:08:37.96Z</time></trkpt><trkpt lat="45.5759815" lon="10.8697239"><ele>738.5</ele><time>2026-03-22T10:08:42.957Z</time></trkpt><trkpt lat="45.5759113" lon="10.8697732"><ele>734.0</ele><time>2026-03-22T10:08:45.963Z</time></trkpt><trkpt lat="45.5758842" lon="10.8698556"><ele>734.0</ele><time>2026-03-22T10:08:47.96Z</time></trkpt><trkpt lat="45.5758955" lon="10.8699679"><ele>734.0</ele><time>2026-03-22T10:08:50.956Z</time></trkpt><trkpt lat="45.5758923" lon="10.8700632"><ele>734.0</ele><time>2026-03-22T10:08:54.962Z</time></trkpt><trkpt lat="45.5759487" lon="10.8701158"><ele>734.0</ele><time>2026-03-22T10:16:12.953Z</time></trkpt><trkpt lat="45.5759922" lon="10.870205"><ele>734.0</ele><time>2026-03-22T10:16:15.963Z</time></trkpt><trkpt lat="45.5760399" lon="10.8702817"><ele>734.0</ele><time>2026-03-22T10:16:18.952Z</time></trkpt><trkpt lat="45.5760952" lon="10.8703362"><ele>734.0</ele><time>2026-03-22T10:16:20.942Z</time></trkpt><trkpt lat="45.5761617" lon="10.8704066"><ele>734.5</ele><time>2026-03-22T10:16:22.949Z</time></trkpt><trkpt lat="45.5762216" lon="10.8704725"><ele>735.0</ele><time>2026-03-22T10:16:24.941Z</time></trkpt><trkpt lat="45.5762659" lon="10.8705409"><ele>735.5</ele><time>2026-03-22T10:16:26.949Z</time></trkpt><trkpt lat="45.5763279" lon="10.8706018"><ele>736.0</ele><time>2026-03-22T10:16:28.96Z</time></trkpt><trkpt lat="45.5764014" lon="10.870638"><ele>736.5</ele><time>2026-03-22T10:16:30.946Z</time></trkpt><trkpt lat="45.5765014" lon="10.8706752"><ele>737.0</ele><time>2026-03-22T10:16:32.952Z</time></trkpt><trkpt lat="45.5765777" lon="10.870745"><ele>737.0</ele><time>2026-03-22T10:16:34.963Z</time></trkpt><trkpt lat="45.5766705" lon="10.8708159"><ele>737.0</ele><time>2026-03-22T10:16:36.952Z</time></trkpt><trkpt lat="45.5767662" lon="10.8709118"><ele>737.0</ele><time>2026-03-22T10:16:38.958Z</time></trkpt><trkpt lat="45.5768622" lon="10.8709983"><ele>737.0</ele><time>2026-03-22T10:16:40.942Z</time></trkpt><trkpt lat="45.5769805" lon="10.8710311"><ele>734.8</ele><time>2026-03-22T10:16:42.949Z</time></trkpt><trkpt lat="45.577073" lon="10.8710411"><ele>732.6</ele><time>2026-03-22T10:16:44.942Z</time></trkpt><trkpt lat="45.5771645" lon="10.8711073"><ele>730.4</ele><time>2026-03-22T10:16:46.953Z</time></trkpt><trkpt lat="45.5772428" lon="10.8712259"><ele>728.1999999999999</ele><time>2026-03-22T10:16:48.955Z</time></trkpt><trkpt lat="45.577304" lon="10.8713671"><ele>726.0</ele><time>2026-03-22T10:16:50.951Z</time></trkpt><trkpt lat="45.5773717" lon="10.8714923"><ele>726.0</ele><time>2026-03-22T10:16:52.955Z</time></trkpt><trkpt lat="45.5774314" lon="10.8715838"><ele>726.0</ele><time>2026-03-22T10:16:54.949Z</time></trkpt><trkpt lat="45.5774983" lon="10.871645"><ele>726.0</ele><time>2026-03-22T10:16:56.955Z</time></trkpt><trkpt lat="45.57757" lon="10.8717235"><ele>726.0</ele><time>2026-03-22T10:16:58.949Z</time></trkpt><trkpt lat="45.5776326" lon="10.8718141"><ele>726.0</ele><time>2026-03-22T10:17:00.961Z</time></trkpt><trkpt lat="45.5776989" lon="10.8718938"><ele>726.0</ele><time>2026-03-22T10:17:02.949Z</time></trkpt><trkpt lat="45.5777605" lon="10.8719729"><ele>725.6666666666666</ele><time>2026-03-22T10:17:04.959Z</time></trkpt><trkpt lat="45.5778351" lon="10.8720586"><ele>725.3333333333334</ele><time>2026-03-22T10:17:06.951Z</time></trkpt><trkpt lat="45.5779169" lon="10.8721261"><ele>725.0</ele><time>2026-03-22T10:17:08.952Z</time></trkpt><trkpt lat="45.5780103" lon="10.8722151"><ele>724.6666666666667</ele><time>2026-03-22T10:17:10.956Z</time></trkpt><trkpt lat="45.578065" lon="10.8722701"><ele>724.3333333333334</ele><time>2026-03-22T10:17:11.949Z</time></trkpt><trkpt lat="45.5781191" lon="10.8723362"><ele>724.0</ele><time>2026-03-22T10:17:12.955Z</time></trkpt><trkpt lat="45.5781596" lon="10.8724165"><ele>724.0</ele><time>2026-03-22T10:17:13.955Z</time></trkpt><trkpt lat="45.5781932" lon="10.8724926"><ele>724.0</ele><time>2026-03-22T10:17:14.945Z</time></trkpt><trkpt lat="45.5782685" lon="10.8726156"><ele>724.0</ele><time>2026-03-22T10:17:16.952Z</time></trkpt><trkpt lat="45.5783607" lon="10.8726947"><ele>724.0</ele><time>2026-03-22T10:17:18.963Z</time></trkpt><trkpt lat="45.5784587" lon="10.872754"><ele>724.0</ele><time>2026-03-22T10:17:20.953Z</time></trkpt><trkpt lat="45.5785563" lon="10.8728239"><ele>722.8333333333334</ele><time>2026-03-22T10:17:22.96Z</time></trkpt><trkpt lat="45.5786168" lon="10.8728592"><ele>721.6666666666667</ele><time>2026-03-22T10:17:23.948Z</time></trkpt><trkpt lat="45.578679" lon="10.8728998"><ele>720.5</ele><time>2026-03-22T10:17:24.95Z</time></trkpt><trkpt lat="45.5787888" lon="10.8729737"><ele>719.3333333333334</ele><time>2026-03-22T10:17:26.964Z</time></trkpt><trkpt lat="45.5788933" lon="10.8730416"><ele>718.1666666666666</ele><time>2026-03-22T10:17:28.963Z</time></trkpt><trkpt lat="45.5789547" lon="10.8730861"><ele>717.0</ele><time>2026-03-22T10:17:29.961Z</time></trkpt><trkpt lat="45.5790217" lon="10.8731428"><ele>717.0</ele><time>2026-03-22T10:17:30.954Z</time></trkpt><trkpt lat="45.579085" lon="10.8731993"><ele>717.0</ele><time>2026-03-22T10:17:31.955Z</time></trkpt><trkpt lat="45.579146" lon="10.8732787"><ele>717.0</ele><time>2026-03-22T10:17:32.961Z</time></trkpt><trkpt lat="45.5791885" lon="10.8733609"><ele>717.0</ele><time>2026-03-22T10:17:33.96Z</time></trkpt><trkpt lat="45.579228" lon="10.8734359"><ele>717.0</ele><time>2026-03-22T10:17:34.962Z</time></trkpt><trkpt lat="45.5793195" lon="10.8735606"><ele>717.0</ele><time>2026-03-22T10:17:36.953Z</time></trkpt><trkpt lat="45.5794008" lon="10.8736668"><ele>717.0</ele><time>2026-03-22T10:17:38.942Z</time></trkpt><trkpt lat="45.5795015" lon="10.8737962"><ele>717.0</ele><time>2026-03-22T10:17:40.96Z</time></trkpt><trkpt lat="45.5795534" lon="10.8738646"><ele>717.0</ele><time>2026-03-22T10:17:41.945Z</time></trkpt><trkpt lat="45.5796061" lon="10.8739321"><ele>717.0</ele><time>2026-03-22T10:17:42.953Z</time></trkpt><trkpt lat="45.5796658" lon="10.8740068"><ele>717.0</ele><time>2026-03-22T10:17:43.957Z</time></trkpt><trkpt lat="45.5797269" lon="10.874089"><ele>717.0</ele><time>2026-03-22T10:17:44.964Z</time></trkpt><trkpt lat="45.5797739" lon="10.8741705"><ele>717.0</ele><time>2026-03-22T10:17:45.959Z</time></trkpt><trkpt lat="45.5798214" lon="10.8742512"><ele>717.0</ele><time>2026-03-22T10:17:46.938Z</time></trkpt><trkpt lat="45.5798759" lon="10.8743286"><ele>717.0</ele><time>2026-03-22T10:17:47.951Z</time></trkpt><trkpt lat="45.5799286" lon="10.874409"><ele>717.0</ele><time>2026-03-22T10:17:48.952Z</time></trkpt><trkpt lat="45.579977" lon="10.8744819"><ele>717.0</ele><time>2026-03-22T10:17:49.952Z</time></trkpt><trkpt lat="45.5800328" lon="10.8745375"><ele>717.0</ele><time>2026-03-22T10:17:50.951Z</time></trkpt><trkpt lat="45.5801318" lon="10.8746287"><ele>712.6666666666666</ele><time>2026-03-22T10:17:52.951Z</time></trkpt><trkpt lat="45.5802258" lon="10.87467"><ele>708.3333333333334</ele><time>2026-03-22T10:17:54.953Z</time></trkpt><trkpt lat="45.5802784" lon="10.874731"><ele>704.0</ele><time>2026-03-22T10:17:56.953Z</time></trkpt><trkpt lat="45.5801975" lon="10.8747469"><ele>699.6666666666667</ele><time>2026-03-22T10:17:58.953Z</time></trkpt><trkpt lat="45.5801346" lon="10.8747218"><ele>695.3333333333334</ele><time>2026-03-22T10:17:59.943Z</time></trkpt><trkpt lat="45.5800463" lon="10.8746781"><ele>691.0</ele><time>2026-03-22T10:18:01.959Z</time></trkpt><trkpt lat="45.5799785" lon="10.8746548"><ele>691.0</ele><time>2026-03-22T10:18:04.957Z</time></trkpt><trkpt lat="45.5798757" lon="10.8746005"><ele>691.0</ele><time>2026-03-22T10:18:06.945Z</time></trkpt><trkpt lat="45.5798167" lon="10.8745507"><ele>691.0</ele><time>2026-03-22T10:18:07.958Z</time></trkpt><trkpt lat="45.5797503" lon="10.874496"><ele>691.0</ele><time>2026-03-22T10:18:08.95Z</time></trkpt><trkpt lat="45.5796777" lon="10.8744357"><ele>691.0</ele><time>2026-03-22T10:18:09.961Z</time></trkpt><trkpt lat="45.5796035" lon="10.874381"><ele>691.0</ele><time>2026-03-22T10:18:10.951Z</time></trkpt><trkpt lat="45.5795245" lon="10.8743265"><ele>691.3333333333334</ele><time>2026-03-22T10:18:11.959Z</time></trkpt><trkpt lat="45.5794493" lon="10.8742682"><ele>691.6666666666667</ele><time>2026-03-22T10:18:12.951Z</time></trkpt><trkpt lat="45.5793727" lon="10.8742219"><ele>692.0</ele><time>2026-03-22T10:18:13.954Z</time></trkpt><trkpt lat="45.5792928" lon="10.8741755"><ele>692.3333333333334</ele><time>2026-03-22T10:18:14.963Z</time></trkpt><trkpt lat="45.5792126" lon="10.8741342"><ele>692.6666666666666</ele><time>2026-03-22T10:18:15.953Z</time></trkpt><trkpt lat="45.5791305" lon="10.874113"><ele>693.0</ele><time>2026-03-22T10:18:16.954Z</time></trkpt><trkpt lat="45.5790422" lon="10.874112"><ele>693.0</ele><time>2026-03-22T10:18:17.951Z</time></trkpt><trkpt lat="45.5789563" lon="10.8741136"><ele>693.0</ele><time>2026-03-22T10:18:18.958Z</time></trkpt><trkpt lat="45.5788727" lon="10.8741214"><ele>693.0</ele><time>2026-03-22T10:18:19.96Z</time></trkpt><trkpt lat="45.5787878" lon="10.874122"><ele>693.0</ele><time>2026-03-22T10:18:20.953Z</time></trkpt><trkpt lat="45.5786948" lon="10.8741115"><ele>693.0</ele><time>2026-03-22T10:18:21.956Z</time></trkpt><trkpt lat="45.5786007" lon="10.8740873"><ele>693.0</ele><time>2026-03-22T10:18:22.96Z</time></trkpt><trkpt lat="45.5785083" lon="10.8740486"><ele>689.0</ele><time>2026-03-22T10:18:23.952Z</time></trkpt><trkpt lat="45.5784183" lon="10.8740019"><ele>685.0</ele><time>2026-03-22T10:18:24.955Z</time></trkpt><trkpt lat="45.5783272" lon="10.8739394"><ele>681.0</ele><time>2026-03-22T10:18:25.954Z</time></trkpt><trkpt lat="45.578237" lon="10.8738883"><ele>677.0</ele><time>2026-03-22T10:18:26.952Z</time></trkpt><trkpt lat="45.5781488" lon="10.8738345"><ele>673.0</ele><time>2026-03-22T10:18:27.958Z</time></trkpt><trkpt lat="45.5780668" lon="10.8737819"><ele>673.0</ele><time>2026-03-22T10:18:28.962Z</time></trkpt><trkpt lat="45.5779867" lon="10.8737272"><ele>673.0</ele><time>2026-03-22T10:18:29.952Z</time></trkpt><trkpt lat="45.5779054" lon="10.8736788"><ele>673.0</ele><time>2026-03-22T10:18:30.955Z</time></trkpt><trkpt lat="45.5778335" lon="10.8736215"><ele>673.0</ele><time>2026-03-22T10:18:31.95Z</time></trkpt><trkpt lat="45.5777606" lon="10.8735474"><ele>673.0</ele><time>2026-03-22T10:18:32.942Z</time></trkpt><trkpt lat="45.5776904" lon="10.8734667"><ele>673.0</ele><time>2026-03-22T10:18:33.947Z</time></trkpt><trkpt lat="45.5776223" lon="10.8733802"><ele>673.2</ele><time>2026-03-22T10:18:34.949Z</time></trkpt><trkpt lat="45.5775488" lon="10.873297"><ele>673.4</ele><time>2026-03-22T10:18:35.959Z</time></trkpt><trkpt lat="45.5774772" lon="10.8732051"><ele>673.6</ele><time>2026-03-22T10:18:36.941Z</time></trkpt><trkpt lat="45.577401" lon="10.8731126"><ele>673.8000000000001</ele><time>2026-03-22T10:18:37.955Z</time></trkpt><trkpt lat="45.5773227" lon="10.8730261"><ele>674.0</ele><time>2026-03-22T10:18:38.946Z</time></trkpt><trkpt lat="45.5772405" lon="10.8729379"><ele>674.0</ele><time>2026-03-22T10:18:39.956Z</time></trkpt><trkpt lat="45.5771568" lon="10.8728626"><ele>674.0</ele><time>2026-03-22T10:18:40.953Z</time></trkpt><trkpt lat="45.5770721" lon="10.8728034"><ele>674.0</ele><time>2026-03-22T10:18:41.952Z</time></trkpt><trkpt lat="45.5769834" lon="10.8727616"><ele>674.0</ele><time>2026-03-22T10:18:42.956Z</time></trkpt><trkpt lat="45.5768938" lon="10.8727402"><ele>674.0</ele><time>2026-03-22T10:18:43.953Z</time></trkpt><trkpt lat="45.5768101" lon="10.872751"><ele>671.8000000000001</ele><time>2026-03-22T10:18:44.961Z</time></trkpt><trkpt lat="45.5767244" lon="10.8728014"><ele>669.6</ele><time>2026-03-22T10:18:45.96Z</time></trkpt><trkpt lat="45.5766464" lon="10.8728661"><ele>667.4</ele><time>2026-03-22T10:18:46.953Z</time></trkpt><trkpt lat="45.5765683" lon="10.8729432"><ele>665.2</ele><time>2026-03-22T10:18:47.951Z</time></trkpt><trkpt lat="45.5764911" lon="10.8730208"><ele>663.0</ele><time>2026-03-22T10:18:48.949Z</time></trkpt><trkpt lat="45.576408" lon="10.8730898"><ele>663.0</ele><time>2026-03-22T10:18:49.953Z</time></trkpt><trkpt lat="45.5763197" lon="10.8731479"><ele>663.0</ele><time>2026-03-22T10:18:50.96Z</time></trkpt><trkpt lat="45.5762302" lon="10.8731956"><ele>663.0</ele><time>2026-03-22T10:18:51.954Z</time></trkpt><trkpt lat="45.5761351" lon="10.8732301"><ele>663.0</ele><time>2026-03-22T10:18:52.959Z</time></trkpt><trkpt lat="45.5760453" lon="10.8732423"><ele>663.0</ele><time>2026-03-22T10:18:53.955Z</time></trkpt><trkpt lat="45.5759516" lon="10.8732509"><ele>662.5</ele><time>2026-03-22T10:18:54.954Z</time></trkpt><trkpt lat="45.5758583" lon="10.8732526"><ele>662.0</ele><time>2026-03-22T10:18:55.967Z</time></trkpt><trkpt lat="45.5757694" lon="10.8732343"><ele>661.5</ele><time>2026-03-22T10:18:56.958Z</time></trkpt><trkpt lat="45.5756818" lon="10.8732151"><ele>661.0</ele><time>2026-03-22T10:18:57.956Z</time></trkpt><trkpt lat="45.5755928" lon="10.8731905"><ele>660.5</ele><time>2026-03-22T10:18:58.949Z</time></trkpt><trkpt lat="45.575511" lon="10.8731556"><ele>660.0</ele><time>2026-03-22T10:18:59.964Z</time></trkpt><trkpt lat="45.5754312" lon="10.873104"><ele>656.0</ele><time>2026-03-22T10:19:00.95Z</time></trkpt><trkpt lat="45.5753515" lon="10.8730423"><ele>652.0</ele><time>2026-03-22T10:19:01.944Z</time></trkpt><trkpt lat="45.5752751" lon="10.8729698"><ele>648.0</ele><time>2026-03-22T10:19:02.946Z</time></trkpt><trkpt lat="45.575198" lon="10.8728827"><ele>644.0</ele><time>2026-03-22T10:19:03.958Z</time></trkpt><trkpt lat="45.5751281" lon="10.8727886"><ele>640.0</ele><time>2026-03-22T10:19:04.943Z</time></trkpt><trkpt lat="45.5750587" lon="10.8726913"><ele>644.2</ele><time>2026-03-22T10:19:05.949Z</time></trkpt><trkpt lat="45.5749923" lon="10.8725899"><ele>648.4</ele><time>2026-03-22T10:19:06.952Z</time></trkpt><trkpt lat="45.5749266" lon="10.8724962"><ele>652.5999999999999</ele><time>2026-03-22T10:19:07.954Z</time></trkpt><trkpt lat="45.5748564" lon="10.8723977"><ele>656.8</ele><time>2026-03-22T10:19:08.958Z</time></trkpt><trkpt lat="45.5747819" lon="10.872308"><ele>661.0</ele><time>2026-03-22T10:19:09.953Z</time></trkpt><trkpt lat="45.5747029" lon="10.8722258"><ele>661.0</ele><time>2026-03-22T10:19:10.956Z</time></trkpt><trkpt lat="45.5746241" lon="10.8721493"><ele>661.0</ele><time>2026-03-22T10:19:11.958Z</time></trkpt><trkpt lat="45.574541" lon="10.8720824"><ele>661.0</ele><time>2026-03-22T10:19:12.955Z</time></trkpt><trkpt lat="45.5744565" lon="10.872014"><ele>661.0</ele><time>2026-03-22T10:19:13.962Z</time></trkpt><trkpt lat="45.5743739" lon="10.8719429"><ele>661.0</ele><time>2026-03-22T10:19:14.961Z</time></trkpt><trkpt lat="45.5742929" lon="10.8718691"><ele>660.8</ele><time>2026-03-22T10:19:15.959Z</time></trkpt><trkpt lat="45.5742074" lon="10.8718014"><ele>660.5999999999999</ele><time>2026-03-22T10:19:16.956Z</time></trkpt><trkpt lat="45.5741245" lon="10.8717289"><ele>660.4</ele><time>2026-03-22T10:19:17.956Z</time></trkpt><trkpt lat="45.5740449" lon="10.8716586"><ele>660.2</ele><time>2026-03-22T10:19:18.949Z</time></trkpt><trkpt lat="45.5739651" lon="10.8715852"><ele>660.0</ele><time>2026-03-22T10:19:19.958Z</time></trkpt><trkpt lat="45.5738889" lon="10.8715163"><ele>660.0</ele><time>2026-03-22T10:19:20.953Z</time></trkpt><trkpt lat="45.5738126" lon="10.8714498"><ele>660.0</ele><time>2026-03-22T10:19:21.956Z</time></trkpt><trkpt lat="45.5737468" lon="10.8713698"><ele>660.0</ele><time>2026-03-22T10:19:22.945Z</time></trkpt><trkpt lat="45.5736826" lon="10.8712917"><ele>660.0</ele><time>2026-03-22T10:19:23.955Z</time></trkpt><trkpt lat="45.5736197" lon="10.8712172"><ele>660.0</ele><time>2026-03-22T10:19:24.947Z</time></trkpt><trkpt lat="45.5735558" lon="10.8711407"><ele>660.0</ele><time>2026-03-22T10:19:25.963Z</time></trkpt><trkpt lat="45.5734863" lon="10.8710608"><ele>660.2</ele><time>2026-03-22T10:19:26.948Z</time></trkpt><trkpt lat="45.5734075" lon="10.8709752"><ele>660.4</ele><time>2026-03-22T10:19:27.953Z</time></trkpt><trkpt lat="45.5733323" lon="10.8708819"><ele>660.5999999999999</ele><time>2026-03-22T10:19:28.954Z</time></trkpt><trkpt lat="45.5732581" lon="10.8707783"><ele>660.8</ele><time>2026-03-22T10:19:29.958Z</time></trkpt><trkpt lat="45.5731863" lon="10.8706735"><ele>661.0</ele><time>2026-03-22T10:19:30.96Z</time></trkpt><trkpt lat="45.5731153" lon="10.8705699"><ele>661.0</ele><time>2026-03-22T10:19:31.951Z</time></trkpt><trkpt lat="45.5730457" lon="10.8704775"><ele>661.0</ele><time>2026-03-22T10:19:32.957Z</time></trkpt><trkpt lat="45.5729807" lon="10.8703841"><ele>661.0</ele><time>2026-03-22T10:19:33.95Z</time></trkpt><trkpt lat="45.5729001" lon="10.8703105"><ele>661.0</ele><time>2026-03-22T10:19:34.947Z</time></trkpt><trkpt lat="45.5728041" lon="10.8702608"><ele>661.0</ele><time>2026-03-22T10:19:35.953Z</time></trkpt><trkpt lat="45.5727061" lon="10.8702169"><ele>658.25</ele><time>2026-03-22T10:19:36.937Z</time></trkpt><trkpt lat="45.572598" lon="10.870182"><ele>655.5</ele><time>2026-03-22T10:19:37.949Z</time></trkpt><trkpt lat="45.5724803" lon="10.8701632"><ele>652.75</ele><time>2026-03-22T10:19:38.96Z</time></trkpt><trkpt lat="45.5723668" lon="10.8701699"><ele>650.0</ele><time>2026-03-22T10:19:39.958Z</time></trkpt><trkpt lat="45.5722553" lon="10.8701856"><ele>650.0</ele><time>2026-03-22T10:19:40.952Z</time></trkpt><trkpt lat="45.5721502" lon="10.8702178"><ele>650.0</ele><time>2026-03-22T10:19:41.957Z</time></trkpt><trkpt lat="45.5720549" lon="10.8702597"><ele>650.0</ele><time>2026-03-22T10:19:42.945Z</time></trkpt><trkpt lat="45.5719664" lon="10.8703308"><ele>650.0</ele><time>2026-03-22T10:19:43.956Z</time></trkpt><trkpt lat="45.5718842" lon="10.8704186"><ele>650.0</ele><time>2026-03-22T10:19:44.96Z</time></trkpt><trkpt lat="45.5718131" lon="10.8705227"><ele>648.0</ele><time>2026-03-22T10:19:45.944Z</time></trkpt><trkpt lat="45.5717538" lon="10.870637"><ele>646.0</ele><time>2026-03-22T10:19:46.948Z</time></trkpt><trkpt lat="45.5716963" lon="10.870762"><ele>644.0</ele><time>2026-03-22T10:19:47.962Z</time></trkpt><trkpt lat="45.5716388" lon="10.8708905"><ele>642.0</ele><time>2026-03-22T10:19:48.967Z</time></trkpt><trkpt lat="45.5715795" lon="10.8710087"><ele>640.0</ele><time>2026-03-22T10:19:49.957Z</time></trkpt><trkpt lat="45.5715233" lon="10.8711284"><ele>640.0</ele><time>2026-03-22T10:19:50.955Z</time></trkpt><trkpt lat="45.571468" lon="10.8712461"><ele>640.0</ele><time>2026-03-22T10:19:51.951Z</time></trkpt><trkpt lat="45.5714163" lon="10.8713585"><ele>640.0</ele><time>2026-03-22T10:19:52.953Z</time></trkpt><trkpt lat="45.5713744" lon="10.8714798"><ele>640.0</ele><time>2026-03-22T10:19:53.952Z</time></trkpt><trkpt lat="45.5713521" lon="10.8716122"><ele>640.0</ele><time>2026-03-22T10:19:54.953Z</time></trkpt><trkpt lat="45.5713561" lon="10.8717487"><ele>638.6666666666667</ele><time>2026-03-22T10:19:55.961Z</time></trkpt><trkpt lat="45.5713673" lon="10.8718797"><ele>637.3333333333334</ele><time>2026-03-22T10:19:56.945Z</time></trkpt><trkpt lat="45.5713833" lon="10.8720065"><ele>636.0</ele><time>2026-03-22T10:19:57.956Z</time></trkpt><trkpt lat="45.5714006" lon="10.8721363"><ele>634.6666666666666</ele><time>2026-03-22T10:19:58.953Z</time></trkpt><trkpt lat="45.5714194" lon="10.8722617"><ele>633.3333333333333</ele><time>2026-03-22T10:19:59.956Z</time></trkpt><trkpt lat="45.5714422" lon="10.8723759"><ele>632.0</ele><time>2026-03-22T10:20:00.958Z</time></trkpt><trkpt lat="45.5714626" lon="10.8724953"><ele>632.0</ele><time>2026-03-22T10:20:01.958Z</time></trkpt><trkpt lat="45.5714909" lon="10.8726033"><ele>632.0</ele><time>2026-03-22T10:20:02.96Z</time></trkpt><trkpt lat="45.5715242" lon="10.8726923"><ele>632.0</ele><time>2026-03-22T10:20:03.962Z</time></trkpt><trkpt lat="45.5715211" lon="10.8728401"><ele>632.0</ele><time>2026-03-22T10:20:05.949Z</time></trkpt><trkpt lat="45.5714242" lon="10.8728119"><ele>632.0</ele><time>2026-03-22T10:20:07.957Z</time></trkpt><trkpt lat="45.5713798" lon="10.8727392"><ele>632.0</ele><time>2026-03-22T10:20:08.945Z</time></trkpt><trkpt lat="45.571328" lon="10.8726685"><ele>632.0</ele><time>2026-03-22T10:20:09.959Z</time></trkpt><trkpt lat="45.5712649" lon="10.8725851"><ele>632.0</ele><time>2026-03-22T10:20:10.955Z</time></trkpt><trkpt lat="45.5712033" lon="10.8724987"><ele>632.0</ele><time>2026-03-22T10:20:11.945Z</time></trkpt><trkpt lat="45.5711453" lon="10.8724175"><ele>632.0</ele><time>2026-03-22T10:20:12.959Z</time></trkpt><trkpt lat="45.5710887" lon="10.8723275"><ele>632.0</ele><time>2026-03-22T10:20:13.953Z</time></trkpt><trkpt lat="45.5710348" lon="10.8722446"><ele>632.0</ele><time>2026-03-22T10:20:14.958Z</time></trkpt><trkpt lat="45.5709807" lon="10.8721627"><ele>627.8333333333333</ele><time>2026-03-22T10:20:15.962Z</time></trkpt><trkpt lat="45.5709215" lon="10.872103"><ele>623.6666666666666</ele><time>2026-03-22T10:20:16.947Z</time></trkpt><trkpt lat="45.5708479" lon="10.8720791"><ele>619.5</ele><time>2026-03-22T10:20:17.949Z</time></trkpt><trkpt lat="45.5707755" lon="10.8721103"><ele>615.3333333333334</ele><time>2026-03-22T10:20:18.948Z</time></trkpt><trkpt lat="45.5707123" lon="10.8721897"><ele>611.1666666666667</ele><time>2026-03-22T10:20:19.961Z</time></trkpt><trkpt lat="45.5706684" lon="10.8723064"><ele>607.0</ele><time>2026-03-22T10:20:20.951Z</time></trkpt><trkpt lat="45.5706297" lon="10.8724236"><ele>607.0</ele><time>2026-03-22T10:20:21.95Z</time></trkpt><trkpt lat="45.5706048" lon="10.8725501"><ele>607.0</ele><time>2026-03-22T10:20:22.952Z</time></trkpt><trkpt lat="45.5705862" lon="10.872677"><ele>607.0</ele><time>2026-03-22T10:20:23.947Z</time></trkpt><trkpt lat="45.5705732" lon="10.8728036"><ele>607.0</ele><time>2026-03-22T10:20:24.956Z</time></trkpt><trkpt lat="45.5705522" lon="10.8729377"><ele>607.0</ele><time>2026-03-22T10:20:25.942Z</time></trkpt><trkpt lat="45.5705333" lon="10.8730703"><ele>605.8333333333334</ele><time>2026-03-22T10:20:26.958Z</time></trkpt><trkpt lat="45.5705141" lon="10.8731957"><ele>604.6666666666667</ele><time>2026-03-22T10:20:27.96Z</time></trkpt><trkpt lat="45.57049" lon="10.8733177"><ele>603.5</ele><time>2026-03-22T10:20:28.951Z</time></trkpt><trkpt lat="45.5704519" lon="10.8734323"><ele>602.3333333333334</ele><time>2026-03-22T10:20:29.959Z</time></trkpt><trkpt lat="45.5704025" lon="10.8735355"><ele>601.1666666666666</ele><time>2026-03-22T10:20:30.964Z</time></trkpt><trkpt lat="45.5703342" lon="10.8736264"><ele>600.0</ele><time>2026-03-22T10:20:31.964Z</time></trkpt><trkpt lat="45.5702539" lon="10.8736956"><ele>600.0</ele><time>2026-03-22T10:20:32.956Z</time></trkpt><trkpt lat="45.5701652" lon="10.873747"><ele>600.0</ele><time>2026-03-22T10:20:33.954Z</time></trkpt><trkpt lat="45.570073" lon="10.8737708"><ele>600.0</ele><time>2026-03-22T10:20:34.955Z</time></trkpt><trkpt lat="45.5699756" lon="10.8737815"><ele>600.0</ele><time>2026-03-22T10:20:35.963Z</time></trkpt><trkpt lat="45.5698769" lon="10.873785"><ele>600.0</ele><time>2026-03-22T10:20:36.957Z</time></trkpt><trkpt lat="45.5697789" lon="10.873783"><ele>600.0</ele><time>2026-03-22T10:20:37.96Z</time></trkpt><trkpt lat="45.5696795" lon="10.8737872"><ele>600.0</ele><time>2026-03-22T10:20:38.954Z</time></trkpt><trkpt lat="45.5695784" lon="10.8737898"><ele>600.0</ele><time>2026-03-22T10:20:39.961Z</time></trkpt><trkpt lat="45.56948" lon="10.8738054"><ele>600.0</ele><time>2026-03-22T10:20:40.959Z</time></trkpt><trkpt lat="45.5693777" lon="10.8738322"><ele>600.0</ele><time>2026-03-22T10:20:41.957Z</time></trkpt><trkpt lat="45.5692725" lon="10.8738678"><ele>600.6</ele><time>2026-03-22T10:20:42.947Z</time></trkpt><trkpt lat="45.5691706" lon="10.8739042"><ele>601.2</ele><time>2026-03-22T10:20:43.951Z</time></trkpt><trkpt lat="45.5690629" lon="10.8739395"><ele>601.8</ele><time>2026-03-22T10:20:44.958Z</time></trkpt><trkpt lat="45.5689525" lon="10.8739764"><ele>602.4</ele><time>2026-03-22T10:20:45.962Z</time></trkpt><trkpt lat="45.5688439" lon="10.8740186"><ele>603.0</ele><time>2026-03-22T10:20:46.957Z</time></trkpt><trkpt lat="45.5687368" lon="10.8740633"><ele>601.25</ele><time>2026-03-22T10:20:47.958Z</time></trkpt><trkpt lat="45.5686297" lon="10.8741089"><ele>599.5</ele><time>2026-03-22T10:20:48.951Z</time></trkpt><trkpt lat="45.5685208" lon="10.8741574"><ele>597.75</ele><time>2026-03-22T10:20:49.962Z</time></trkpt><trkpt lat="45.5684104" lon="10.8742029"><ele>596.0</ele><time>2026-03-22T10:20:50.954Z</time></trkpt><trkpt lat="45.5683" lon="10.8742448"><ele>596.0</ele><time>2026-03-22T10:20:51.958Z</time></trkpt><trkpt lat="45.568187" lon="10.8742907"><ele>596.0</ele><time>2026-03-22T10:20:52.942Z</time></trkpt><trkpt lat="45.5680776" lon="10.8743319"><ele>596.0</ele><time>2026-03-22T10:20:53.954Z</time></trkpt><trkpt lat="45.5679712" lon="10.8743749"><ele>596.0</ele><time>2026-03-22T10:20:54.954Z</time></trkpt><trkpt lat="45.5678668" lon="10.8744126"><ele>596.0</ele><time>2026-03-22T10:20:55.962Z</time></trkpt><trkpt lat="45.5677656" lon="10.8744523"><ele>596.0</ele><time>2026-03-22T10:20:56.96Z</time></trkpt><trkpt lat="45.5676662" lon="10.8744912"><ele>596.0</ele><time>2026-03-22T10:20:57.95Z</time></trkpt><trkpt lat="45.5675639" lon="10.8745383"><ele>596.0</ele><time>2026-03-22T10:20:58.964Z</time></trkpt><trkpt lat="45.5674586" lon="10.8745789"><ele>596.0</ele><time>2026-03-22T10:20:59.959Z</time></trkpt><trkpt lat="45.5673514" lon="10.8746248"><ele>596.0</ele><time>2026-03-22T10:21:00.967Z</time></trkpt><trkpt lat="45.5672448" lon="10.8746601"><ele>596.0</ele><time>2026-03-22T10:21:01.96Z</time></trkpt><trkpt lat="45.5671435" lon="10.8746993"><ele>596.0</ele><time>2026-03-22T10:21:02.965Z</time></trkpt><trkpt lat="45.5670398" lon="10.8747385"><ele>596.0</ele><time>2026-03-22T10:21:03.957Z</time></trkpt><trkpt lat="45.5669384" lon="10.874783"><ele>596.0</ele><time>2026-03-22T10:21:04.949Z</time></trkpt><trkpt lat="45.5668371" lon="10.8748239"><ele>596.0</ele><time>2026-03-22T10:21:05.945Z</time></trkpt><trkpt lat="45.5667388" lon="10.8748607"><ele>593.6</ele><time>2026-03-22T10:21:06.96Z</time></trkpt><trkpt lat="45.5666406" lon="10.8749025"><ele>591.2</ele><time>2026-03-22T10:21:07.961Z</time></trkpt><trkpt lat="45.5665427" lon="10.8749392"><ele>588.8</ele><time>2026-03-22T10:21:08.959Z</time></trkpt><trkpt lat="45.5664494" lon="10.8749845"><ele>586.4</ele><time>2026-03-22T10:21:09.963Z</time></trkpt><trkpt lat="45.5663565" lon="10.8750268"><ele>584.0</ele><time>2026-03-22T10:21:10.937Z</time></trkpt><trkpt lat="45.5662665" lon="10.8750669"><ele>585.1666666666666</ele><time>2026-03-22T10:21:11.942Z</time></trkpt><trkpt lat="45.5661696" lon="10.8751077"><ele>586.3333333333333</ele><time>2026-03-22T10:21:12.955Z</time></trkpt><trkpt lat="45.5660813" lon="10.8751393"><ele>587.5</ele><time>2026-03-22T10:21:13.953Z</time></trkpt><trkpt lat="45.5659966" lon="10.8751698"><ele>588.6666666666666</ele><time>2026-03-22T10:21:14.965Z</time></trkpt><trkpt lat="45.5659096" lon="10.8751735"><ele>589.8333333333334</ele><time>2026-03-22T10:21:15.957Z</time></trkpt><trkpt lat="45.5658403" lon="10.8751368"><ele>591.0</ele><time>2026-03-22T10:21:16.96Z</time></trkpt><trkpt lat="45.5658093" lon="10.8750487"><ele>589.8333333333334</ele><time>2026-03-22T10:21:17.951Z</time></trkpt><trkpt lat="45.5658262" lon="10.8749518"><ele>588.6666666666666</ele><time>2026-03-22T10:21:18.956Z</time></trkpt><trkpt lat="45.5658938" lon="10.8748855"><ele>587.5</ele><time>2026-03-22T10:21:19.959Z</time></trkpt><trkpt lat="45.5659713" lon="10.8748585"><ele>586.3333333333333</ele><time>2026-03-22T10:21:20.958Z</time></trkpt><trkpt lat="45.5660566" lon="10.8748479"><ele>585.1666666666666</ele><time>2026-03-22T10:21:21.949Z</time></trkpt><trkpt lat="45.5661407" lon="10.8748285"><ele>584.0</ele><time>2026-03-22T10:21:22.955Z</time></trkpt><trkpt lat="45.5662316" lon="10.8747961"><ele>584.0</ele><time>2026-03-22T10:21:23.947Z</time></trkpt><trkpt lat="45.5663183" lon="10.8747497"><ele>584.0</ele><time>2026-03-22T10:21:24.959Z</time></trkpt><trkpt lat="45.5663946" lon="10.8746785"><ele>584.0</ele><time>2026-03-22T10:21:25.962Z</time></trkpt><trkpt lat="45.5664606" lon="10.8745859"><ele>584.0</ele><time>2026-03-22T10:21:26.959Z</time></trkpt><trkpt lat="45.5665156" lon="10.8744835"><ele>584.0</ele><time>2026-03-22T10:21:27.95Z</time></trkpt><trkpt lat="45.5665594" lon="10.8743632"><ele>581.6</ele><time>2026-03-22T10:21:28.969Z</time></trkpt><trkpt lat="45.5665945" lon="10.8742345"><ele>579.2</ele><time>2026-03-22T10:21:29.949Z</time></trkpt><trkpt lat="45.5666259" lon="10.8741064"><ele>576.8000000000001</ele><time>2026-03-22T10:21:30.963Z</time></trkpt><trkpt lat="45.5666614" lon="10.8739784"><ele>574.4</ele><time>2026-03-22T10:21:31.955Z</time></trkpt><trkpt lat="45.5666956" lon="10.8738431"><ele>572.0</ele><time>2026-03-22T10:21:32.949Z</time></trkpt><trkpt lat="45.566733" lon="10.8737074"><ele>572.0</ele><time>2026-03-22T10:21:33.958Z</time></trkpt><trkpt lat="45.5667719" lon="10.8735746"><ele>572.0</ele><time>2026-03-22T10:21:34.953Z</time></trkpt><trkpt lat="45.5668071" lon="10.8734365"><ele>572.0</ele><time>2026-03-22T10:21:35.962Z</time></trkpt><trkpt lat="45.5668496" lon="10.8733016"><ele>572.0</ele><time>2026-03-22T10:21:36.957Z</time></trkpt><trkpt lat="45.5668891" lon="10.8731583"><ele>572.0</ele><time>2026-03-22T10:21:37.961Z</time></trkpt><trkpt lat="45.5669264" lon="10.8730074"><ele>572.6</ele><time>2026-03-22T10:21:38.962Z</time></trkpt><trkpt lat="45.5669666" lon="10.8728581"><ele>573.2</ele><time>2026-03-22T10:21:39.946Z</time></trkpt><trkpt lat="45.5670075" lon="10.8727065"><ele>573.8</ele><time>2026-03-22T10:21:40.962Z</time></trkpt><trkpt lat="45.5670461" lon="10.8725612"><ele>574.4</ele><time>2026-03-22T10:21:41.964Z</time></trkpt><trkpt lat="45.5670868" lon="10.8724098"><ele>575.0</ele><time>2026-03-22T10:21:42.959Z</time></trkpt><trkpt lat="45.5671277" lon="10.8722633"><ele>575.0</ele><time>2026-03-22T10:21:43.956Z</time></trkpt><trkpt lat="45.5671725" lon="10.872112"><ele>575.0</ele><time>2026-03-22T10:21:44.959Z</time></trkpt><trkpt lat="45.5672126" lon="10.8719649"><ele>575.0</ele><time>2026-03-22T10:21:45.955Z</time></trkpt><trkpt lat="45.5672435" lon="10.8718153"><ele>575.0</ele><time>2026-03-22T10:21:46.952Z</time></trkpt><trkpt lat="45.5672584" lon="10.8716695"><ele>575.0</ele><time>2026-03-22T10:21:47.962Z</time></trkpt><trkpt lat="45.5672502" lon="10.8715218"><ele>573.75</ele><time>2026-03-22T10:21:48.946Z</time></trkpt><trkpt lat="45.5672268" lon="10.8713605"><ele>572.5</ele><time>2026-03-22T10:21:49.937Z</time></trkpt><trkpt lat="45.5671912" lon="10.8712"><ele>571.25</ele><time>2026-03-22T10:21:50.947Z</time></trkpt><trkpt lat="45.5671552" lon="10.8710297"><ele>570.0</ele><time>2026-03-22T10:21:51.945Z</time></trkpt><trkpt lat="45.5671264" lon="10.8708526"><ele>569.5</ele><time>2026-03-22T10:21:52.949Z</time></trkpt><trkpt lat="45.5670948" lon="10.8706783"><ele>569.0</ele><time>2026-03-22T10:21:53.958Z</time></trkpt><trkpt lat="45.5670681" lon="10.8705043"><ele>568.5</ele><time>2026-03-22T10:21:54.956Z</time></trkpt><trkpt lat="45.5670391" lon="10.870337"><ele>568.0</ele><time>2026-03-22T10:21:55.963Z</time></trkpt><trkpt lat="45.5670132" lon="10.8701731"><ele>563.1999999999999</ele><time>2026-03-22T10:21:56.95Z</time></trkpt><trkpt lat="45.5669878" lon="10.870012"><ele>558.4</ele><time>2026-03-22T10:21:57.957Z</time></trkpt><trkpt lat="45.5669635" lon="10.8698543"><ele>553.5999999999999</ele><time>2026-03-22T10:21:58.954Z</time></trkpt><trkpt lat="45.5669451" lon="10.8696995"><ele>548.8</ele><time>2026-03-22T10:21:59.959Z</time></trkpt><trkpt lat="45.566929" lon="10.869551"><ele>544.0</ele><time>2026-03-22T10:22:00.951Z</time></trkpt><trkpt lat="45.5669137" lon="10.8694004"><ele>543.8</ele><time>2026-03-22T10:22:01.96Z</time></trkpt><trkpt lat="45.5668964" lon="10.8692551"><ele>543.5999999999999</ele><time>2026-03-22T10:22:02.957Z</time></trkpt><trkpt lat="45.5668705" lon="10.869122"><ele>543.4</ele><time>2026-03-22T10:22:03.957Z</time></trkpt><trkpt lat="45.5668218" lon="10.8690033"><ele>543.1999999999999</ele><time>2026-03-22T10:22:04.951Z</time></trkpt><trkpt lat="45.566749" lon="10.868913"><ele>543.0</ele><time>2026-03-22T10:22:05.955Z</time></trkpt><trkpt lat="45.5666542" lon="10.8688671"><ele>543.0</ele><time>2026-03-22T10:22:06.955Z</time></trkpt><trkpt lat="45.5665535" lon="10.8688971"><ele>543.0</ele><time>2026-03-22T10:22:07.964Z</time></trkpt><trkpt lat="45.566467" lon="10.8689768"><ele>543.0</ele><time>2026-03-22T10:22:08.96Z</time></trkpt><trkpt lat="45.5663881" lon="10.869064"><ele>543.0</ele><time>2026-03-22T10:22:09.964Z</time></trkpt><trkpt lat="45.5663048" lon="10.8691557"><ele>543.0</ele><time>2026-03-22T10:22:10.957Z</time></trkpt><trkpt lat="45.5662145" lon="10.86924"><ele>541.4</ele><time>2026-03-22T10:22:11.961Z</time></trkpt><trkpt lat="45.5661228" lon="10.8693067"><ele>539.8</ele><time>2026-03-22T10:22:12.959Z</time></trkpt><trkpt lat="45.5660254" lon="10.8693381"><ele>538.2</ele><time>2026-03-22T10:22:13.966Z</time></trkpt><trkpt lat="45.5659267" lon="10.8693271"><ele>536.6</ele><time>2026-03-22T10:22:14.962Z</time></trkpt><trkpt lat="45.5658297" lon="10.8692872"><ele>535.0</ele><time>2026-03-22T10:22:15.953Z</time></trkpt><trkpt lat="45.5657314" lon="10.8692355"><ele>535.0</ele><time>2026-03-22T10:22:16.963Z</time></trkpt><trkpt lat="45.5656305" lon="10.8691749"><ele>535.0</ele><time>2026-03-22T10:22:17.953Z</time></trkpt><trkpt lat="45.5655252" lon="10.8691158"><ele>535.0</ele><time>2026-03-22T10:22:18.955Z</time></trkpt><trkpt lat="45.5654236" lon="10.8690488"><ele>535.0</ele><time>2026-03-22T10:22:19.967Z</time></trkpt><trkpt lat="45.5653237" lon="10.8689858"><ele>535.0</ele><time>2026-03-22T10:22:20.952Z</time></trkpt><trkpt lat="45.5652214" lon="10.8689245"><ele>532.8</ele><time>2026-03-22T10:22:21.958Z</time></trkpt><trkpt lat="45.5651176" lon="10.8688731"><ele>530.6</ele><time>2026-03-22T10:22:22.956Z</time></trkpt><trkpt lat="45.5650144" lon="10.8688241"><ele>528.4</ele><time>2026-03-22T10:22:23.962Z</time></trkpt><trkpt lat="45.5649116" lon="10.8687825"><ele>526.2</ele><time>2026-03-22T10:22:24.958Z</time></trkpt><trkpt lat="45.5648085" lon="10.8687485"><ele>524.0</ele><time>2026-03-22T10:22:25.972Z</time></trkpt><trkpt lat="45.5647042" lon="10.8687263"><ele>524.0</ele><time>2026-03-22T10:22:26.96Z</time></trkpt><trkpt lat="45.5646" lon="10.8687102"><ele>524.0</ele><time>2026-03-22T10:22:27.957Z</time></trkpt><trkpt lat="45.5644936" lon="10.8687092"><ele>524.0</ele><time>2026-03-22T10:22:28.956Z</time></trkpt><trkpt lat="45.5643911" lon="10.8687118"><ele>524.0</ele><time>2026-03-22T10:22:29.962Z</time></trkpt><trkpt lat="45.56429" lon="10.8687152"><ele>524.0</ele><time>2026-03-22T10:22:30.963Z</time></trkpt><trkpt lat="45.564195" lon="10.8687216"><ele>521.8</ele><time>2026-03-22T10:22:31.974Z</time></trkpt><trkpt lat="45.5640939" lon="10.8687302"><ele>519.5999999999999</ele><time>2026-03-22T10:22:32.965Z</time></trkpt><trkpt lat="45.5640014" lon="10.8687168"><ele>517.4</ele><time>2026-03-22T10:22:33.96Z</time></trkpt><trkpt lat="45.5639187" lon="10.8686677"><ele>515.1999999999999</ele><time>2026-03-22T10:22:34.961Z</time></trkpt><trkpt lat="45.5638547" lon="10.8685897"><ele>513.0</ele><time>2026-03-22T10:22:35.941Z</time></trkpt><trkpt lat="45.5638578" lon="10.8684658"><ele>513.4</ele><time>2026-03-22T10:22:36.951Z</time></trkpt><trkpt lat="45.563904" lon="10.8683502"><ele>513.8</ele><time>2026-03-22T10:22:37.957Z</time></trkpt><trkpt lat="45.5639715" lon="10.8682441"><ele>514.2</ele><time>2026-03-22T10:22:38.953Z</time></trkpt><trkpt lat="45.5640424" lon="10.8681461"><ele>514.6</ele><time>2026-03-22T10:22:39.956Z</time></trkpt><trkpt lat="45.5641043" lon="10.8680449"><ele>515.0</ele><time>2026-03-22T10:22:40.951Z</time></trkpt><trkpt lat="45.5641507" lon="10.8679394"><ele>515.0</ele><time>2026-03-22T10:22:41.955Z</time></trkpt><trkpt lat="45.5641885" lon="10.8678336"><ele>515.0</ele><time>2026-03-22T10:22:42.954Z</time></trkpt><trkpt lat="45.5642026" lon="10.8677196"><ele>515.0</ele><time>2026-03-22T10:22:43.958Z</time></trkpt><trkpt lat="45.5641735" lon="10.8676058"><ele>515.0</ele><time>2026-03-22T10:22:44.954Z</time></trkpt><trkpt lat="45.5640966" lon="10.8674985"><ele>515.0</ele><time>2026-03-22T10:22:45.965Z</time></trkpt><trkpt lat="45.5640011" lon="10.8674391"><ele>515.2</ele><time>2026-03-22T10:22:46.947Z</time></trkpt><trkpt lat="45.5638943" lon="10.8673974"><ele>515.4</ele><time>2026-03-22T10:22:47.959Z</time></trkpt><trkpt lat="45.5638006" lon="10.8673526"><ele>515.6</ele><time>2026-03-22T10:22:48.958Z</time></trkpt><trkpt lat="45.5636951" lon="10.8673054"><ele>515.8</ele><time>2026-03-22T10:22:49.956Z</time></trkpt><trkpt lat="45.56359" lon="10.867242"><ele>516.0</ele><time>2026-03-22T10:22:50.95Z</time></trkpt><trkpt lat="45.5634822" lon="10.8671711"><ele>512.75</ele><time>2026-03-22T10:22:51.966Z</time></trkpt><trkpt lat="45.563369" lon="10.8671001"><ele>509.5</ele><time>2026-03-22T10:22:52.933Z</time></trkpt><trkpt lat="45.5632576" lon="10.8670284"><ele>506.25</ele><time>2026-03-22T10:22:53.955Z</time></trkpt><trkpt lat="45.5631398" lon="10.8669587"><ele>503.0</ele><time>2026-03-22T10:22:54.968Z</time></trkpt><trkpt lat="45.5630225" lon="10.8668878"><ele>503.0</ele><time>2026-03-22T10:22:55.947Z</time></trkpt><trkpt lat="45.5629069" lon="10.8668184"><ele>503.0</ele><time>2026-03-22T10:22:56.944Z</time></trkpt><trkpt lat="45.5627874" lon="10.8667516"><ele>503.0</ele><time>2026-03-22T10:22:57.975Z</time></trkpt><trkpt lat="45.562669" lon="10.8666783"><ele>503.0</ele><time>2026-03-22T10:22:58.962Z</time></trkpt><trkpt lat="45.5625516" lon="10.8666038"><ele>502.25</ele><time>2026-03-22T10:22:59.959Z</time></trkpt><trkpt lat="45.5624395" lon="10.8665352"><ele>501.5</ele><time>2026-03-22T10:23:00.952Z</time></trkpt><trkpt lat="45.5623254" lon="10.8664707"><ele>500.75</ele><time>2026-03-22T10:23:01.953Z</time></trkpt><trkpt lat="45.5622172" lon="10.8664177"><ele>500.0</ele><time>2026-03-22T10:23:02.95Z</time></trkpt><trkpt lat="45.5621043" lon="10.8663828"><ele>498.2</ele><time>2026-03-22T10:23:03.953Z</time></trkpt><trkpt lat="45.5619933" lon="10.8663574"><ele>496.4</ele><time>2026-03-22T10:23:04.946Z</time></trkpt><trkpt lat="45.5618859" lon="10.8663179"><ele>494.6</ele><time>2026-03-22T10:23:05.947Z</time></trkpt><trkpt lat="45.5617826" lon="10.8662949"><ele>492.8</ele><time>2026-03-22T10:23:06.953Z</time></trkpt><trkpt lat="45.5616793" lon="10.8662732"><ele>491.0</ele><time>2026-03-22T10:23:07.957Z</time></trkpt><trkpt lat="45.5615746" lon="10.8662665"><ele>491.0</ele><time>2026-03-22T10:23:08.953Z</time></trkpt><trkpt lat="45.5614758" lon="10.8662769"><ele>491.0</ele><time>2026-03-22T10:23:09.963Z</time></trkpt><trkpt lat="45.5613724" lon="10.8663103"><ele>491.0</ele><time>2026-03-22T10:23:10.958Z</time></trkpt><trkpt lat="45.5612788" lon="10.8663733"><ele>491.0</ele><time>2026-03-22T10:23:11.957Z</time></trkpt><trkpt lat="45.5611914" lon="10.8664355"><ele>491.0</ele><time>2026-03-22T10:23:12.966Z</time></trkpt><trkpt lat="45.5611045" lon="10.8665138"><ele>490.20000000000005</ele><time>2026-03-22T10:23:13.959Z</time></trkpt><trkpt lat="45.561017" lon="10.8666164"><ele>489.40000000000003</ele><time>2026-03-22T10:23:14.95Z</time></trkpt><trkpt lat="45.5609326" lon="10.8667216"><ele>488.6</ele><time>2026-03-22T10:23:15.965Z</time></trkpt><trkpt lat="45.5608483" lon="10.8668212"><ele>487.8</ele><time>2026-03-22T10:23:16.956Z</time></trkpt><trkpt lat="45.5607602" lon="10.8668796"><ele>487.0</ele><time>2026-03-22T10:23:17.955Z</time></trkpt><trkpt lat="45.5606589" lon="10.8669276"><ele>484.5</ele><time>2026-03-22T10:23:18.956Z</time></trkpt><trkpt lat="45.5605468" lon="10.8669345"><ele>482.0</ele><time>2026-03-22T10:23:19.952Z</time></trkpt><trkpt lat="45.5604329" lon="10.8668905"><ele>479.5</ele><time>2026-03-22T10:23:20.949Z</time></trkpt><trkpt lat="45.560323" lon="10.8668435"><ele>477.0</ele><time>2026-03-22T10:23:21.961Z</time></trkpt><trkpt lat="45.5602146" lon="10.8667833"><ele>477.5</ele><time>2026-03-22T10:23:22.964Z</time></trkpt><trkpt lat="45.5601043" lon="10.8667185"><ele>478.0</ele><time>2026-03-22T10:23:23.955Z</time></trkpt><trkpt lat="45.5599984" lon="10.8666475"><ele>478.5</ele><time>2026-03-22T10:23:24.939Z</time></trkpt><trkpt lat="45.5598922" lon="10.86656"><ele>479.0</ele><time>2026-03-22T10:23:25.956Z</time></trkpt><trkpt lat="45.5597831" lon="10.8664742"><ele>479.0</ele><time>2026-03-22T10:23:26.965Z</time></trkpt><trkpt lat="45.5596698" lon="10.8663855"><ele>479.0</ele><time>2026-03-22T10:23:27.957Z</time></trkpt><trkpt lat="45.5595647" lon="10.8662929"><ele>479.0</ele><time>2026-03-22T10:23:28.958Z</time></trkpt><trkpt lat="45.5594512" lon="10.8662062"><ele>479.0</ele><time>2026-03-22T10:23:29.958Z</time></trkpt><trkpt lat="45.5593413" lon="10.8661186"><ele>480.0</ele><time>2026-03-22T10:23:30.957Z</time></trkpt><trkpt lat="45.5592306" lon="10.8660383"><ele>481.0</ele><time>2026-03-22T10:23:31.96Z</time></trkpt><trkpt lat="45.5591255" lon="10.865955"><ele>482.0</ele><time>2026-03-22T10:23:32.954Z</time></trkpt><trkpt lat="45.5590234" lon="10.8658861"><ele>483.0</ele><time>2026-03-22T10:23:33.951Z</time></trkpt><trkpt lat="45.5589157" lon="10.8658218"><ele>483.0</ele><time>2026-03-22T10:23:34.951Z</time></trkpt><trkpt lat="45.5588109" lon="10.8657753"><ele>482.99999999999994</ele><time>2026-03-22T10:23:35.953Z</time></trkpt><trkpt lat="45.5586987" lon="10.8657293"><ele>482.99999999999994</ele><time>2026-03-22T10:23:36.957Z</time></trkpt><trkpt lat="45.558592" lon="10.8656798"><ele>483.0</ele><time>2026-03-22T10:23:37.954Z</time></trkpt><trkpt lat="45.5584891" lon="10.8656303"><ele>483.0</ele><time>2026-03-22T10:23:38.959Z</time></trkpt><trkpt lat="45.5583847" lon="10.8655907"><ele>481.0</ele><time>2026-03-22T10:23:39.952Z</time></trkpt><trkpt lat="45.5582762" lon="10.8655544"><ele>478.99999999999994</ele><time>2026-03-22T10:23:40.94Z</time></trkpt><trkpt lat="45.5581652" lon="10.8655443"><ele>476.99999999999994</ele><time>2026-03-22T10:23:41.949Z</time></trkpt><trkpt lat="45.5580527" lon="10.8655454"><ele>475.0</ele><time>2026-03-22T10:23:42.939Z</time></trkpt><trkpt lat="45.5579473" lon="10.865563"><ele>473.0</ele><time>2026-03-22T10:23:43.951Z</time></trkpt><trkpt lat="45.5578421" lon="10.86561"><ele>473.0</ele><time>2026-03-22T10:23:44.954Z</time></trkpt><trkpt lat="45.557733" lon="10.8656959"><ele>473.0</ele><time>2026-03-22T10:23:45.959Z</time></trkpt><trkpt lat="45.5576194" lon="10.865781"><ele>473.0</ele><time>2026-03-22T10:23:46.946Z</time></trkpt><trkpt lat="45.5575057" lon="10.8658736"><ele>473.0</ele><time>2026-03-22T10:23:47.961Z</time></trkpt><trkpt lat="45.5573824" lon="10.8659656"><ele>468.75</ele><time>2026-03-22T10:23:48.957Z</time></trkpt><trkpt lat="45.5572557" lon="10.8660334"><ele>464.5</ele><time>2026-03-22T10:23:49.951Z</time></trkpt><trkpt lat="45.5571289" lon="10.8660953"><ele>460.25</ele><time>2026-03-22T10:23:50.963Z</time></trkpt><trkpt lat="45.557001" lon="10.8661544"><ele>456.0</ele><time>2026-03-22T10:23:51.955Z</time></trkpt><trkpt lat="45.5568802" lon="10.866218"><ele>456.0</ele><time>2026-03-22T10:23:52.957Z</time></trkpt><trkpt lat="45.556764" lon="10.8662977"><ele>456.0</ele><time>2026-03-22T10:23:53.947Z</time></trkpt><trkpt lat="45.5566591" lon="10.8663971"><ele>456.0</ele><time>2026-03-22T10:23:54.955Z</time></trkpt><trkpt lat="45.5565609" lon="10.8665123"><ele>456.0</ele><time>2026-03-22T10:23:55.955Z</time></trkpt><trkpt lat="45.5564639" lon="10.8666392"><ele>456.0</ele><time>2026-03-22T10:23:56.953Z</time></trkpt><trkpt lat="45.5563663" lon="10.8667486"><ele>456.0</ele><time>2026-03-22T10:23:57.943Z</time></trkpt><trkpt lat="45.5562634" lon="10.8668163"><ele>456.0</ele><time>2026-03-22T10:23:58.953Z</time></trkpt><trkpt lat="45.5561505" lon="10.8668528"><ele>456.0</ele><time>2026-03-22T10:23:59.949Z</time></trkpt><trkpt lat="45.5560327" lon="10.8668813"><ele>452.25</ele><time>2026-03-22T10:24:00.957Z</time></trkpt><trkpt lat="45.5559121" lon="10.8668956"><ele>448.5</ele><time>2026-03-22T10:24:01.951Z</time></trkpt><trkpt lat="45.5557963" lon="10.8668964"><ele>444.75</ele><time>2026-03-22T10:24:02.953Z</time></trkpt><trkpt lat="45.5556791" lon="10.8668671"><ele>441.0</ele><time>2026-03-22T10:24:03.962Z</time></trkpt><trkpt lat="45.5555543" lon="10.8668216"><ele>443.5</ele><time>2026-03-22T10:24:04.949Z</time></trkpt><trkpt lat="45.5554478" lon="10.8667433"><ele>446.0</ele><time>2026-03-22T10:24:05.955Z</time></trkpt><trkpt lat="45.5553603" lon="10.8666059"><ele>448.5</ele><time>2026-03-22T10:24:06.959Z</time></trkpt><trkpt lat="45.5552862" lon="10.8664657"><ele>451.0</ele><time>2026-03-22T10:24:07.953Z</time></trkpt><trkpt lat="45.5552203" lon="10.8663308"><ele>451.0</ele><time>2026-03-22T10:24:08.954Z</time></trkpt><trkpt lat="45.5551341" lon="10.8662152"><ele>451.0</ele><time>2026-03-22T10:24:09.939Z</time></trkpt><trkpt lat="45.5550296" lon="10.8661327"><ele>451.0</ele><time>2026-03-22T10:24:10.955Z</time></trkpt><trkpt lat="45.5549205" lon="10.866057"><ele>451.0</ele><time>2026-03-22T10:24:11.95Z</time></trkpt><trkpt lat="45.554804" lon="10.8660058"><ele>451.0</ele><time>2026-03-22T10:24:12.955Z</time></trkpt><trkpt lat="45.5546768" lon="10.865986"><ele>451.0</ele><time>2026-03-22T10:24:13.947Z</time></trkpt><trkpt lat="45.554546" lon="10.8659838"><ele>451.0</ele><time>2026-03-22T10:24:14.952Z</time></trkpt><trkpt lat="45.5544202" lon="10.8659879"><ele>451.0</ele><time>2026-03-22T10:24:15.959Z</time></trkpt><trkpt lat="45.5542925" lon="10.8659923"><ele>449.0</ele><time>2026-03-22T10:24:16.955Z</time></trkpt><trkpt lat="45.554163" lon="10.866017"><ele>447.0</ele><time>2026-03-22T10:24:17.954Z</time></trkpt><trkpt lat="45.5540353" lon="10.8660553"><ele>445.0</ele><time>2026-03-22T10:24:18.957Z</time></trkpt><trkpt lat="45.5539069" lon="10.8661001"><ele>443.0</ele><time>2026-03-22T10:24:19.952Z</time></trkpt><trkpt lat="45.5537771" lon="10.8661356"><ele>444.25</ele><time>2026-03-22T10:24:20.952Z</time></trkpt><trkpt lat="45.5536452" lon="10.8661796"><ele>445.5</ele><time>2026-03-22T10:24:21.949Z</time></trkpt><trkpt lat="45.5535152" lon="10.8662201"><ele>446.75</ele><time>2026-03-22T10:24:22.955Z</time></trkpt><trkpt lat="45.5533816" lon="10.8662481"><ele>448.0</ele><time>2026-03-22T10:24:23.958Z</time></trkpt><trkpt lat="45.5532516" lon="10.8662587"><ele>448.0</ele><time>2026-03-22T10:24:24.96Z</time></trkpt><trkpt lat="45.5531256" lon="10.8662561"><ele>448.0</ele><time>2026-03-22T10:24:25.954Z</time></trkpt><trkpt lat="45.5530002" lon="10.8662386"><ele>448.0</ele><time>2026-03-22T10:24:26.95Z</time></trkpt><trkpt lat="45.5528762" lon="10.8662223"><ele>448.0</ele><time>2026-03-22T10:24:27.964Z</time></trkpt><trkpt lat="45.5527536" lon="10.8662061"><ele>447.75</ele><time>2026-03-22T10:24:28.958Z</time></trkpt><trkpt lat="45.5526338" lon="10.866187"><ele>447.5</ele><time>2026-03-22T10:24:29.963Z</time></trkpt><trkpt lat="45.5525131" lon="10.8661598"><ele>447.25</ele><time>2026-03-22T10:24:30.955Z</time></trkpt><trkpt lat="45.5523981" lon="10.8661355"><ele>447.0</ele><time>2026-03-22T10:24:31.956Z</time></trkpt><trkpt lat="45.5522834" lon="10.8661248"><ele>447.0</ele><time>2026-03-22T10:24:32.953Z</time></trkpt><trkpt lat="45.552167" lon="10.8661238"><ele>447.0</ele><time>2026-03-22T10:24:33.951Z</time></trkpt><trkpt lat="45.5520508" lon="10.8661387"><ele>447.0</ele><time>2026-03-22T10:24:34.955Z</time></trkpt><trkpt lat="45.5519347" lon="10.8661662"><ele>447.0</ele><time>2026-03-22T10:24:35.939Z</time></trkpt><trkpt lat="45.5518192" lon="10.8661942"><ele>448.0</ele><time>2026-03-22T10:24:36.943Z</time></trkpt><trkpt lat="45.5517062" lon="10.8662165"><ele>449.0</ele><time>2026-03-22T10:24:37.959Z</time></trkpt><trkpt lat="45.5515921" lon="10.8662274"><ele>450.0</ele><time>2026-03-22T10:24:38.959Z</time></trkpt><trkpt lat="45.5514719" lon="10.8662003"><ele>451.0</ele><time>2026-03-22T10:24:39.963Z</time></trkpt><trkpt lat="45.551351" lon="10.8661384"><ele>451.0</ele><time>2026-03-22T10:24:40.949Z</time></trkpt><trkpt lat="45.5512389" lon="10.8660607"><ele>451.0</ele><time>2026-03-22T10:24:41.958Z</time></trkpt><trkpt lat="45.551127" lon="10.8659742"><ele>451.0</ele><time>2026-03-22T10:24:42.957Z</time></trkpt><trkpt lat="45.5510137" lon="10.8658962"><ele>451.0</ele><time>2026-03-22T10:24:43.965Z</time></trkpt><trkpt lat="45.5509045" lon="10.8658254"><ele>451.20000000000005</ele><time>2026-03-22T10:24:44.961Z</time></trkpt><trkpt lat="45.5508041" lon="10.8657632"><ele>451.40000000000003</ele><time>2026-03-22T10:24:45.946Z</time></trkpt><trkpt lat="45.5507011" lon="10.865701"><ele>451.6</ele><time>2026-03-22T10:24:46.964Z</time></trkpt><trkpt lat="45.5505978" lon="10.8656359"><ele>451.8</ele><time>2026-03-22T10:24:47.949Z</time></trkpt><trkpt lat="45.5504934" lon="10.8655726"><ele>452.0</ele><time>2026-03-22T10:24:48.954Z</time></trkpt><trkpt lat="45.5503859" lon="10.8655126"><ele>451.0</ele><time>2026-03-22T10:24:49.957Z</time></trkpt><trkpt lat="45.5502724" lon="10.8654863"><ele>450.0</ele><time>2026-03-22T10:24:50.956Z</time></trkpt><trkpt lat="45.5501577" lon="10.8655064"><ele>449.0</ele><time>2026-03-22T10:24:51.945Z</time></trkpt><trkpt lat="45.5500378" lon="10.865542"><ele>448.0</ele><time>2026-03-22T10:24:52.942Z</time></trkpt><trkpt lat="45.5499158" lon="10.865581"><ele>448.0</ele><time>2026-03-22T10:24:53.949Z</time></trkpt><trkpt lat="45.5497965" lon="10.8656295"><ele>448.0</ele><time>2026-03-22T10:24:54.95Z</time></trkpt><trkpt lat="45.5496736" lon="10.8656795"><ele>448.0</ele><time>2026-03-22T10:24:55.95Z</time></trkpt><trkpt lat="45.5495542" lon="10.8657343"><ele>448.0</ele><time>2026-03-22T10:24:56.942Z</time></trkpt><trkpt lat="45.5494357" lon="10.8657904"><ele>448.25</ele><time>2026-03-22T10:24:57.954Z</time></trkpt><trkpt lat="45.5493159" lon="10.8658474"><ele>448.5</ele><time>2026-03-22T10:24:58.955Z</time></trkpt><trkpt lat="45.5491986" lon="10.8659067"><ele>448.75</ele><time>2026-03-22T10:24:59.962Z</time></trkpt><trkpt lat="45.5490816" lon="10.8659698"><ele>449.0</ele><time>2026-03-22T10:25:00.964Z</time></trkpt><trkpt lat="45.5489674" lon="10.8660342"><ele>449.0</ele><time>2026-03-22T10:25:01.953Z</time></trkpt><trkpt lat="45.5488575" lon="10.8661003"><ele>449.0</ele><time>2026-03-22T10:25:02.961Z</time></trkpt><trkpt lat="45.5487485" lon="10.8661637"><ele>449.0</ele><time>2026-03-22T10:25:03.953Z</time></trkpt><trkpt lat="45.5486374" lon="10.8662255"><ele>449.0</ele><time>2026-03-22T10:25:04.953Z</time></trkpt><trkpt lat="45.5485311" lon="10.8662849"><ele>449.0</ele><time>2026-03-22T10:25:05.946Z</time></trkpt><trkpt lat="45.548427" lon="10.8663503"><ele>449.0</ele><time>2026-03-22T10:25:06.957Z</time></trkpt><trkpt lat="45.5483281" lon="10.8664114"><ele>449.0</ele><time>2026-03-22T10:25:07.958Z</time></trkpt><trkpt lat="45.5482262" lon="10.8664894"><ele>449.0</ele><time>2026-03-22T10:25:08.953Z</time></trkpt><trkpt lat="45.5481302" lon="10.8665762"><ele>449.0</ele><time>2026-03-22T10:25:09.958Z</time></trkpt><trkpt lat="45.5480359" lon="10.8666769"><ele>449.0</ele><time>2026-03-22T10:25:10.963Z</time></trkpt><trkpt lat="45.5479442" lon="10.8667775"><ele>449.0</ele><time>2026-03-22T10:25:11.957Z</time></trkpt><trkpt lat="45.5478572" lon="10.8668702"><ele>449.0</ele><time>2026-03-22T10:25:12.958Z</time></trkpt><trkpt lat="45.547777" lon="10.8669594"><ele>449.0</ele><time>2026-03-22T10:25:13.949Z</time></trkpt><trkpt lat="45.5477008" lon="10.8670528"><ele>447.0</ele><time>2026-03-22T10:25:14.965Z</time></trkpt><trkpt lat="45.5476195" lon="10.8671251"><ele>445.0</ele><time>2026-03-22T10:25:15.949Z</time></trkpt><trkpt lat="45.547533" lon="10.8671751"><ele>443.0</ele><time>2026-03-22T10:25:16.968Z</time></trkpt><trkpt lat="45.5474345" lon="10.86719"><ele>441.0</ele><time>2026-03-22T10:25:17.954Z</time></trkpt><trkpt lat="45.5473337" lon="10.8671821"><ele>439.0</ele><time>2026-03-22T10:25:18.958Z</time></trkpt><trkpt lat="45.5472263" lon="10.8671471"><ele>439.0</ele><time>2026-03-22T10:25:19.965Z</time></trkpt><trkpt lat="45.5471209" lon="10.8670953"><ele>439.0</ele><time>2026-03-22T10:25:20.951Z</time></trkpt><trkpt lat="45.5470035" lon="10.8670403"><ele>439.0</ele><time>2026-03-22T10:25:21.959Z</time></trkpt><trkpt lat="45.5468827" lon="10.8669973"><ele>439.0</ele><time>2026-03-22T10:25:22.957Z</time></trkpt><trkpt lat="45.546759" lon="10.8669477"><ele>440.25</ele><time>2026-03-22T10:25:23.961Z</time></trkpt><trkpt lat="45.5466318" lon="10.8668929"><ele>441.5</ele><time>2026-03-22T10:25:24.958Z</time></trkpt><trkpt lat="45.5465065" lon="10.8668274"><ele>442.75</ele><time>2026-03-22T10:25:25.961Z</time></trkpt><trkpt lat="45.5463807" lon="10.8667503"><ele>444.0</ele><time>2026-03-22T10:25:26.962Z</time></trkpt><trkpt lat="45.5462574" lon="10.8666681"><ele>440.25</ele><time>2026-03-22T10:25:27.961Z</time></trkpt><trkpt lat="45.5461416" lon="10.8665798"><ele>436.5</ele><time>2026-03-22T10:25:28.95Z</time></trkpt><trkpt lat="45.5460315" lon="10.8664916"><ele>432.75</ele><time>2026-03-22T10:25:29.964Z</time></trkpt><trkpt lat="45.5459136" lon="10.8664109"><ele>429.0</ele><time>2026-03-22T10:25:30.956Z</time></trkpt><trkpt lat="45.5457962" lon="10.8663333"><ele>429.0</ele><time>2026-03-22T10:25:31.952Z</time></trkpt><trkpt lat="45.5456803" lon="10.866256"><ele>429.0</ele><time>2026-03-22T10:25:32.955Z</time></trkpt><trkpt lat="45.5455702" lon="10.8661784"><ele>429.0</ele><time>2026-03-22T10:25:33.946Z</time></trkpt><trkpt lat="45.5454592" lon="10.8660937"><ele>429.0</ele><time>2026-03-22T10:25:34.963Z</time></trkpt><trkpt lat="45.5453586" lon="10.86599"><ele>427.25</ele><time>2026-03-22T10:25:35.943Z</time></trkpt><trkpt lat="45.5452649" lon="10.8658648"><ele>425.5</ele><time>2026-03-22T10:25:36.957Z</time></trkpt><trkpt lat="45.5451778" lon="10.8657292"><ele>423.75</ele><time>2026-03-22T10:25:37.959Z</time></trkpt><trkpt lat="45.5450918" lon="10.8655918"><ele>422.0</ele><time>2026-03-22T10:25:38.954Z</time></trkpt><trkpt lat="45.5450102" lon="10.8654509"><ele>422.0</ele><time>2026-03-22T10:25:39.961Z</time></trkpt><trkpt lat="45.5449212" lon="10.86531"><ele>422.0</ele><time>2026-03-22T10:25:40.968Z</time></trkpt><trkpt lat="45.5448365" lon="10.8651716"><ele>422.0</ele><time>2026-03-22T10:25:41.961Z</time></trkpt><trkpt lat="45.5447557" lon="10.8650349"><ele>422.0</ele><time>2026-03-22T10:25:42.963Z</time></trkpt><trkpt lat="45.5446631" lon="10.8649173"><ele>421.5</ele><time>2026-03-22T10:25:43.956Z</time></trkpt><trkpt lat="45.5445544" lon="10.8648231"><ele>421.0</ele><time>2026-03-22T10:25:44.956Z</time></trkpt><trkpt lat="45.5444419" lon="10.8647413"><ele>420.5</ele><time>2026-03-22T10:25:45.957Z</time></trkpt><trkpt lat="45.5443117" lon="10.8646837"><ele>420.0</ele><time>2026-03-22T10:25:46.95Z</time></trkpt><trkpt lat="45.5441757" lon="10.8646568"><ele>417.75</ele><time>2026-03-22T10:25:47.962Z</time></trkpt><trkpt lat="45.5440438" lon="10.8646777"><ele>415.5</ele><time>2026-03-22T10:25:48.954Z</time></trkpt><trkpt lat="45.5439227" lon="10.8647409"><ele>413.25</ele><time>2026-03-22T10:25:49.953Z</time></trkpt><trkpt lat="45.5438216" lon="10.8648406"><ele>411.0</ele><time>2026-03-22T10:25:50.957Z</time></trkpt><trkpt lat="45.5437339" lon="10.8649694"><ele>408.75</ele><time>2026-03-22T10:25:51.947Z</time></trkpt><trkpt lat="45.5436558" lon="10.8651034"><ele>406.5</ele><time>2026-03-22T10:25:52.938Z</time></trkpt><trkpt lat="45.5435831" lon="10.8652327"><ele>404.25</ele><time>2026-03-22T10:25:53.965Z</time></trkpt><trkpt lat="45.5435088" lon="10.8653556"><ele>402.0</ele><time>2026-03-22T10:25:54.952Z</time></trkpt><trkpt lat="45.5434379" lon="10.8654839"><ele>402.0</ele><time>2026-03-22T10:25:55.957Z</time></trkpt><trkpt lat="45.543366" lon="10.865611"><ele>402.0</ele><time>2026-03-22T10:25:56.952Z</time></trkpt><trkpt lat="45.5433042" lon="10.8657308"><ele>402.0</ele><time>2026-03-22T10:25:57.949Z</time></trkpt><trkpt lat="45.5432726" lon="10.865867"><ele>402.0</ele><time>2026-03-22T10:25:58.954Z</time></trkpt><trkpt lat="45.5432642" lon="10.86602"><ele>402.0</ele><time>2026-03-22T10:25:59.955Z</time></trkpt><trkpt lat="45.5432726" lon="10.8661772"><ele>402.0</ele><time>2026-03-22T10:26:00.955Z</time></trkpt><trkpt lat="45.5432844" lon="10.8663344"><ele>402.0</ele><time>2026-03-22T10:26:01.961Z</time></trkpt><trkpt lat="45.5432998" lon="10.8664906"><ele>402.0</ele><time>2026-03-22T10:26:02.956Z</time></trkpt><trkpt lat="45.5433149" lon="10.8666465"><ele>402.0</ele><time>2026-03-22T10:26:03.963Z</time></trkpt><trkpt lat="45.5433281" lon="10.8668014"><ele>402.0</ele><time>2026-03-22T10:26:04.955Z</time></trkpt><trkpt lat="45.5433429" lon="10.8669561"><ele>400.8</ele><time>2026-03-22T10:26:05.953Z</time></trkpt><trkpt lat="45.5433622" lon="10.8671066"><ele>399.6</ele><time>2026-03-22T10:26:06.95Z</time></trkpt><trkpt lat="45.5433984" lon="10.8672407"><ele>398.40000000000003</ele><time>2026-03-22T10:26:07.948Z</time></trkpt><trkpt lat="45.5434624" lon="10.8673447"><ele>397.20000000000005</ele><time>2026-03-22T10:26:08.961Z</time></trkpt><trkpt lat="45.543558" lon="10.8674281"><ele>396.0</ele><time>2026-03-22T10:26:09.953Z</time></trkpt><trkpt lat="45.5436611" lon="10.8675007"><ele>397.20000000000005</ele><time>2026-03-22T10:26:10.96Z</time></trkpt><trkpt lat="45.5437574" lon="10.8675681"><ele>398.40000000000003</ele><time>2026-03-22T10:26:11.96Z</time></trkpt><trkpt lat="45.5438567" lon="10.8676455"><ele>399.6</ele><time>2026-03-22T10:26:12.951Z</time></trkpt><trkpt lat="45.5439625" lon="10.8677143"><ele>400.8</ele><time>2026-03-22T10:26:13.944Z</time></trkpt><trkpt lat="45.5440658" lon="10.8677731"><ele>402.0</ele><time>2026-03-22T10:26:14.953Z</time></trkpt><trkpt lat="45.5441733" lon="10.8678119"><ele>397.25</ele><time>2026-03-22T10:26:15.953Z</time></trkpt><trkpt lat="45.544291" lon="10.8678311"><ele>392.5</ele><time>2026-03-22T10:26:16.967Z</time></trkpt><trkpt lat="45.5444121" lon="10.8678386"><ele>387.75</ele><time>2026-03-22T10:26:17.961Z</time></trkpt><trkpt lat="45.5445305" lon="10.8678423"><ele>383.0</ele><time>2026-03-22T10:26:18.961Z</time></trkpt><trkpt lat="45.5446492" lon="10.8678389"><ele>383.0</ele><time>2026-03-22T10:26:19.958Z</time></trkpt><trkpt lat="45.5447665" lon="10.8678468"><ele>383.0</ele><time>2026-03-22T10:26:20.962Z</time></trkpt><trkpt lat="45.5448885" lon="10.8678436"><ele>383.0</ele><time>2026-03-22T10:26:21.964Z</time></trkpt><trkpt lat="45.5450103" lon="10.8678425"><ele>383.0</ele><time>2026-03-22T10:26:22.959Z</time></trkpt><trkpt lat="45.5451282" lon="10.867855"><ele>383.0</ele><time>2026-03-22T10:26:23.966Z</time></trkpt><trkpt lat="45.5452446" lon="10.8678816"><ele>383.0</ele><time>2026-03-22T10:26:24.963Z</time></trkpt><trkpt lat="45.5453556" lon="10.86794"><ele>383.0</ele><time>2026-03-22T10:26:25.962Z</time></trkpt><trkpt lat="45.5454516" lon="10.8680202"><ele>383.0</ele><time>2026-03-22T10:26:26.96Z</time></trkpt><trkpt lat="45.5455358" lon="10.8681215"><ele>382.5</ele><time>2026-03-22T10:26:27.943Z</time></trkpt><trkpt lat="45.5456125" lon="10.8682408"><ele>382.0</ele><time>2026-03-22T10:26:28.958Z</time></trkpt><trkpt lat="45.5456902" lon="10.8683649"><ele>381.5</ele><time>2026-03-22T10:26:29.956Z</time></trkpt><trkpt lat="45.5457643" lon="10.868492"><ele>381.0</ele><time>2026-03-22T10:26:30.955Z</time></trkpt><trkpt lat="45.5458226" lon="10.8686224"><ele>381.0</ele><time>2026-03-22T10:26:31.955Z</time></trkpt><trkpt lat="45.5458747" lon="10.86875"><ele>381.0</ele><time>2026-03-22T10:26:32.951Z</time></trkpt><trkpt lat="45.545927" lon="10.8688827"><ele>381.0</ele><time>2026-03-22T10:26:33.949Z</time></trkpt><trkpt lat="45.5459879" lon="10.8690076"><ele>381.0</ele><time>2026-03-22T10:26:34.957Z</time></trkpt><trkpt lat="45.5460712" lon="10.869106"><ele>381.0</ele><time>2026-03-22T10:26:35.951Z</time></trkpt><trkpt lat="45.5461708" lon="10.8691868"><ele>382.6</ele><time>2026-03-22T10:26:36.96Z</time></trkpt><trkpt lat="45.5462738" lon="10.869253"><ele>384.20000000000005</ele><time>2026-03-22T10:26:37.958Z</time></trkpt><trkpt lat="45.5463785" lon="10.8692906"><ele>385.79999999999995</ele><time>2026-03-22T10:26:38.96Z</time></trkpt><trkpt lat="45.5464902" lon="10.8692922"><ele>387.4</ele><time>2026-03-22T10:26:39.956Z</time></trkpt><trkpt lat="45.5465912" lon="10.8692713"><ele>389.0</ele><time>2026-03-22T10:26:40.957Z</time></trkpt><trkpt lat="45.5466873" lon="10.8692386"><ele>388.99999999999994</ele><time>2026-03-22T10:26:41.95Z</time></trkpt><trkpt lat="45.5467817" lon="10.8692072"><ele>389.0</ele><time>2026-03-22T10:26:42.94Z</time></trkpt><trkpt lat="45.5468674" lon="10.8691788"><ele>389.0</ele><time>2026-03-22T10:26:43.952Z</time></trkpt><trkpt lat="45.5469478" lon="10.8691681"><ele>389.0</ele><time>2026-03-22T10:26:44.956Z</time></trkpt><trkpt lat="45.547049" lon="10.86925"><ele>388.99999999999994</ele><time>2026-03-22T10:26:46.951Z</time></trkpt><trkpt lat="45.5470289" lon="10.8693398"><ele>389.0</ele><time>2026-03-22T10:26:47.96Z</time></trkpt><trkpt lat="45.5469733" lon="10.8693826"><ele>385.3333333333333</ele><time>2026-03-22T10:26:48.955Z</time></trkpt><trkpt lat="45.5468976" lon="10.8693899"><ele>381.66666666666663</ele><time>2026-03-22T10:26:49.955Z</time></trkpt><trkpt lat="45.5468233" lon="10.8694069"><ele>378.0</ele><time>2026-03-22T10:26:50.956Z</time></trkpt><trkpt lat="45.5467362" lon="10.8694264"><ele>374.3333333333333</ele><time>2026-03-22T10:26:51.959Z</time></trkpt><trkpt lat="45.5466455" lon="10.869452"><ele>370.66666666666663</ele><time>2026-03-22T10:26:52.941Z</time></trkpt><trkpt lat="45.5465549" lon="10.8694877"><ele>367.0</ele><time>2026-03-22T10:26:53.956Z</time></trkpt><trkpt lat="45.5464549" lon="10.8695221"><ele>367.0</ele><time>2026-03-22T10:26:54.954Z</time></trkpt><trkpt lat="45.5463581" lon="10.8695444"><ele>367.0</ele><time>2026-03-22T10:26:55.959Z</time></trkpt><trkpt lat="45.546263" lon="10.8695737"><ele>367.0</ele><time>2026-03-22T10:26:56.962Z</time></trkpt><trkpt lat="45.5461662" lon="10.8696008"><ele>367.0</ele><time>2026-03-22T10:26:57.957Z</time></trkpt><trkpt lat="45.5460653" lon="10.8696129"><ele>367.0</ele><time>2026-03-22T10:26:58.963Z</time></trkpt><trkpt lat="45.5459685" lon="10.869598"><ele>366.20000000000005</ele><time>2026-03-22T10:26:59.968Z</time></trkpt><trkpt lat="45.5458687" lon="10.8695672"><ele>365.4</ele><time>2026-03-22T10:27:00.963Z</time></trkpt><trkpt lat="45.5457667" lon="10.8695258"><ele>364.6</ele><time>2026-03-22T10:27:01.964Z</time></trkpt><trkpt lat="45.5456708" lon="10.8694705"><ele>363.79999999999995</ele><time>2026-03-22T10:27:02.958Z</time></trkpt><trkpt lat="45.5455821" lon="10.8694024"><ele>363.0</ele><time>2026-03-22T10:27:03.955Z</time></trkpt><trkpt lat="45.5455027" lon="10.8693218"><ele>362.4</ele><time>2026-03-22T10:27:04.953Z</time></trkpt><trkpt lat="45.5454345" lon="10.8692206"><ele>361.79999999999995</ele><time>2026-03-22T10:27:05.96Z</time></trkpt><trkpt lat="45.545393" lon="10.8690988"><ele>361.2</ele><time>2026-03-22T10:27:06.951Z</time></trkpt><trkpt lat="45.5453579" lon="10.8689644"><ele>360.6</ele><time>2026-03-22T10:27:07.939Z</time></trkpt><trkpt lat="45.5453195" lon="10.8688315"><ele>360.0</ele><time>2026-03-22T10:27:08.959Z</time></trkpt><trkpt lat="45.5452581" lon="10.8687278"><ele>360.0</ele><time>2026-03-22T10:27:09.962Z</time></trkpt><trkpt lat="45.545184" lon="10.8686434"><ele>360.0</ele><time>2026-03-22T10:27:10.958Z</time></trkpt><trkpt lat="45.5450906" lon="10.8686019"><ele>360.0</ele><time>2026-03-22T10:27:11.962Z</time></trkpt><trkpt lat="45.5449748" lon="10.8686334"><ele>360.0</ele><time>2026-03-22T10:27:12.951Z</time></trkpt><trkpt lat="45.5448571" lon="10.8686759"><ele>360.0</ele><time>2026-03-22T10:27:13.94Z</time></trkpt><trkpt lat="45.544737" lon="10.8687233"><ele>360.0</ele><time>2026-03-22T10:27:14.958Z</time></trkpt><trkpt lat="45.5446073" lon="10.8687739"><ele>360.0</ele><time>2026-03-22T10:27:15.956Z</time></trkpt><trkpt lat="45.5444782" lon="10.8688242"><ele>360.0</ele><time>2026-03-22T10:27:16.959Z</time></trkpt><trkpt lat="45.5443569" lon="10.8688717"><ele>360.0</ele><time>2026-03-22T10:27:17.958Z</time></trkpt><trkpt lat="45.5442334" lon="10.8689113"><ele>358.25</ele><time>2026-03-22T10:27:18.958Z</time></trkpt><trkpt lat="45.5441208" lon="10.8689578"><ele>356.5</ele><time>2026-03-22T10:27:19.962Z</time></trkpt><trkpt lat="45.5440133" lon="10.8690139"><ele>354.75</ele><time>2026-03-22T10:27:20.951Z</time></trkpt><trkpt lat="45.5439162" lon="10.8690952"><ele>353.0</ele><time>2026-03-22T10:27:21.953Z</time></trkpt><trkpt lat="45.5438247" lon="10.8691906"><ele>349.25</ele><time>2026-03-22T10:27:22.952Z</time></trkpt><trkpt lat="45.5437304" lon="10.8692902"><ele>345.5</ele><time>2026-03-22T10:27:23.955Z</time></trkpt><trkpt lat="45.5436368" lon="10.8693844"><ele>341.75</ele><time>2026-03-22T10:27:24.951Z</time></trkpt><trkpt lat="45.5435475" lon="10.8694765"><ele>338.0</ele><time>2026-03-22T10:27:25.959Z</time></trkpt><trkpt lat="45.5434488" lon="10.869548"><ele>338.0</ele><time>2026-03-22T10:27:26.951Z</time></trkpt><trkpt lat="45.5433484" lon="10.8695956"><ele>338.0</ele><time>2026-03-22T10:27:27.961Z</time></trkpt><trkpt lat="45.5432394" lon="10.8696289"><ele>338.0</ele><time>2026-03-22T10:27:28.949Z</time></trkpt><trkpt lat="45.5431262" lon="10.8696685"><ele>338.0</ele><time>2026-03-22T10:27:29.946Z</time></trkpt><trkpt lat="45.5430112" lon="10.8697074"><ele>338.0</ele><time>2026-03-22T10:27:30.956Z</time></trkpt><trkpt lat="45.5428937" lon="10.869742"><ele>338.0</ele><time>2026-03-22T10:27:31.952Z</time></trkpt><trkpt lat="45.5427732" lon="10.869773"><ele>338.0</ele><time>2026-03-22T10:27:32.959Z</time></trkpt><trkpt lat="45.5426505" lon="10.8697882"><ele>338.0</ele><time>2026-03-22T10:27:33.955Z</time></trkpt><trkpt lat="45.5425257" lon="10.8697954"><ele>338.25</ele><time>2026-03-22T10:27:34.965Z</time></trkpt><trkpt lat="45.5424052" lon="10.8698006"><ele>338.5</ele><time>2026-03-22T10:27:35.954Z</time></trkpt><trkpt lat="45.5422913" lon="10.8698126"><ele>338.75</ele><time>2026-03-22T10:27:36.951Z</time></trkpt><trkpt lat="45.5421795" lon="10.8698182"><ele>339.0</ele><time>2026-03-22T10:27:37.957Z</time></trkpt><trkpt lat="45.5420633" lon="10.869802"><ele>336.6</ele><time>2026-03-22T10:27:38.949Z</time></trkpt><trkpt lat="45.5419554" lon="10.8697602"><ele>334.2</ele><time>2026-03-22T10:27:39.958Z</time></trkpt><trkpt lat="45.5418503" lon="10.8697022"><ele>331.8</ele><time>2026-03-22T10:27:40.951Z</time></trkpt><trkpt lat="45.5417559" lon="10.869624"><ele>329.40000000000003</ele><time>2026-03-22T10:27:41.953Z</time></trkpt><trkpt lat="45.5416648" lon="10.8695448"><ele>327.0</ele><time>2026-03-22T10:27:42.957Z</time></trkpt><trkpt lat="45.5415835" lon="10.8694624"><ele>327.0</ele><time>2026-03-22T10:27:43.955Z</time></trkpt><trkpt lat="45.5415029" lon="10.8693871"><ele>327.0</ele><time>2026-03-22T10:27:44.96Z</time></trkpt><trkpt lat="45.5414287" lon="10.8693144"><ele>327.0</ele><time>2026-03-22T10:27:45.958Z</time></trkpt><trkpt lat="45.5413587" lon="10.8692484"><ele>327.0</ele><time>2026-03-22T10:27:46.951Z</time></trkpt><trkpt lat="45.541287" lon="10.8692075"><ele>327.0</ele><time>2026-03-22T10:27:47.959Z</time></trkpt><trkpt lat="45.5412075" lon="10.8693381"><ele>327.0</ele><time>2026-03-22T10:27:49.951Z</time></trkpt><trkpt lat="45.5413111" lon="10.8694471"><ele>327.0</ele><time>2026-03-22T10:27:51.95Z</time></trkpt><trkpt lat="45.5413879" lon="10.8695048"><ele>327.0</ele><time>2026-03-22T10:27:52.944Z</time></trkpt><trkpt lat="45.5414681" lon="10.8695664"><ele>327.0</ele><time>2026-03-22T10:27:53.96Z</time></trkpt><trkpt lat="45.5415498" lon="10.8696341"><ele>327.0</ele><time>2026-03-22T10:27:54.961Z</time></trkpt><trkpt lat="45.54163" lon="10.8697286"><ele>327.0</ele><time>2026-03-22T10:27:55.964Z</time></trkpt><trkpt lat="45.541715" lon="10.8698213"><ele>327.0</ele><time>2026-03-22T10:27:56.962Z</time></trkpt><trkpt lat="45.5418018" lon="10.8699303"><ele>327.0</ele><time>2026-03-22T10:27:57.954Z</time></trkpt><trkpt lat="45.5418934" lon="10.8700375"><ele>327.0</ele><time>2026-03-22T10:27:58.961Z</time></trkpt><trkpt lat="45.5420002" lon="10.8701344"><ele>323.75</ele><time>2026-03-22T10:27:59.951Z</time></trkpt><trkpt lat="45.5421106" lon="10.8702194"><ele>320.5</ele><time>2026-03-22T10:28:00.953Z</time></trkpt><trkpt lat="45.5422246" lon="10.8702934"><ele>317.25</ele><time>2026-03-22T10:28:01.969Z</time></trkpt><trkpt lat="45.542334" lon="10.8703668"><ele>314.0</ele><time>2026-03-22T10:28:02.963Z</time></trkpt><trkpt lat="45.5424446" lon="10.8704256"><ele>314.0</ele><time>2026-03-22T10:28:03.954Z</time></trkpt><trkpt lat="45.5425567" lon="10.8704723"><ele>314.0</ele><time>2026-03-22T10:28:04.957Z</time></trkpt><trkpt lat="45.5426634" lon="10.8705133"><ele>314.0</ele><time>2026-03-22T10:28:05.95Z</time></trkpt><trkpt lat="45.5427724" lon="10.8705341"><ele>314.0</ele><time>2026-03-22T10:28:06.951Z</time></trkpt><trkpt lat="45.5428772" lon="10.8705502"><ele>314.0</ele><time>2026-03-22T10:28:07.963Z</time></trkpt><trkpt lat="45.5429801" lon="10.8705668"><ele>314.0</ele><time>2026-03-22T10:28:08.958Z</time></trkpt><trkpt lat="45.5430795" lon="10.8705812"><ele>314.0</ele><time>2026-03-22T10:28:09.953Z</time></trkpt><trkpt lat="45.5431793" lon="10.8705877"><ele>314.0</ele><time>2026-03-22T10:28:10.958Z</time></trkpt><trkpt lat="45.5432749" lon="10.8705967"><ele>314.0</ele><time>2026-03-22T10:28:11.961Z</time></trkpt><trkpt lat="45.5433479" lon="10.8706314"><ele>314.0</ele><time>2026-03-22T10:28:12.946Z</time></trkpt><trkpt lat="45.5433837" lon="10.8707676"><ele>314.0</ele><time>2026-03-22T10:28:14.955Z</time></trkpt><trkpt lat="45.5432564" lon="10.8708394"><ele>314.0</ele><time>2026-03-22T10:28:16.953Z</time></trkpt><trkpt lat="45.5431634" lon="10.870853"><ele>314.0</ele><time>2026-03-22T10:28:17.959Z</time></trkpt><trkpt lat="45.5430676" lon="10.8708778"><ele>314.0</ele><time>2026-03-22T10:28:18.952Z</time></trkpt><trkpt lat="45.5429647" lon="10.8709042"><ele>314.0</ele><time>2026-03-22T10:28:19.953Z</time></trkpt><trkpt lat="45.5428602" lon="10.8709321"><ele>308.0</ele><time>2026-03-22T10:28:20.965Z</time></trkpt><trkpt lat="45.542746" lon="10.8709612"><ele>302.0</ele><time>2026-03-22T10:28:21.958Z</time></trkpt><trkpt lat="45.5426234" lon="10.8709831"><ele>296.0</ele><time>2026-03-22T10:28:22.952Z</time></trkpt><trkpt lat="45.5424997" lon="10.8710084"><ele>290.0</ele><time>2026-03-22T10:28:23.949Z</time></trkpt><trkpt lat="45.5423691" lon="10.8710348"><ele>290.0</ele><time>2026-03-22T10:28:24.954Z</time></trkpt><trkpt lat="45.5422444" lon="10.8710643"><ele>290.0</ele><time>2026-03-22T10:28:25.943Z</time></trkpt><trkpt lat="45.5421175" lon="10.8710916"><ele>290.0</ele><time>2026-03-22T10:28:26.959Z</time></trkpt><trkpt lat="45.5419938" lon="10.8711141"><ele>290.0</ele><time>2026-03-22T10:28:27.963Z</time></trkpt><trkpt lat="45.5418724" lon="10.8711304"><ele>289.6</ele><time>2026-03-22T10:28:28.962Z</time></trkpt><trkpt lat="45.5417559" lon="10.8711196"><ele>289.2</ele><time>2026-03-22T10:28:29.958Z</time></trkpt><trkpt lat="45.5416536" lon="10.8710786"><ele>288.8</ele><time>2026-03-22T10:28:30.951Z</time></trkpt><trkpt lat="45.5415614" lon="10.8710142"><ele>288.4</ele><time>2026-03-22T10:28:31.96Z</time></trkpt><trkpt lat="45.5414767" lon="10.8709514"><ele>288.0</ele><time>2026-03-22T10:28:32.958Z</time></trkpt><trkpt lat="45.5413946" lon="10.8709115"><ele>288.0</ele><time>2026-03-22T10:28:33.961Z</time></trkpt><trkpt lat="45.54132" lon="10.870922"><ele>288.0</ele><time>2026-03-22T10:28:34.963Z</time></trkpt><trkpt lat="45.5412725" lon="10.8709941"><ele>288.0</ele><time>2026-03-22T10:28:35.952Z</time></trkpt><trkpt lat="45.5412711" lon="10.8710987"><ele>288.0</ele><time>2026-03-22T10:28:36.94Z</time></trkpt><trkpt lat="45.5413036" lon="10.8711834"><ele>288.0</ele><time>2026-03-22T10:28:37.952Z</time></trkpt><trkpt lat="45.5413751" lon="10.871234"><ele>288.0</ele><time>2026-03-22T10:28:38.954Z</time></trkpt><trkpt lat="45.5414663" lon="10.8712755"><ele>288.0</ele><time>2026-03-22T10:28:39.964Z</time></trkpt><trkpt lat="45.5415648" lon="10.8713131"><ele>288.0</ele><time>2026-03-22T10:28:40.952Z</time></trkpt><trkpt lat="45.5416704" lon="10.8713682"><ele>288.0</ele><time>2026-03-22T10:28:41.957Z</time></trkpt><trkpt lat="45.5417879" lon="10.8714209"><ele>288.0</ele><time>2026-03-22T10:28:42.963Z</time></trkpt><trkpt lat="45.5419096" lon="10.8714673"><ele>288.0</ele><time>2026-03-22T10:28:43.96Z</time></trkpt><trkpt lat="45.5420323" lon="10.8715088"><ele>288.0</ele><time>2026-03-22T10:28:44.957Z</time></trkpt><trkpt lat="45.5421519" lon="10.8715343"><ele>288.0</ele><time>2026-03-22T10:28:45.955Z</time></trkpt><trkpt lat="45.5422752" lon="10.8715601"><ele>288.0</ele><time>2026-03-22T10:28:46.955Z</time></trkpt><trkpt lat="45.5424129" lon="10.8715774"><ele>288.25</ele><time>2026-03-22T10:28:47.958Z</time></trkpt><trkpt lat="45.5425465" lon="10.8716019"><ele>288.5</ele><time>2026-03-22T10:28:48.951Z</time></trkpt><trkpt lat="45.5426784" lon="10.8716233"><ele>288.75</ele><time>2026-03-22T10:28:49.959Z</time></trkpt><trkpt lat="45.5428073" lon="10.8716463"><ele>289.0</ele><time>2026-03-22T10:28:50.957Z</time></trkpt><trkpt lat="45.5429271" lon="10.8716674"><ele>289.0</ele><time>2026-03-22T10:28:51.954Z</time></trkpt><trkpt lat="45.5430338" lon="10.8716791"><ele>289.0</ele><time>2026-03-22T10:28:52.953Z</time></trkpt><trkpt lat="45.5431233" lon="10.8716875"><ele>289.0</ele><time>2026-03-22T10:28:53.947Z</time></trkpt><trkpt lat="45.5431913" lon="10.8717084"><ele>289.0</ele><time>2026-03-22T10:28:54.949Z</time></trkpt><trkpt lat="45.5432383" lon="10.8718244"><ele>289.0</ele><time>2026-03-22T10:28:56.954Z</time></trkpt><trkpt lat="45.5431247" lon="10.8718512"><ele>284.8</ele><time>2026-03-22T10:28:58.949Z</time></trkpt><trkpt lat="45.543048" lon="10.8718277"><ele>280.59999999999997</ele><time>2026-03-22T10:28:59.948Z</time></trkpt><trkpt lat="45.5429622" lon="10.8718236"><ele>276.4</ele><time>2026-03-22T10:29:00.958Z</time></trkpt><trkpt lat="45.5428687" lon="10.8718391"><ele>272.2</ele><time>2026-03-22T10:29:01.949Z</time></trkpt><trkpt lat="45.5427691" lon="10.8718617"><ele>268.0</ele><time>2026-03-22T10:29:02.952Z</time></trkpt><trkpt lat="45.5426683" lon="10.871893"><ele>268.0</ele><time>2026-03-22T10:29:03.952Z</time></trkpt><trkpt lat="45.5425657" lon="10.8719288"><ele>268.0</ele><time>2026-03-22T10:29:04.954Z</time></trkpt><trkpt lat="45.5424565" lon="10.871964"><ele>268.0</ele><time>2026-03-22T10:29:05.954Z</time></trkpt><trkpt lat="45.5423491" lon="10.8719958"><ele>268.0</ele><time>2026-03-22T10:29:06.948Z</time></trkpt><trkpt lat="45.5422461" lon="10.8720455"><ele>268.0</ele><time>2026-03-22T10:29:07.954Z</time></trkpt><trkpt lat="45.5421467" lon="10.8721099"><ele>267.8</ele><time>2026-03-22T10:29:08.958Z</time></trkpt><trkpt lat="45.5420444" lon="10.8721621"><ele>267.6</ele><time>2026-03-22T10:29:09.947Z</time></trkpt><trkpt lat="45.5419369" lon="10.8721955"><ele>267.4</ele><time>2026-03-22T10:29:10.952Z</time></trkpt><trkpt lat="45.5418288" lon="10.8722134"><ele>267.2</ele><time>2026-03-22T10:29:11.962Z</time></trkpt><trkpt lat="45.5417162" lon="10.8722437"><ele>267.0</ele><time>2026-03-22T10:29:12.95Z</time></trkpt><trkpt lat="45.5416075" lon="10.8722731"><ele>267.0</ele><time>2026-03-22T10:29:13.952Z</time></trkpt><trkpt lat="45.5415012" lon="10.8723105"><ele>267.0</ele><time>2026-03-22T10:29:14.949Z</time></trkpt><trkpt lat="45.5413971" lon="10.8723467"><ele>267.0</ele><time>2026-03-22T10:29:15.952Z</time></trkpt><trkpt lat="45.5412878" lon="10.8723633"><ele>267.0</ele><time>2026-03-22T10:29:16.96Z</time></trkpt><trkpt lat="45.5410772" lon="10.8723244"><ele>265.2</ele><time>2026-03-22T10:29:18.948Z</time></trkpt><trkpt lat="45.5409741" lon="10.8722758"><ele>263.4</ele><time>2026-03-22T10:29:19.957Z</time></trkpt><trkpt lat="45.5408686" lon="10.87224"><ele>261.6</ele><time>2026-03-22T10:29:20.955Z</time></trkpt><trkpt lat="45.5407646" lon="10.8722097"><ele>259.8</ele><time>2026-03-22T10:29:21.964Z</time></trkpt><trkpt lat="45.5406606" lon="10.8721726"><ele>258.0</ele><time>2026-03-22T10:29:22.955Z</time></trkpt><trkpt lat="45.5405634" lon="10.8721353"><ele>258.0</ele><time>2026-03-22T10:29:23.951Z</time></trkpt><trkpt lat="45.5404826" lon="10.8721068"><ele>258.0</ele><time>2026-03-22T10:29:24.949Z</time></trkpt><trkpt lat="45.5404082" lon="10.8721251"><ele>258.0</ele><time>2026-03-22T10:29:25.962Z</time></trkpt><trkpt lat="45.540348" lon="10.8722126"><ele>258.0</ele><time>2026-03-22T10:29:26.951Z</time></trkpt><trkpt lat="45.5403588" lon="10.8723178"><ele>258.0</ele><time>2026-03-22T10:29:27.951Z</time></trkpt><trkpt lat="45.5404128" lon="10.8724024"><ele>258.0</ele><time>2026-03-22T10:29:28.95Z</time></trkpt><trkpt lat="45.5404815" lon="10.8724553"><ele>258.0</ele><time>2026-03-22T10:29:29.954Z</time></trkpt><trkpt lat="45.5405613" lon="10.8725092"><ele>258.0</ele><time>2026-03-22T10:29:30.953Z</time></trkpt><trkpt lat="45.5406437" lon="10.8725631"><ele>258.0</ele><time>2026-03-22T10:29:31.942Z</time></trkpt><trkpt lat="45.5407353" lon="10.8726208"><ele>258.0</ele><time>2026-03-22T10:29:32.954Z</time></trkpt><trkpt lat="45.5408292" lon="10.8726855"><ele>258.0</ele><time>2026-03-22T10:29:33.963Z</time></trkpt><trkpt lat="45.5409236" lon="10.872743"><ele>256.0</ele><time>2026-03-22T10:29:34.951Z</time></trkpt><trkpt lat="45.5410169" lon="10.872808"><ele>254.0</ele><time>2026-03-22T10:29:35.958Z</time></trkpt><trkpt lat="45.5411143" lon="10.8728661"><ele>252.0</ele><time>2026-03-22T10:29:36.955Z</time></trkpt><trkpt lat="45.5412145" lon="10.8729239"><ele>250.0</ele><time>2026-03-22T10:29:37.953Z</time></trkpt><trkpt lat="45.5413158" lon="10.8729848"><ele>248.0</ele><time>2026-03-22T10:29:38.956Z</time></trkpt><trkpt lat="45.5414191" lon="10.8730423"><ele>248.0</ele><time>2026-03-22T10:29:39.955Z</time></trkpt><trkpt lat="45.541524" lon="10.8731017"><ele>248.0</ele><time>2026-03-22T10:29:40.953Z</time></trkpt><trkpt lat="45.541624" lon="10.8731661"><ele>248.0</ele><time>2026-03-22T10:29:41.955Z</time></trkpt><trkpt lat="45.5417284" lon="10.8732213"><ele>248.0</ele><time>2026-03-22T10:29:42.961Z</time></trkpt><trkpt lat="45.5418326" lon="10.8732749"><ele>248.0</ele><time>2026-03-22T10:29:43.967Z</time></trkpt><trkpt lat="45.5419343" lon="10.8733277"><ele>248.0</ele><time>2026-03-22T10:29:44.966Z</time></trkpt><trkpt lat="45.5420337" lon="10.8733753"><ele>248.0</ele><time>2026-03-22T10:29:45.948Z</time></trkpt><trkpt lat="45.5421291" lon="10.8734172"><ele>248.0</ele><time>2026-03-22T10:29:46.955Z</time></trkpt><trkpt lat="45.5422209" lon="10.8734457"><ele>248.0</ele><time>2026-03-22T10:29:47.96Z</time></trkpt><trkpt lat="45.5423174" lon="10.8734542"><ele>248.0</ele><time>2026-03-22T10:29:48.951Z</time></trkpt><trkpt lat="45.542403" lon="10.8734357"><ele>248.00000000000003</ele><time>2026-03-22T10:29:49.955Z</time></trkpt><trkpt lat="45.5424849" lon="10.8734047"><ele>248.0</ele><time>2026-03-22T10:29:50.953Z</time></trkpt><trkpt lat="45.5425645" lon="10.8733797"><ele>248.0</ele><time>2026-03-22T10:29:51.953Z</time></trkpt><trkpt lat="45.5426276" lon="10.8734017"><ele>248.0</ele><time>2026-03-22T10:29:52.958Z</time></trkpt><trkpt lat="45.5426523" lon="10.8735584"><ele>248.00000000000003</ele><time>2026-03-22T10:29:54.954Z</time></trkpt><trkpt lat="45.5425974" lon="10.8736149"><ele>248.0</ele><time>2026-03-22T10:29:55.951Z</time></trkpt><trkpt lat="45.5425086" lon="10.8736441"><ele>245.60000000000002</ele><time>2026-03-22T10:29:56.96Z</time></trkpt><trkpt lat="45.5424135" lon="10.8736566"><ele>243.20000000000002</ele><time>2026-03-22T10:29:57.953Z</time></trkpt><trkpt lat="45.542315" lon="10.8736796"><ele>240.8</ele><time>2026-03-22T10:29:58.961Z</time></trkpt><trkpt lat="45.5422074" lon="10.8737049"><ele>238.4</ele><time>2026-03-22T10:29:59.953Z</time></trkpt><trkpt lat="45.5421007" lon="10.8737306"><ele>236.0</ele><time>2026-03-22T10:30:00.957Z</time></trkpt><trkpt lat="45.5419904" lon="10.8737569"><ele>234.4</ele><time>2026-03-22T10:30:01.955Z</time></trkpt><trkpt lat="45.5418817" lon="10.8737889"><ele>232.8</ele><time>2026-03-22T10:30:02.953Z</time></trkpt><trkpt lat="45.5417711" lon="10.8738241"><ele>231.20000000000002</ele><time>2026-03-22T10:30:03.958Z</time></trkpt><trkpt lat="45.5416627" lon="10.8738565"><ele>229.60000000000002</ele><time>2026-03-22T10:30:04.965Z</time></trkpt><trkpt lat="45.5415525" lon="10.8738872"><ele>228.0</ele><time>2026-03-22T10:30:05.964Z</time></trkpt><trkpt lat="45.5414419" lon="10.8739152"><ele>228.0</ele><time>2026-03-22T10:30:06.959Z</time></trkpt><trkpt lat="45.5413325" lon="10.8739405"><ele>228.0</ele><time>2026-03-22T10:30:07.957Z</time></trkpt><trkpt lat="45.5412195" lon="10.8739575"><ele>228.0</ele><time>2026-03-22T10:30:08.96Z</time></trkpt><trkpt lat="45.5411034" lon="10.8739686"><ele>228.0</ele><time>2026-03-22T10:30:09.957Z</time></trkpt><trkpt lat="45.5409871" lon="10.8739608"><ele>227.5</ele><time>2026-03-22T10:30:10.956Z</time></trkpt><trkpt lat="45.5408714" lon="10.8739328"><ele>227.0</ele><time>2026-03-22T10:30:11.964Z</time></trkpt><trkpt lat="45.5407561" lon="10.8739072"><ele>226.5</ele><time>2026-03-22T10:30:12.955Z</time></trkpt><trkpt lat="45.5406377" lon="10.8738829"><ele>226.0</ele><time>2026-03-22T10:30:13.957Z</time></trkpt><trkpt lat="45.5405123" lon="10.8738691"><ele>223.75</ele><time>2026-03-22T10:30:14.953Z</time></trkpt><trkpt lat="45.5403817" lon="10.8738496"><ele>221.5</ele><time>2026-03-22T10:30:15.952Z</time></trkpt><trkpt lat="45.5402465" lon="10.8738216"><ele>219.25</ele><time>2026-03-22T10:30:16.954Z</time></trkpt><trkpt lat="45.5401125" lon="10.8737978"><ele>217.0</ele><time>2026-03-22T10:30:17.957Z</time></trkpt><trkpt lat="45.5399824" lon="10.8737761"><ele>217.0</ele><time>2026-03-22T10:30:18.948Z</time></trkpt><trkpt lat="45.539854" lon="10.8737545"><ele>217.0</ele><time>2026-03-22T10:30:19.96Z</time></trkpt><trkpt lat="45.5397322" lon="10.8737318"><ele>217.0</ele><time>2026-03-22T10:30:20.955Z</time></trkpt><trkpt lat="45.5396127" lon="10.8737096"><ele>217.0</ele><time>2026-03-22T10:30:21.957Z</time></trkpt><trkpt lat="45.5394975" lon="10.873683"><ele>215.39999999999998</ele><time>2026-03-22T10:30:22.958Z</time></trkpt><trkpt lat="45.5393935" lon="10.8736644"><ele>213.79999999999998</ele><time>2026-03-22T10:30:23.964Z</time></trkpt><trkpt lat="45.5393008" lon="10.8736687"><ele>212.2</ele><time>2026-03-22T10:30:24.944Z</time></trkpt><trkpt lat="45.5392345" lon="10.8736907"><ele>210.6</ele><time>2026-03-22T10:30:25.949Z</time></trkpt><trkpt lat="45.5392337" lon="10.8738859"><ele>209.0</ele><time>2026-03-22T10:30:27.957Z</time></trkpt><trkpt lat="45.5392854" lon="10.8739836"><ele>209.0</ele><time>2026-03-22T10:30:28.944Z</time></trkpt><trkpt lat="45.5393585" lon="10.874058"><ele>209.0</ele><time>2026-03-22T10:30:29.954Z</time></trkpt><trkpt lat="45.5394398" lon="10.8741468"><ele>209.0</ele><time>2026-03-22T10:30:30.968Z</time></trkpt><trkpt lat="45.5395245" lon="10.8742483"><ele>209.0</ele><time>2026-03-22T10:30:31.953Z</time></trkpt><trkpt lat="45.539613" lon="10.8743462"><ele>209.0</ele><time>2026-03-22T10:30:32.958Z</time></trkpt><trkpt lat="45.5397032" lon="10.8744388"><ele>208.0</ele><time>2026-03-22T10:30:33.957Z</time></trkpt><trkpt lat="45.5397888" lon="10.8745306"><ele>207.0</ele><time>2026-03-22T10:30:34.953Z</time></trkpt><trkpt lat="45.539879" lon="10.8746288"><ele>206.0</ele><time>2026-03-22T10:30:35.956Z</time></trkpt><trkpt lat="45.5399775" lon="10.874719"><ele>205.0</ele><time>2026-03-22T10:30:36.948Z</time></trkpt><trkpt lat="45.5400814" lon="10.8748083"><ele>205.0</ele><time>2026-03-22T10:30:37.961Z</time></trkpt><trkpt lat="45.5401866" lon="10.8748861"><ele>205.0</ele><time>2026-03-22T10:30:38.967Z</time></trkpt><trkpt lat="45.5402953" lon="10.8749663"><ele>205.0</ele><time>2026-03-22T10:30:39.966Z</time></trkpt><trkpt lat="45.540403" lon="10.8750459"><ele>205.0</ele><time>2026-03-22T10:30:40.94Z</time></trkpt><trkpt lat="45.5405034" lon="10.8751491"><ele>206.0</ele><time>2026-03-22T10:30:41.946Z</time></trkpt><trkpt lat="45.5405936" lon="10.8752626"><ele>207.0</ele><time>2026-03-22T10:30:42.947Z</time></trkpt><trkpt lat="45.5406739" lon="10.8753811"><ele>208.0</ele><time>2026-03-22T10:30:43.954Z</time></trkpt><trkpt lat="45.5407488" lon="10.8754949"><ele>209.0</ele><time>2026-03-22T10:30:44.95Z</time></trkpt><trkpt lat="45.5408121" lon="10.8756115"><ele>210.0</ele><time>2026-03-22T10:30:45.957Z</time></trkpt><trkpt lat="45.5408427" lon="10.875747"><ele>210.0</ele><time>2026-03-22T10:30:46.952Z</time></trkpt><trkpt lat="45.5408241" lon="10.8758882"><ele>210.0</ele><time>2026-03-22T10:30:47.949Z</time></trkpt><trkpt lat="45.5407855" lon="10.8760081"><ele>210.0</ele><time>2026-03-22T10:30:48.946Z</time></trkpt><trkpt lat="45.5407208" lon="10.8761346"><ele>210.0</ele><time>2026-03-22T10:30:49.955Z</time></trkpt><trkpt lat="45.5406603" lon="10.8762597"><ele>210.0</ele><time>2026-03-22T10:30:50.953Z</time></trkpt><trkpt lat="45.5406022" lon="10.8763745"><ele>211.0</ele><time>2026-03-22T10:30:51.954Z</time></trkpt><trkpt lat="45.5405387" lon="10.8764846"><ele>212.0</ele><time>2026-03-22T10:30:52.953Z</time></trkpt><trkpt lat="45.5404704" lon="10.8765936"><ele>213.0</ele><time>2026-03-22T10:30:53.959Z</time></trkpt><trkpt lat="45.5403955" lon="10.8766998"><ele>214.0</ele><time>2026-03-22T10:30:54.949Z</time></trkpt><trkpt lat="45.5403098" lon="10.8768083"><ele>215.0</ele><time>2026-03-22T10:30:55.954Z</time></trkpt><trkpt lat="45.540223" lon="10.8769073"><ele>211.2</ele><time>2026-03-22T10:30:56.953Z</time></trkpt><trkpt lat="45.5401422" lon="10.8770177"><ele>207.4</ele><time>2026-03-22T10:30:57.956Z</time></trkpt><trkpt lat="45.540059" lon="10.8771205"><ele>203.60000000000002</ele><time>2026-03-22T10:30:58.955Z</time></trkpt><trkpt lat="45.5399758" lon="10.8772116"><ele>199.8</ele><time>2026-03-22T10:30:59.948Z</time></trkpt><trkpt lat="45.5399039" lon="10.8773121"><ele>196.0</ele><time>2026-03-22T10:31:00.956Z</time></trkpt><trkpt lat="45.5398575" lon="10.8774293"><ele>195.99999999999997</ele><time>2026-03-22T10:31:01.96Z</time></trkpt><trkpt lat="45.539841" lon="10.8775531"><ele>196.0</ele><time>2026-03-22T10:31:02.943Z</time></trkpt><trkpt lat="45.5398495" lon="10.8776757"><ele>196.0</ele><time>2026-03-22T10:31:03.956Z</time></trkpt><trkpt lat="45.5398657" lon="10.8777905"><ele>196.0</ele><time>2026-03-22T10:31:04.943Z</time></trkpt><trkpt lat="45.5398898" lon="10.8779003"><ele>195.99999999999997</ele><time>2026-03-22T10:31:05.955Z</time></trkpt><trkpt lat="45.539919" lon="10.8780112"><ele>196.0</ele><time>2026-03-22T10:31:06.964Z</time></trkpt><trkpt lat="45.5399381" lon="10.8781206"><ele>195.83333333333331</ele><time>2026-03-22T10:31:07.951Z</time></trkpt><trkpt lat="45.5399303" lon="10.8782265"><ele>195.66666666666666</ele><time>2026-03-22T10:31:08.943Z</time></trkpt><trkpt lat="45.5399103" lon="10.8783358"><ele>195.5</ele><time>2026-03-22T10:31:09.956Z</time></trkpt><trkpt lat="45.5398799" lon="10.8784541"><ele>195.33333333333331</ele><time>2026-03-22T10:31:10.953Z</time></trkpt><trkpt lat="45.5398644" lon="10.8785692"><ele>195.16666666666666</ele><time>2026-03-22T10:31:11.958Z</time></trkpt><trkpt lat="45.5398521" lon="10.878688"><ele>195.0</ele><time>2026-03-22T10:31:12.954Z</time></trkpt><trkpt lat="45.5398342" lon="10.8788031"><ele>194.57142857142856</ele><time>2026-03-22T10:31:13.951Z</time></trkpt><trkpt lat="45.5398199" lon="10.8789109"><ele>194.14285714285714</ele><time>2026-03-22T10:31:14.949Z</time></trkpt><trkpt lat="45.5398057" lon="10.8790065"><ele>193.71428571428572</ele><time>2026-03-22T10:31:15.963Z</time></trkpt><trkpt lat="45.5397882" lon="10.8791009"><ele>193.28571428571428</ele><time>2026-03-22T10:31:16.954Z</time></trkpt><trkpt lat="45.5397625" lon="10.8791864"><ele>192.85714285714286</ele><time>2026-03-22T10:31:17.956Z</time></trkpt><trkpt lat="45.5397306" lon="10.8792739"><ele>192.42857142857142</ele><time>2026-03-22T10:31:18.958Z</time></trkpt><trkpt lat="45.5396949" lon="10.8793762"><ele>192.0</ele><time>2026-03-22T10:31:19.945Z</time></trkpt><trkpt lat="45.5396564" lon="10.879489"><ele>191.66666666666666</ele><time>2026-03-22T10:31:20.941Z</time></trkpt><trkpt lat="45.5396172" lon="10.8796014"><ele>191.33333333333334</ele><time>2026-03-22T10:31:21.951Z</time></trkpt><trkpt lat="45.5395775" lon="10.8797137"><ele>191.0</ele><time>2026-03-22T10:31:22.95Z</time></trkpt><trkpt lat="45.5395415" lon="10.8798172"><ele>190.66666666666669</ele><time>2026-03-22T10:31:23.954Z</time></trkpt><trkpt lat="45.53951" lon="10.8799127"><ele>190.33333333333334</ele><time>2026-03-22T10:31:24.959Z</time></trkpt><trkpt lat="45.5394795" lon="10.8800064"><ele>190.0</ele><time>2026-03-22T10:31:25.937Z</time></trkpt><trkpt lat="45.5394488" lon="10.8800946"><ele>189.83333333333334</ele><time>2026-03-22T10:31:26.949Z</time></trkpt><trkpt lat="45.5394238" lon="10.8801802"><ele>189.66666666666669</ele><time>2026-03-22T10:31:27.959Z</time></trkpt><trkpt lat="45.5394494" lon="10.8803628"><ele>189.5</ele><time>2026-03-22T10:31:29.958Z</time></trkpt><trkpt lat="45.5394857" lon="10.8804623"><ele>189.33333333333334</ele><time>2026-03-22T10:31:30.96Z</time></trkpt><trkpt lat="45.5395282" lon="10.8805619"><ele>189.16666666666666</ele><time>2026-03-22T10:31:31.951Z</time></trkpt><trkpt lat="45.5395731" lon="10.8806671"><ele>189.0</ele><time>2026-03-22T10:31:32.956Z</time></trkpt><trkpt lat="45.539607" lon="10.8807777"><ele>189.0</ele><time>2026-03-22T10:31:33.958Z</time></trkpt><trkpt lat="45.5396303" lon="10.8808914"><ele>189.0</ele><time>2026-03-22T10:31:34.955Z</time></trkpt><trkpt lat="45.5396503" lon="10.8810041"><ele>189.0</ele><time>2026-03-22T10:31:35.953Z</time></trkpt><trkpt lat="45.5396658" lon="10.8811208"><ele>189.0</ele><time>2026-03-22T10:31:36.968Z</time></trkpt><trkpt lat="45.5396794" lon="10.8812388"><ele>189.0</ele><time>2026-03-22T10:31:37.953Z</time></trkpt><trkpt lat="45.5396874" lon="10.8813593"><ele>189.0</ele><time>2026-03-22T10:31:38.958Z</time></trkpt><trkpt lat="45.5396884" lon="10.8814831"><ele>188.83333333333334</ele><time>2026-03-22T10:31:39.948Z</time></trkpt><trkpt lat="45.5396916" lon="10.8816009"><ele>188.66666666666666</ele><time>2026-03-22T10:31:40.947Z</time></trkpt><trkpt lat="45.5396885" lon="10.8817227"><ele>188.5</ele><time>2026-03-22T10:31:41.956Z</time></trkpt><trkpt lat="45.5396812" lon="10.8818362"><ele>188.33333333333331</ele><time>2026-03-22T10:31:42.958Z</time></trkpt><trkpt lat="45.5396894" lon="10.8819453"><ele>188.16666666666666</ele><time>2026-03-22T10:31:43.959Z</time></trkpt><trkpt lat="45.5397175" lon="10.8820713"><ele>188.0</ele><time>2026-03-22T10:31:44.95Z</time></trkpt><trkpt lat="45.5397667" lon="10.8821873"><ele>187.60000000000002</ele><time>2026-03-22T10:31:45.957Z</time></trkpt><trkpt lat="45.5398389" lon="10.8822914"><ele>187.20000000000002</ele><time>2026-03-22T10:31:46.94Z</time></trkpt><trkpt lat="45.5399122" lon="10.8823919"><ele>186.8</ele><time>2026-03-22T10:31:47.965Z</time></trkpt><trkpt lat="45.5399815" lon="10.882495"><ele>186.4</ele><time>2026-03-22T10:31:48.965Z</time></trkpt><trkpt lat="45.5400433" lon="10.8826006"><ele>186.0</ele><time>2026-03-22T10:31:49.948Z</time></trkpt><trkpt lat="45.5401073" lon="10.8826843"><ele>185.5</ele><time>2026-03-22T10:31:50.952Z</time></trkpt><trkpt lat="45.5401829" lon="10.8827532"><ele>185.0</ele><time>2026-03-22T10:31:51.958Z</time></trkpt><trkpt lat="45.5402644" lon="10.8828264"><ele>184.5</ele><time>2026-03-22T10:31:52.944Z</time></trkpt><trkpt lat="45.5403409" lon="10.8829037"><ele>184.0</ele><time>2026-03-22T10:31:53.942Z</time></trkpt><trkpt lat="45.540419" lon="10.8829662"><ele>183.5</ele><time>2026-03-22T10:31:54.955Z</time></trkpt><trkpt lat="45.5404855" lon="10.8830259"><ele>183.0</ele><time>2026-03-22T10:31:55.955Z</time></trkpt><trkpt lat="45.5405525" lon="10.8830872"><ele>183.0</ele><time>2026-03-22T10:31:56.951Z</time></trkpt><trkpt lat="45.5406159" lon="10.8831495"><ele>183.0</ele><time>2026-03-22T10:31:57.958Z</time></trkpt><trkpt lat="45.5406773" lon="10.8832166"><ele>183.0</ele><time>2026-03-22T10:31:58.955Z</time></trkpt><trkpt lat="45.5407347" lon="10.8832874"><ele>183.0</ele><time>2026-03-22T10:31:59.944Z</time></trkpt><trkpt lat="45.5407895" lon="10.8833642"><ele>183.0</ele><time>2026-03-22T10:32:00.952Z</time></trkpt><trkpt lat="45.5408459" lon="10.8834425"><ele>183.0</ele><time>2026-03-22T10:32:01.962Z</time></trkpt><trkpt lat="45.5409016" lon="10.8835178"><ele>182.66666666666666</ele><time>2026-03-22T10:32:02.951Z</time></trkpt><trkpt lat="45.5409568" lon="10.8835874"><ele>182.33333333333334</ele><time>2026-03-22T10:32:03.949Z</time></trkpt><trkpt lat="45.5410475" lon="10.8836895"><ele>182.0</ele><time>2026-03-22T10:32:05.942Z</time></trkpt><trkpt lat="45.5411316" lon="10.8837701"><ele>181.66666666666669</ele><time>2026-03-22T10:32:07.962Z</time></trkpt><trkpt lat="45.5411969" lon="10.8838288"><ele>181.33333333333334</ele><time>2026-03-22T10:32:09.957Z</time></trkpt><trkpt lat="45.5412508" lon="10.88388"><ele>181.0</ele><time>2026-03-22T10:32:12.95Z</time></trkpt><trkpt lat="45.5413111" lon="10.8839139"><ele>186.0</ele><time>2026-03-22T10:32:57.949Z</time></trkpt></trkseg></trk></gpx>